[[{"header":{"parameterUnit":"m.s-1","parameterCategory":1,"la1":30.6,"la2":28.766,"lo1":-90.7593,"lo2":-88.6598,"dx":0.0162,"dy":0.0183,"nx":116,"ny":114,"refTime":"2023-02-11T06:00:00:Z","depth":0,"parameterNumber":2,"parameterNumberName":"U-component_of_WINDS"},"data":[0.0,0.0,0.0,0.0,0.0,0.0,0.0,0.0,0.0,0.0,0.0,0.0,0.0,0.0,0.0,0.0,0.0,0.0,0.0,0.0,0.0,0.0,0.0,0.0,0.0,0.0,0.0,0.0,0.0,0.0,0.0,0.0,0.0,0.0,0.0,0.0,0.0,0.0,0.0,0.0,0.0,0.0,0.0,0.0,0.0,0.0,0.0,0.0,0.0,0.0,0.0,0.0,0.0,0.0,0.0,0.0,0.0,0.0,0.0,0.0,0.0,0.0,0.0,0.0,0.0,0.0,0.0,0.0,0.0,0.0,0.0,0.0,0.0,0.0,0.0,0.0,0.0,0.0,0.0,0.0,0.0,0.0,0.0,0.0,0.0,0.0,0.0,0.0,0.0,0.0,0.0,0.0,0.0,0.0,0.0,0.0,0.0,0.0,0.0,0.0,0.0,0.0,0.0,0.0,0.0,0.0,0.0,0.0,0.0,0.0,0.0,0.0,0.0,0.0,0.0,0.0,0.0,0.0,0.0,0.0,0.0,0.0,0.0,0.0,0.0,0.0,0.0,0.0,0.0,0.0,0.0,0.0,0.0,0.0,0.0,0.0,0.0,0.0,0.0,0.0,0.0,0.0,0.0,0.0,0.0,0.0,0.0,0.0,0.0,0.0,0.0,0.0,0.0,0.0,0.0,0.0,0.0,0.0,0.0,0.0,0.0,0.0,0.0,0.0,0.0,0.0,0.0,0.0,0.0,0.0,0.0,0.0,0.0,0.0,0.0,0.0,0.0,0.0,0.0,0.0,0.0,0.0,0.0,0.0,0.0,0.0,0.0,0.0,0.0,0.0,0.0,0.0,0.0,0.0,0.0,0.0,0.0,0.0,0.0,0.0,0.0,0.0,0.0,0.0,0.0,0.0,0.0,0.0,0.0,0.0,0.0,0.0,0.0,0.0,0.0,0.0,0.0,0.0,0.0,0.0,0.0,0.0,0.0,0.0,0.0,0.0,0.0,0.0,0.0,0.0,0.0,0.0,0.0,0.0,0.0,0.0,0.0,0.0,0.0,0.0,0.0,0.0,0.0,0.0,0.0,0.0,0.0,0.0,0.0,0.0,0.0,0.0,0.0,0.0,0.0,0.0,0.0,0.0,0.0,0.0,0.0,0.0,0.0,0.0,0.0,0.0,0.0,0.0,0.0,0.0,0.0,0.0,0.0,0.0,0.0,0.0,0.0,0.0,0.0,0.0,0.0,0.0,0.0,0.0,0.0,0.0,0.0,0.0,0.0,0.0,0.0,0.0,0.0,0.0,0.0,0.0,0.0,0.0,0.0,0.0,0.0,0.0,0.0,0.0,0.0,0.0,0.0,0.0,0.0,0.0,0.0,0.0,0.0,0.0,0.0,0.0,0.0,0.0,0.0,0.0,0.0,0.0,0.0,0.0,0.0,0.0,0.0,0.0,0.0,0.0,0.0,0.0,0.0,0.0,0.0,0.0,0.0,0.0,0.0,0.0,0.0,0.0,0.0,0.0,0.0,0.0,0.0,0.0,0.0,0.0,0.0,0.0,0.0,0.0,0.0,0.0,0.0,0.0,0.0,0.0,0.0,0.0,0.0,0.0,0.0,0.0,0.0,0.0,0.0,0.0,0.0,0.0,0.0,0.0,0.0,0.0,0.0,0.0,0.0,0.0,0.0,0.0,0.0,0.0,0.0,0.0,0.0,0.0,0.0,0.0,0.0,0.0,0.0,0.0,0.0,0.0,0.0,0.0,0.0,0.0,0.0,0.0,0.0,0.0,0.0,0.0,0.0,0.0,0.0,0.0,0.0,0.0,0.0,0.0,0.0,0.0,0.0,0.0,0.0,0.0,0.0,0.0,0.0,0.0,0.0,0.0,0.0,0.0,0.0,0.0,0.0,0.0,0.0,0.0,0.0,0.0,0.0,0.0,0.0,0.0,0.0,0.0,0.0,0.0,0.0,0.0,0.0,0.0,0.0,0.0,0.0,0.0,0.0,0.0,0.0,0.0,0.0,0.0,0.0,0.0,0.0,0.0,0.0,0.0,0.0,0.0,0.0,0.0,0.0,0.0,0.0,0.0,0.0,0.0,0.0,0.0,0.0,0.0,0.0,0.0,0.0,0.0,0.0,0.0,0.0,0.0,0.0,0.0,0.0,0.0,0.0,0.0,0.0,0.0,0.0,0.0,0.0,0.0,0.0,0.0,0.0,0.0,0.0,0.0,0.0,0.0,0.0,0.0,0.0,0.0,0.0,0.0,0.0,0.0,0.0,0.0,0.0,0.0,0.0,0.0,0.0,0.0,0.0,0.0,0.0,0.0,0.0,0.0,0.0,0.0,0.0,0.0,0.0,0.0,0.0,0.0,0.0,0.0,0.0,0.0,0.0,0.0,0.0,0.0,0.0,0.0,0.0,0.0,0.0,0.0,0.0,0.0,0.0,0.0,0.0,0.0,0.0,0.0,0.0,0.0,0.0,0.0,0.0,0.0,0.0,0.0,0.0,0.0,0.0,0.0,0.0,0.0,0.0,0.0,0.0,0.0,0.0,0.0,0.0,0.0,0.0,0.0,0.0,0.0,0.0,0.0,0.0,0.0,0.0,0.0,0.0,0.0,0.0,0.0,0.0,0.0,0.0,0.0,0.0,0.0,0.0,0.0,0.0,0.0,0.0,0.0,0.0,0.0,0.0,0.0,0.0,0.0,0.0,0.0,0.0,0.0,0.0,0.0,0.0,0.0,0.0,0.0,0.0,0.0,0.0,0.0,0.0,0.0,0.0,0.0,0.0,0.0,0.0,0.0,0.0,0.0,0.0,0.0,0.0,0.0,0.0,0.0,0.0,0.0,0.0,0.0,0.0,0.0,0.0,0.0,0.0,0.0,0.0,0.0,0.0,0.0,0.0,0.0,0.0,0.0,0.0,0.0,0.0,0.0,0.0,0.0,0.0,0.0,0.0,0.0,0.0,0.0,0.0,0.0,0.0,0.0,0.0,0.0,0.0,0.0,0.0,0.0,0.0,0.0,0.0,0.0,0.0,0.0,0.0,0.0,0.0,0.0,0.0,0.0,0.0,0.0,0.0,0.0,0.0,0.0,0.0,0.0,0.0,0.0,0.0,0.0,0.0,0.0,0.0,0.0,0.0,0.0,0.0,0.0,0.0,0.0,0.0,0.0,0.0,0.0,0.0,0.0,0.0,0.0,0.0,0.0,0.0,0.0,0.0,0.0,0.0,0.0,0.0,0.0,0.0,0.0,0.0,0.0,0.0,0.0,0.0,0.0,0.0,0.0,0.0,0.0,0.0,0.0,0.0,0.0,0.0,0.0,0.0,0.0,0.0,0.0,0.0,0.0,0.0,0.0,0.0,0.0,0.0,0.0,0.0,0.0,0.0,0.0,0.0,0.0,0.0,0.0,0.0,0.0,0.0,0.0,0.0,0.0,0.0,0.0,0.0,0.0,0.0,0.0,0.0,0.0,0.0,0.0,0.0,0.0,0.0,0.0,0.0,0.0,0.0,0.0,0.0,0.0,0.0,0.0,0.0,0.0,0.0,0.0,0.0,0.0,0.0,0.0,0.0,0.0,0.0,0.0,0.0,0.0,0.0,0.0,0.0,0.0,0.0,0.0,0.0,0.0,0.0,0.0,0.0,0.0,0.0,0.0,0.0,0.0,0.0,0.0,0.0,0.0,0.0,0.0,0.0,0.0,0.0,0.0,0.0,0.0,0.0,0.0,0.0,0.0,0.0,0.0,0.0,0.0,0.0,0.0,0.0,0.0,0.0,0.0,0.0,0.0,0.0,0.0,0.0,0.0,0.0,0.0,0.0,0.0,0.0,0.0,0.0,0.0,0.0,0.0,0.0,0.0,0.0,0.0,0.0,0.0,0.0,0.0,0.0,0.0,0.0,0.0,0.0,0.0,0.0,0.0,0.0,0.0,0.0,0.0,0.0,0.0,0.0,0.0,0.0,0.0,0.0,0.0,0.0,0.0,0.0,0.0,0.0,0.0,0.0,0.0,0.0,0.0,0.0,0.0,0.0,0.0,0.0,0.0,0.0,0.0,0.0,0.0,0.0,0.0,0.0,0.0,0.0,0.0,0.0,0.0,0.0,0.0,0.0,0.0,0.0,0.0,0.0,0.0,0.0,0.0,0.0,0.0,0.0,0.0,0.0,0.0,0.0,0.0,0.0,0.0,0.0,0.0,0.0,0.0,0.0,0.0,0.0,0.0,0.0,0.0,0.0,0.0,0.0,0.0,0.0,0.0,0.0,0.0,0.0,0.0,0.0,0.0,0.0,0.0,0.0,0.0,0.0,0.0,0.0,0.0,0.0,0.0,0.0,0.0,0.0,0.0,0.0,0.0,0.0,0.0,0.0,0.0,0.0,0.0,0.0,0.0,0.0,0.0,0.0,0.0,0.0,0.0,0.0,0.0,0.0,0.0,0.0,0.0,0.0,0.0,0.0,0.0,0.0,0.0,0.0,0.0,0.0,0.0,0.0,0.0,0.0,0.0,0.0,0.0,0.0,0.0,0.0,0.0,0.0,0.0,0.0,0.0,0.0,0.0,0.0,0.0,0.0,0.0,0.0,0.0,0.0,0.0,0.0,0.0,0.0,0.0,0.0,0.0,0.0,0.0,0.0,0.0,0.0,0.0,0.0,0.0,0.0,0.0,0.0,0.0,0.0,0.0,0.0,0.0,0.0,0.0,0.0,0.0,0.0,0.0,0.0,0.0,0.0,0.0,0.0,0.0,0.0,0.0,0.0,0.0,0.0,0.0,0.0,0.0,0.0,0.0,0.0,0.0,0.0,0.0,0.0,0.0,0.0,0.0,0.0,0.0,0.0,0.0,0.0,0.0,0.0,0.0,0.0,0.0,0.0,0.0,0.0,0.0,0.0,0.0,0.0,0.0,0.0,0.0,0.0,0.0,0.0,0.0,0.0,0.0,0.0,0.0,0.0,0.0,0.0,0.0,0.0,0.0,0.0,0.0,0.0,0.0,0.0,0.0,0.0,0.0,0.0,0.0,0.0,0.0,0.0,0.0,0.0,0.0,0.0,0.0,0.0,0.0,0.0,0.0,0.0,0.0,0.0,0.0,0.0,0.0,0.0,0.0,0.0,0.0,0.0,0.0,0.0,0.0,0.0,0.0,0.0,0.0,0.0,0.0,0.0,0.0,0.0,0.0,0.0,0.0,0.0,0.0,0.0,0.0,0.0,0.0,0.0,0.0,0.0,0.0,0.0,0.0,0.0,0.0,0.0,0.0,0.0,0.0,0.0,0.0,0.0,0.0,0.0,0.0,0.0,0.0,0.0,0.0,0.0,0.0,0.0,0.0,0.0,0.0,0.0,0.0,0.0,0.0,0.0,0.0,0.0,0.0,0.0,0.0,0.0,0.0,0.0,0.0,0.0,0.0,0.0,0.0,0.0,0.0,0.0,0.0,0.0,0.0,0.0,0.0,0.0,0.0,0.0,0.0,0.0,0.0,0.0,0.0,0.0,0.0,0.0,0.0,0.0,0.0,0.0,0.0,0.0,0.0,0.0,0.0,0.0,0.0,0.0,0.0,0.0,0.0,0.0,0.0,0.0,0.0,0.0,0.0,0.0,0.0,0.0,0.0,0.0,0.0,0.0,0.0,0.0,0.0,0.0,0.0,0.0,0.0,0.0,0.0,0.0,0.0,0.0,0.0,0.0,0.0,0.0,0.0,0.0,0.0,0.0,0.0,0.0,0.0,0.0,0.0,0.0,0.0,0.0,0.0,0.0,0.0,0.0,0.0,0.0,0.0,0.0,0.0,0.0,0.0,0.0,0.0,0.0,0.0,0.0,0.0,0.0,0.0,0.0,0.0,0.0,0.0,0.0,0.0,0.0,0.0,0.0,0.0,0.0,0.0,0.0,0.0,0.0,0.0,0.0,0.0,0.0,0.0,0.0,0.0,0.0,0.0,0.0,0.0,0.0,0.0,0.0,0.0,0.0,0.0,0.0,0.0,0.0,0.0,0.0,0.0,0.0,0.0,0.0,0.0,0.0,0.0,0.0,0.0,0.0,0.0,0.0,0.0,0.0,0.0,0.0,0.0,0.0,0.0,0.0,0.0,0.0,0.0,-7.837,0.0,0.0,0.0,0.0,0.0,0.0,0.0,0.0,0.0,0.0,0.0,0.0,0.0,0.0,0.0,0.0,0.0,0.0,0.0,0.0,0.0,0.0,0.0,0.0,0.0,0.0,0.0,0.0,0.0,0.0,0.0,0.0,0.0,0.0,0.0,0.0,0.0,0.0,0.0,-7.0894,-7.1325,-7.1873,-7.2706,-7.3521,-7.4316,0.0,0.0,0.0,0.0,0.0,0.0,0.0,0.0,0.0,0.0,0.0,0.0,0.0,0.0,0.0,0.0,0.0,0.0,0.0,0.0,0.0,0.0,0.0,0.0,0.0,0.0,0.0,0.0,0.0,0.0,0.0,0.0,0.0,0.0,0.0,0.0,0.0,0.0,0.0,0.0,0.0,0.0,0.0,0.0,0.0,0.0,0.0,0.0,0.0,0.0,0.0,0.0,0.0,0.0,0.0,0.0,0.0,0.0,0.0,0.0,0.0,0.0,0.0,0.0,0.0,0.0,0.0,0.0,0.0,0.0,0.0,-7.8666,0.0,0.0,0.0,0.0,0.0,0.0,0.0,0.0,0.0,0.0,0.0,0.0,0.0,0.0,0.0,0.0,0.0,0.0,0.0,0.0,0.0,0.0,0.0,0.0,0.0,0.0,0.0,0.0,0.0,0.0,0.0,0.0,0.0,0.0,0.0,0.0,0.0,0.0,-7.0467,-7.0844,-7.158,-7.1659,-7.1995,-7.2597,-7.3569,0.0,0.0,0.0,0.0,0.0,0.0,0.0,0.0,0.0,0.0,0.0,0.0,0.0,0.0,0.0,0.0,0.0,0.0,0.0,0.0,0.0,0.0,0.0,0.0,0.0,0.0,0.0,0.0,0.0,0.0,0.0,0.0,0.0,0.0,0.0,0.0,0.0,0.0,0.0,0.0,0.0,0.0,0.0,0.0,0.0,0.0,0.0,0.0,0.0,0.0,0.0,0.0,0.0,0.0,0.0,0.0,0.0,0.0,0.0,0.0,0.0,0.0,0.0,-7.9531,-7.9648,-7.9836,-8.0315,-8.0159,-7.9538,-7.9538,-7.9358,-7.9037,0.0,0.0,0.0,0.0,0.0,0.0,0.0,0.0,0.0,0.0,0.0,0.0,0.0,0.0,0.0,0.0,0.0,0.0,0.0,0.0,0.0,0.0,0.0,0.0,0.0,0.0,0.0,0.0,0.0,0.0,0.0,0.0,0.0,0.0,-7.0538,-7.0569,-7.0554,-7.0669,-7.0746,-7.0776,-7.0831,-7.0808,-7.0839,-7.2489,-7.3581,-7.4163,0.0,0.0,0.0,0.0,0.0,0.0,0.0,0.0,0.0,0.0,0.0,0.0,0.0,0.0,0.0,0.0,0.0,0.0,0.0,0.0,0.0,0.0,0.0,0.0,0.0,0.0,0.0,0.0,0.0,0.0,0.0,0.0,0.0,0.0,0.0,0.0,0.0,0.0,0.0,0.0,0.0,-7.574,-7.5917,0.0,0.0,0.0,0.0,0.0,0.0,0.0,0.0,0.0,0.0,0.0,0.0,0.0,-7.8366,-7.9111,-7.9149,-7.9551,-8.0353,-8.0353,-8.0373,-8.0392,-8.0487,-7.9958,-7.8989,-7.8989,0.0,-7.9561,-7.9561,0.0,0.0,0.0,0.0,0.0,0.0,0.0,0.0,0.0,0.0,0.0,0.0,0.0,0.0,0.0,0.0,0.0,0.0,0.0,0.0,0.0,0.0,0.0,0.0,0.0,0.0,0.0,0.0,0.0,0.0,0.0,0.0,-7.0419,-7.0538,-7.0601,-7.0662,-7.0737,-7.0684,-7.0662,-7.0693,-7.0647,-7.056,-7.1335,-7.2106,-7.2826,-7.3437,0.0,0.0,0.0,0.0,0.0,0.0,0.0,0.0,0.0,0.0,0.0,0.0,0.0,0.0,0.0,0.0,0.0,0.0,0.0,0.0,0.0,0.0,0.0,0.0,0.0,0.0,0.0,0.0,0.0,0.0,0.0,0.0,0.0,0.0,0.0,0.0,0.0,0.0,0.0,-7.5747,-7.5986,-7.6469,-7.6443,-7.6569,0.0,0.0,0.0,0.0,0.0,0.0,0.0,0.0,0.0,-7.871,-7.9169,-7.9589,-7.9971,-7.9971,-8.0162,-8.0506,-8.0199,-7.9878,-7.9583,-7.9583,-7.9157,-7.8495,-7.8766,-7.8866,-7.8766,-7.8495,-7.8389,-7.8442,0.0,0.0,0.0,0.0,-7.8016,-7.8016,0.0,0.0,0.0,0.0,0.0,0.0,0.0,0.0,0.0,0.0,0.0,0.0,0.0,0.0,0.0,-7.0829,0.0,0.0,0.0,0.0,0.0,0.0,0.0,-7.0419,-7.0419,-7.0554,-7.0662,-7.0737,-7.0729,-7.0714,-7.0723,-7.0737,-7.0693,-7.0623,-7.0623,-7.0997,-7.1756,-7.2788,-7.3246,0.0,0.0,0.0,0.0,0.0,0.0,0.0,0.0,0.0,0.0,0.0,0.0,0.0,0.0,0.0,0.0,0.0,0.0,0.0,0.0,0.0,0.0,0.0,0.0,0.0,0.0,0.0,0.0,0.0,0.0,0.0,0.0,0.0,0.0,0.0,0.0,0.0,0.0,-7.6366,-7.6667,-7.7182,-7.7258,-7.7454,0.0,0.0,0.0,0.0,0.0,0.0,-7.8328,-7.913,-7.9589,-7.9589,-8.02,-8.0506,-8.0506,-8.0506,-8.0506,-8.0506,-8.0119,-7.9708,-7.9335,-7.9335,-7.894,-7.8336,-7.8716,-7.851,-7.7875,-7.7629,-7.7651,-7.7883,-7.7487,-7.754,-7.7854,-7.7457,-7.7273,-7.7273,0.0,0.0,0.0,0.0,0.0,0.0,0.0,0.0,0.0,0.0,0.0,0.0,0.0,0.0,-7.0898,-7.0898,-7.0829,-7.0787,0.0,0.0,0.0,0.0,0.0,-7.0419,-7.0419,-7.0578,-7.0752,-7.0787,-7.0857,-7.0815,-7.0723,-7.0758,-7.0737,-7.0623,-7.0623,-7.0997,-7.1642,-7.0916,-7.1985,-7.401,0.0,0.0,0.0,0.0,0.0,0.0,0.0,0.0,0.0,0.0,0.0,0.0,0.0,0.0,0.0,0.0,0.0,0.0,0.0,0.0,0.0,0.0,0.0,0.0,0.0,0.0,0.0,0.0,0.0,0.0,0.0,0.0,0.0,0.0,0.0,0.0,0.0,0.0,0.0,-7.819,-7.8053,0.0,0.0,0.0,0.0,-7.8022,-7.8748,-7.9225,-7.9225,-8.0009,-8.043,-8.043,-8.0468,-8.0506,-8.0506,-8.0506,-8.0506,-8.0506,-8.0487,-8.0468,-8.0411,-8.0411,-7.9836,-7.8866,-7.8891,-7.8309,-7.7365,-7.7846,-7.7797,-7.7335,-7.7304,-7.7304,-7.7335,-7.7304,-7.7273,-7.7273,0.0,0.0,0.0,0.0,0.0,0.0,0.0,0.0,0.0,0.0,0.0,0.0,0.0,-7.0898,-7.0898,-7.0898,-7.0871,-7.0843,-7.0801,0.0,0.0,0.0,0.0,-7.0467,-7.0578,-7.0699,-7.0787,-7.0857,-7.0843,-7.0801,-7.0743,-7.0708,-7.0632,-7.0608,-7.0522,-7.0642,-7.0877,-7.1145,-7.145,-7.1871,-7.2902,-7.3208,0.0,0.0,0.0,0.0,0.0,0.0,0.0,0.0,0.0,0.0,0.0,0.0,0.0,0.0,0.0,0.0,0.0,0.0,0.0,0.0,0.0,0.0,0.0,0.0,0.0,0.0,0.0,0.0,0.0,0.0,0.0,0.0,0.0,0.0,0.0,0.0,0.0,-7.8894,-7.8915,0.0,-7.9606,-7.9607,-7.9627,-7.9627,-7.9895,-8.0047,-8.0047,-8.0353,-8.0506,-8.0506,-8.0506,-8.0506,-8.0506,-8.0506,-8.0506,-8.0506,-8.0159,-7.9979,-7.9958,-7.9288,-7.8741,-7.8389,-7.8389,-7.7988,-7.7335,-7.7875,-7.7797,-7.7273,-7.7273,-7.7273,-7.7273,-7.7273,-7.7273,-7.7273,0.0,0.0,0.0,0.0,0.0,0.0,0.0,0.0,0.0,0.0,0.0,-7.0898,-7.0898,-7.0898,-7.0898,-7.0898,-7.0898,-7.0871,-7.0801,0.0,0.0,0.0,-7.0531,-7.0578,-7.0714,-7.0758,-7.0815,-7.0857,-7.0843,-7.0801,-7.0758,-7.0708,-7.0632,-7.0608,-7.0522,-7.0435,-7.0457,-7.103,-7.1107,-7.0992,-7.2673,-7.3017,-7.2711,0.0,0.0,0.0,0.0,0.0,0.0,0.0,0.0,0.0,0.0,0.0,0.0,0.0,0.0,0.0,0.0,0.0,0.0,0.0,0.0,0.0,0.0,0.0,0.0,0.0,0.0,0.0,0.0,0.0,0.0,0.0,0.0,0.0,0.0,0.0,-7.9127,-7.9646,-7.972,-7.9968,-8.043,-8.0506,-8.0506,-8.0506,-8.0506,-8.0506,-8.0506,-8.0506,-8.0506,-8.0506,-8.0506,-8.0506,-8.0506,-8.0506,-8.0506,-8.0506,-8.0159,-7.9979,-7.9958,-7.9241,-7.8791,-7.8614,-7.8469,-7.8072,-7.7599,-7.7768,-7.7629,-7.7273,-7.7273,-7.7273,-7.7273,-7.7273,-7.7273,-7.7273,0.0,0.0,0.0,0.0,0.0,0.0,0.0,0.0,0.0,0.0,-7.0898,-7.0898,-7.0898,-7.0898,-7.0898,-7.0898,-7.0898,-7.0871,-7.0801,-7.0787,0.0,0.0,-7.0723,-7.0714,-7.0787,-7.0787,-7.0801,-7.0801,-7.0857,-7.0829,-7.0723,-7.0758,-7.0737,-7.0585,-7.0608,-7.0522,-7.0419,-7.0419,-7.0877,-7.1658,-7.168,-7.2673,-7.4125,0.0,0.0,0.0,0.0,0.0,0.0,0.0,0.0,0.0,0.0,0.0,0.0,0.0,0.0,0.0,0.0,0.0,0.0,0.0,0.0,0.0,0.0,0.0,0.0,0.0,0.0,0.0,0.0,0.0,0.0,0.0,0.0,0.0,-8.0506,-8.0506,-8.0506,-8.0506,-8.0506,-8.0506,-8.0506,-8.0506,-8.0506,-8.0506,-8.0506,-8.0506,-8.0506,-8.0506,-8.0506,-8.0506,-8.0506,-8.0506,-8.0506,-8.0506,-8.0506,-8.0506,-8.0506,-8.0506,-8.0506,-8.0487,-8.0179,-7.9643,-7.9085,-7.8562,-7.8044,-7.754,-7.7341,-7.7347,-7.731,-7.7273,-7.7273,-7.7273,-7.7273,-7.7273,0.0,0.0,0.0,0.0,0.0,0.0,0.0,0.0,0.0,0.0,-7.0898,-7.0898,-7.0898,-7.0898,-7.0898,-7.0898,-7.0898,-7.0885,-7.0871,0.0,0.0,0.0,-7.0729,-7.0772,-7.0787,-7.0843,-7.0871,-7.0871,-7.0829,-7.0829,-7.0829,-7.0723,-7.0662,-7.0678,-7.0499,-7.0435,-7.0419,-7.0419,-7.0533,-7.0801,-7.145,-7.1985,-7.252,0.0,0.0,0.0,0.0,0.0,0.0,0.0,0.0,0.0,0.0,0.0,0.0,0.0,0.0,0.0,0.0,0.0,0.0,0.0,0.0,0.0,0.0,0.0,0.0,0.0,0.0,0.0,0.0,0.0,0.0,0.0,-8.0525,-8.0525,-8.056,-8.0505,-8.0506,-8.0506,-8.0506,-8.0506,-8.0506,-8.0506,-8.0506,-8.0506,-8.0506,-8.0506,-8.0506,-8.0506,-8.0506,-8.0506,-8.0506,-8.0506,-8.0506,-8.0506,-8.0506,-8.0506,-8.0506,-8.0506,-8.0487,-7.9708,-7.9288,-7.9085,-7.8536,-7.8016,-7.754,-7.7797,-7.802,-7.8185,-7.753,-7.7273,-7.7273,-7.7273,-7.7273,-7.7273,0.0,0.0,0.0,0.0,0.0,0.0,0.0,0.0,0.0,0.0,-7.0898,-7.0898,-7.0898,-7.0898,-7.0898,-7.0898,-7.0898,-7.0885,-7.0857,0.0,0.0,0.0,-7.0815,-7.0829,-7.0829,-7.0871,-7.0898,-7.0898,-7.0857,-7.0843,-7.0857,-7.0723,-7.0647,-7.0647,-7.0467,-7.0419,-7.0419,-7.0419,-7.0419,-7.0495,-7.1336,-7.1909,-7.2367,-7.3705,-7.4431,-7.4813,-7.531,-7.5518,-7.5518,-7.5518,0.0,0.0,0.0,0.0,0.0,0.0,0.0,0.0,0.0,0.0,0.0,0.0,0.0,0.0,0.0,0.0,0.0,0.0,0.0,0.0,0.0,0.0,0.0,0.0,-8.0506,-8.0525,-8.0542,-8.0505,-8.0506,-8.0506,-8.0506,-8.0506,-8.0506,-8.0506,-8.0506,-8.0506,-8.0506,-8.0506,-8.0506,-8.0506,-8.0506,-8.0506,-8.0506,-8.0506,-8.0506,-8.0506,-8.0506,-8.0506,-8.0506,-8.0373,-8.0159,-7.9751,-7.9449,0.0,-7.9014,-7.8776,-7.8516,-7.8742,-7.8927,0.0,0.0,0.0,0.0,0.0,-7.8369,-7.8369,0.0,0.0,0.0,0.0,0.0,0.0,0.0,0.0,0.0,0.0,0.0,-7.1168,-7.1052,-7.1052,-7.1014,-7.0898,-7.0898,-7.0871,0.0,0.0,0.0,-7.0898,-7.0898,-7.0898,-7.0898,-7.0898,-7.0898,-7.0898,-7.0885,-7.0857,-7.0801,-7.0714,-7.0678,-7.0601,-7.0483,-7.0435,-7.0419,-7.0419,-7.0419,-7.0495,-7.1336,-7.2215,-7.3093,-7.3896,-7.4736,-7.5518,-7.5518,-7.5518,-7.5518,-7.5518,0.0,0.0,0.0,0.0,0.0,0.0,0.0,0.0,0.0,0.0,0.0,0.0,0.0,0.0,0.0,0.0,0.0,0.0,0.0,0.0,0.0,0.0,0.0,0.0,-8.0506,-8.0506,-8.0506,-8.0506,-8.0506,-8.0506,-8.0506,-8.0506,-8.0506,-8.0506,-8.0506,-8.0506,-8.0506,-8.0506,-8.0506,0.0,0.0,0.0,0.0,-8.0506,-8.0506,-8.0506,-8.0506,-8.0506,-8.0506,-8.0238,-7.9794,-8.0219,-8.0197,-7.9854,-7.9978,-8.0078,-8.0151,-7.9919,-7.9837,-7.9837,-7.9029,-7.9176,-7.98,-7.98,-7.98,0.0,0.0,0.0,0.0,0.0,0.0,0.0,0.0,0.0,0.0,-7.3014,-7.3014,-7.2745,-7.2014,-7.1937,-7.1668,-7.0975,-7.0898,-7.0898,0.0,0.0,-7.0885,-7.0898,-7.0898,-7.0898,-7.0898,-7.0898,-7.0898,-7.0898,-7.0843,-7.0829,-7.0871,-7.0743,-7.0737,-7.0782,-7.0669,-7.0632,-7.0554,-7.0554,-7.0522,-7.0495,-7.1336,-7.2215,-7.3093,-7.3896,-7.4736,-7.5518,-7.5518,-7.5518,-7.5518,-7.5518,-7.5518,-7.5518,-7.5518,-7.5518,0.0,0.0,0.0,0.0,0.0,0.0,0.0,0.0,0.0,0.0,0.0,0.0,0.0,0.0,0.0,0.0,0.0,0.0,0.0,-8.0506,-8.0506,-8.0506,-8.0506,-8.0506,-8.0506,-8.0506,-8.0506,-8.0506,-8.0506,-8.0506,-8.0506,-8.0506,-8.0506,-8.0506,-8.0506,-8.0506,-8.0506,-8.0506,-8.0506,-8.0506,-8.0506,-8.0506,-8.0506,-8.0506,0.0,0.0,-8.0335,-7.9999,-8.0173,-8.0709,-7.9826,-7.9856,-8.0498,-7.9996,-8.0167,-8.0681,-7.9874,-7.9653,-7.98,-7.98,-7.98,-7.98,0.0,0.0,0.0,0.0,0.0,0.0,0.0,0.0,0.0,0.0,-7.3514,-7.3322,-7.2899,-7.2476,-7.2014,-7.1591,-7.1168,0.0,0.0,-7.0898,-7.0898,-7.0898,-7.0898,-7.0898,-7.0898,-7.0898,-7.0898,-7.0898,-7.0857,-7.0857,-7.0898,-7.0787,-7.0758,-7.0787,-7.0714,-7.0693,-7.0647,-7.0647,-7.083,-7.1172,-7.2051,-7.286,-7.3628,-7.4049,-7.4736,-7.5518,-7.5518,-7.5518,-7.5518,-7.5518,-7.5518,-7.5518,-7.5514,-7.5535,-7.5518,0.0,0.0,0.0,0.0,0.0,0.0,0.0,0.0,0.0,0.0,0.0,0.0,0.0,0.0,-8.0506,-8.0506,0.0,-8.0506,-8.0506,-8.0506,-8.0506,-8.0506,-8.0506,-8.0506,-8.0506,-8.0506,-8.0506,-8.0506,-8.0506,-8.0506,-8.0506,-8.0506,-8.0506,-8.0506,-8.0506,-8.0506,-8.0506,-8.0506,-8.0506,-8.0506,-8.0506,-8.0506,-8.0506,-8.0506,-8.0602,-8.0728,-8.0766,-8.0894,-8.1174,-8.1001,-8.1019,-8.119,-8.1076,-8.1232,-8.1562,-8.1158,-8.0975,-8.0975,-8.0975,-8.0975,-8.0975,0.0,0.0,0.0,0.0,0.0,0.0,0.0,0.0,0.0,0.0,-7.4014,-7.3937,-7.3745,-7.3091,-7.2629,0.0,0.0,0.0,0.0,-7.1398,-7.1398,-7.1398,-7.1398,-7.1321,-7.1168,-7.1168,-7.1052,-7.0898,-7.0898,-7.0898,-7.0898,-7.0843,-7.0815,-7.0815,-7.0743,-7.0829,-7.0968,-7.0968,-7.1383,-7.2148,-7.3013,-7.3729,-7.4257,-7.441,-7.4907,-7.5518,-7.5518,-7.5518,-7.5518,-7.5518,-7.5518,-7.5518,-7.5549,-7.5532,-7.5518,-7.5549,-7.5532,0.0,0.0,0.0,0.0,0.0,0.0,0.0,0.0,-8.0506,-8.0506,-8.0506,-8.0506,-8.0506,-8.0506,-8.0506,-8.0506,-8.0506,-8.0506,-8.0506,-8.0506,-8.0506,-8.0506,-8.0506,-8.0506,-8.0506,-8.0506,-8.0506,-8.0506,-8.0506,-8.0506,-8.0506,-8.0506,-8.0506,-8.0506,-8.0506,-8.0506,-8.0506,-8.0506,-8.0506,-8.0506,-8.0506,-8.0659,-8.0868,-8.1208,-8.1765,-8.1955,-8.1821,-8.2418,-8.2398,-8.1874,-8.2118,-8.2186,-8.2186,-8.2186,-8.2186,-8.2186,-8.2186,-8.2186,-8.2186,0.0,0.0,0.0,0.0,0.0,0.0,0.0,0.0,0.0,0.0,0.0,0.0,0.0,0.0,0.0,0.0,0.0,0.0,-7.3206,-7.3206,-7.3206,-7.3206,-7.3206,-7.286,-7.2052,-7.2052,-7.1668,-7.0898,-7.0898,-7.0898,-7.0898,-7.0885,-7.0885,-7.0885,-7.0885,-7.1266,-7.1939,-7.1939,-7.2394,-7.3108,-7.399,-7.4363,-7.4435,-7.5162,-7.5455,-7.5518,-7.5518,-7.5518,-7.5518,-7.5518,-7.5518,-7.5518,-7.5518,-7.5518,-7.5518,-7.5518,-7.5518,-7.5518,-7.5518,-7.6074,-7.7105,-7.8863,-7.9302,-7.9531,0.0,-8.0506,-8.0506,-8.0506,-8.0506,-8.0506,-8.0506,-8.0506,-8.0506,-8.0506,-8.0506,-8.0506,-8.0506,-8.0506,-8.0506,-8.0506,-8.0506,-8.0506,-8.0506,-8.0506,-8.0506,-8.0506,-8.0506,-8.0506,-8.0506,-8.0506,-8.0506,-8.0506,-8.0506,-8.0506,-8.0506,-8.0506,-8.0506,-8.0506,-8.127,-8.1671,-8.1748,-8.2512,-8.296,-8.3171,-8.3039,-8.2652,-8.2137,-8.2182,-8.2186,-8.2186,-8.2186,-8.2186,-8.2186,-8.2186,-8.2186,-8.2186,0.0,0.0,0.0,0.0,0.0,0.0,0.0,0.0,0.0,0.0,0.0,0.0,0.0,0.0,0.0,0.0,0.0,0.0,-7.3514,-7.3514,-7.3514,-7.3514,-7.3514,-7.3322,-7.2976,-7.2976,-7.2783,-7.2399,-7.2399,-7.2399,-7.2399,-7.2399,-7.2399,-7.2399,-7.2399,-7.2615,-7.2933,-7.2933,-7.3351,-7.4044,-7.4428,-7.4804,-7.5184,-7.5529,-7.5649,-7.5616,-7.5553,-7.5518,0.0,0.0,-7.5518,-7.5518,-7.557,-7.5514,-7.5518,-7.557,-7.5553,-7.5518,-7.5518,-7.573,-7.6418,-7.8099,-7.8519,-7.8901,-8.02,-8.0506,-8.0506,-8.0506,-8.0506,-8.0506,-8.0506,-8.0506,-8.0506,-8.0506,-8.0506,-8.0506,-8.0506,-8.0506,-8.0506,-8.0506,-8.0506,-8.0506,-8.0506,-8.0506,-8.0506,-8.0506,-8.0506,-8.0506,-8.0506,-8.0506,-8.0506,-8.0506,-8.0506,-8.0506,-8.0506,-8.0506,-8.0735,-8.127,-8.1614,-8.2302,-8.3257,-8.3601,-8.373,-8.3665,-8.3219,-8.2883,-8.2678,-8.3032,-8.2972,-8.2678,-8.2678,-8.2465,-8.2186,-8.2186,-8.2186,-8.2186,0.0,0.0,0.0,0.0,0.0,0.0,0.0,0.0,0.0,0.0,0.0,0.0,0.0,0.0,0.0,0.0,0.0,0.0,0.0,-7.4207,-7.4207,-7.4207,-7.4207,-7.4091,-7.386,-7.3808,-7.3745,-7.3514,-7.3514,-7.3514,-7.3514,-7.3514,-7.3514,-7.3514,-7.3514,-7.363,-7.3808,-7.3808,-7.4293,-7.4965,-7.4965,-7.5303,-7.5763,-7.5763,-7.5731,-7.5644,-7.5549,-7.5553,0.0,0.0,-7.5518,-7.5518,-7.5549,-7.5553,-7.5518,-7.5549,-7.5553,-7.5518,-7.5518,-7.5518,-7.5883,-7.7564,-7.8022,-7.8443,-8.0124,-8.0506,-8.0506,-8.0506,-8.0506,-8.0506,-8.0506,-8.0506,-8.0506,-8.0506,-8.0506,-8.0506,-8.0506,-8.0506,-8.0506,-8.0506,-8.0506,-8.0506,-8.0506,-8.0506,-8.0506,-8.0506,-8.0506,-8.0506,-8.0506,-8.0506,-8.0506,-8.0506,-8.0506,-8.0506,-8.0506,-8.0735,-8.1194,-8.1805,-8.2264,-8.3142,-8.4289,-8.436,-8.4278,-8.4092,-8.3508,-8.3255,-8.3284,-8.3535,-8.3396,-8.3002,-8.2823,-8.256,-8.2186,-8.2186,-8.2186,-8.2186,0.0,0.0,0.0,0.0,0.0,0.0,0.0,0.0,0.0,0.0,0.0,0.0,0.0,0.0,0.0,0.0,0.0,0.0,0.0,-7.5938,-7.5938,-7.5938,-7.5938,-7.5515,-7.4668,-7.4668,-7.4284,-7.3514,-7.3514,-7.3514,-7.3514,-7.3514,-7.3514,-7.3514,-7.3514,-7.3937,-7.4668,-7.4668,-7.5168,-7.5976,-7.5976,-7.5917,-7.5879,-7.5879,-7.5785,-7.5599,-7.5599,0.0,0.0,0.0,-7.5518,-7.5518,-7.5518,-7.5518,-7.5518,-7.5518,-7.5518,-7.5518,-7.5518,-7.5518,-7.5883,-7.7564,-7.8022,-7.8443,-8.0124,-8.0506,-8.0506,-8.0506,-8.0506,-8.0506,-8.0506,-8.0506,-8.0506,-8.0506,-8.0506,-8.0506,-8.0506,-8.0506,-8.0506,-8.0506,-8.0506,-8.0506,0.0,-8.0506,-8.0506,-8.0506,-8.0506,-8.0506,-8.0506,-8.0506,-8.0506,-8.0506,-8.0506,-8.0506,-8.0506,-8.1347,-8.1767,-8.1805,-8.3448,-8.425,-8.4307,-8.4578,-8.4673,-8.4665,-8.4117,-8.3885,-8.3832,-8.3255,-8.2994,-8.2972,-8.2439,-8.2219,-8.2186,-8.2186,-8.2186,-8.2186,0.0,0.0,0.0,0.0,0.0,0.0,0.0,0.0,0.0,0.0,0.0,0.0,0.0,0.0,0.0,0.0,-7.6015,-7.6015,0.0,-7.6015,-7.6015,-7.6015,-7.6015,-7.5861,-7.5553,-7.5553,-7.5438,-7.5168,-7.5168,-7.5168,-7.5168,-7.5168,-7.5168,-7.5168,-7.5168,-7.5322,-7.5553,-7.5553,-7.5745,-7.6015,-7.6015,-7.6,-7.597,-7.597,-7.591,-7.5801,0.0,0.0,0.0,0.0,-7.5518,-7.5518,-7.5518,-7.5518,-7.5518,-7.5518,-7.5518,-7.5518,-7.5518,-7.5883,-7.657,-7.7717,-7.8443,-7.913,-8.0238,-8.0506,-8.0506,-8.0506,-8.0506,-8.0506,-8.0506,-8.0506,-8.0506,-8.0506,-8.0506,-8.0506,-8.0506,-8.0506,-8.0506,-8.0506,-8.0506,0.0,0.0,0.0,0.0,-8.0506,-8.0506,-8.0506,-8.0506,-8.0506,-8.0506,-8.0506,-8.0506,-8.0773,-8.1347,-8.1652,-8.2378,-8.3486,-8.4556,-8.5091,-8.5071,-8.4823,-8.4711,-8.4711,-8.451,-8.4438,-8.4438,-8.4604,-8.423,-8.359,-8.3396,-8.286,-8.2186,-8.2186,-8.2186,-8.2186,0.0,0.0,0.0,0.0,0.0,0.0,0.0,0.0,0.0,0.0,0.0,0.0,0.0,0.0,0.0,0.0,0.0,-7.6015,0.0,0.0,-7.6015,-7.6015,-7.6015,-7.6015,-7.6015,-7.6015,-7.6015,-7.6015,-7.6015,-7.6015,-7.6015,-7.6015,-7.6015,-7.6015,-7.6015,-7.6015,-7.6015,-7.6015,-7.6015,-7.6015,-7.6015,-7.6015,-7.6015,-7.5985,-7.5925,0.0,0.0,0.0,0.0,0.0,-7.5518,-7.5518,-7.5518,-7.5518,-7.5518,-7.5518,-7.5518,-7.5518,-7.5518,-7.6074,-7.6914,-7.7793,-7.8672,-7.9531,-8.0315,-8.0543,-8.0505,-8.0506,-8.0543,-8.0505,-8.0506,-8.0506,-8.0506,-8.0506,-8.0506,-8.0506,-8.0506,-8.0506,-8.0506,-8.0506,-8.0506,-8.0506,0.0,0.0,0.0,-8.0506,-8.0506,-8.0506,-8.0506,-8.0506,-8.0506,-8.0506,-8.0812,-8.1232,-8.1805,-8.2378,-8.3372,-8.4747,-8.5244,-8.5511,-8.5491,-8.5148,-8.5018,-8.4997,-8.478,-8.4803,-8.4958,-8.4696,-8.4341,-8.3859,-8.3452,-8.286,-8.2186,-8.2186,-8.2186,-8.2186,0.0,0.0,0.0,0.0,0.0,0.0,0.0,0.0,0.0,0.0,0.0,0.0,0.0,0.0,0.0,0.0,0.0,0.0,0.0,0.0,0.0,-7.6015,-7.6015,-7.6015,-7.6015,-7.6015,-7.6015,-7.6015,-7.6015,-7.6015,-7.6015,-7.6015,-7.6015,-7.6015,-7.6015,-7.6015,-7.6015,-7.6015,-7.6015,-7.6015,-7.6015,-7.6015,-7.6,-7.5925,0.0,0.0,0.0,0.0,0.0,-7.5518,-7.5518,-7.5518,-7.5518,-7.5518,-7.5518,-7.5518,-7.5518,-7.5518,-7.5556,-7.615,-7.6991,-7.787,-7.871,-7.9569,-8.0333,-8.056,-8.0596,-8.0543,-8.056,-8.0578,-8.0525,-8.0506,-8.0506,-8.0506,-8.0506,-8.0506,-8.0506,-8.0506,-8.0506,-8.0506,-8.0506,-8.0506,-8.0506,-8.0506,0.0,-8.0506,0.0,-8.0506,-8.0506,-8.0506,-8.0506,-8.0582,-8.1385,-8.1843,-8.192,-8.3563,-8.4747,-8.5511,-8.5511,-8.5511,-8.5511,-8.5511,-8.5511,-8.5491,-8.4914,-8.498,-8.5332,-8.3742,-8.3424,-8.3806,-8.2739,-8.2279,-8.2284,-8.2284,-8.2284,-8.2284,0.0,0.0,0.0,0.0,0.0,0.0,0.0,0.0,0.0,0.0,0.0,0.0,0.0,0.0,0.0,0.0,0.0,0.0,0.0,0.0,0.0,0.0,0.0,0.0,0.0,0.0,0.0,0.0,-7.6015,-7.6015,-7.6015,-7.6015,-7.6015,-7.6015,-7.6015,-7.6015,-7.6015,-7.6015,-7.6015,-7.6015,0.0,-7.6015,-7.6,0.0,0.0,0.0,0.0,0.0,-7.6321,-7.5778,-7.5566,-7.5566,-7.5566,-7.5514,-7.5518,-7.5549,-7.5553,-7.5633,-7.6352,-7.7082,-7.787,-7.8748,-7.9606,-8.031,-8.054,-8.065,-8.0741,-8.0596,-8.0596,-8.0578,-8.0525,-8.0506,-8.0506,-8.0506,-8.0506,-8.0506,-8.0506,-8.0506,-8.0506,-8.0506,-8.0506,-8.0506,-8.0506,-8.0506,0.0,0.0,-8.0506,-8.0506,-8.0506,-8.0506,-8.0812,-8.1461,-8.169,-8.2416,-8.3639,-8.4671,-8.532,-8.5511,-8.5511,-8.5511,-8.5511,-8.5511,-8.5511,-8.5491,-8.4914,-8.478,-8.487,-8.4462,-8.4142,-8.3911,-8.4041,-8.3832,-8.3452,-8.3452,-8.3452,-8.3396,0.0,0.0,0.0,0.0,0.0,0.0,0.0,0.0,0.0,0.0,0.0,0.0,0.0,0.0,0.0,0.0,0.0,0.0,0.0,0.0,0.0,0.0,0.0,0.0,0.0,0.0,0.0,0.0,0.0,0.0,0.0,-7.6015,-7.6015,-7.6015,-7.6015,-7.6015,-7.6015,-7.6015,0.0,0.0,0.0,0.0,0.0,0.0,0.0,0.0,0.0,-7.742,-7.7322,-7.6947,-7.6312,-7.5649,-7.5616,-7.5599,-7.5659,-7.6059,-7.614,-7.6297,-7.719,-7.7979,-7.8672,-7.9187,-7.9968,-8.0596,-8.056,-8.0705,-8.0758,-8.0578,-8.0578,-8.0578,-8.0525,-8.0506,-8.0506,-8.0506,-8.0506,-8.0506,-8.0506,-8.0506,-8.0506,-8.0506,-8.0506,-8.0506,-8.0506,-8.0506,-8.0506,0.0,-8.0506,-8.0506,-8.0506,-8.0506,-8.0888,-8.1767,-8.2149,-8.3142,-8.4824,-8.5282,-8.5511,-8.5511,-8.5511,-8.5511,-8.5511,-8.5511,-8.5373,-8.5126,0.0,-8.4486,-8.465,-8.4155,-8.4054,-8.4267,-8.4317,-8.4167,-8.3911,-8.3911,-8.3726,-8.3452,0.0,0.0,0.0,0.0,0.0,0.0,0.0,0.0,0.0,0.0,0.0,0.0,0.0,0.0,0.0,0.0,0.0,0.0,0.0,0.0,0.0,0.0,0.0,0.0,0.0,0.0,0.0,0.0,0.0,0.0,0.0,0.0,0.0,0.0,0.0,0.0,0.0,0.0,0.0,0.0,0.0,0.0,0.0,0.0,0.0,0.0,0.0,-7.8348,-7.847,-7.8551,-7.7461,-7.6038,-7.5994,-7.6011,-7.6175,-7.6875,-7.7071,-7.7263,-7.8067,-7.88,-7.9358,-7.9473,-8.0063,-8.0614,-8.0562,-8.0688,-8.0758,-8.0562,-8.056,-8.0578,-8.0525,-8.0506,-8.0506,-8.0506,-8.0506,-8.0506,-8.0506,-8.0506,-8.0506,-8.0506,-8.0506,-8.0506,-8.0506,-8.0506,-8.0506,-8.0506,-8.0506,-8.0506,-8.0506,-8.0621,-8.1117,-8.2111,-8.2913,-8.4021,-8.5511,-8.5511,-8.5511,-8.5511,-8.5511,-8.5511,-8.5511,-8.5451,-8.5169,-8.478,0.0,0.0,-8.4604,-8.3634,-8.3795,-8.465,-8.4267,-8.4117,-8.4117,-8.4041,-8.3661,-8.3198,0.0,0.0,0.0,0.0,0.0,0.0,0.0,0.0,0.0,0.0,0.0,0.0,0.0,0.0,0.0,0.0,0.0,0.0,0.0,0.0,0.0,0.0,0.0,0.0,0.0,0.0,0.0,0.0,0.0,0.0,0.0,0.0,0.0,0.0,0.0,0.0,0.0,0.0,0.0,0.0,0.0,0.0,0.0,0.0,0.0,0.0,-7.9007,-7.928,-7.9297,-7.9434,-7.8798,-7.7937,-7.784,-7.7823,-7.7878,-7.8015,-7.8053,-7.8245,-7.9033,-7.9327,-7.9524,-8.0213,-8.0591,-8.0758,-8.0758,-8.0826,-8.0822,-8.0632,-8.0596,-8.0578,-8.0525,-8.0506,-8.0506,-8.0506,-8.0506,-8.0506,-8.0506,-8.0506,-8.0506,-8.0506,-8.0506,-8.0506,-8.0506,-8.0506,0.0,0.0,-8.0506,-8.0506,-8.0506,-8.1194,-8.2264,-8.383,-8.4632,-8.5206,-8.5511,-8.5511,-8.5511,-8.5511,-8.5511,-8.5511,-8.5491,-8.5062,-8.504,-8.5311,-8.4317,0.0,-8.4673,-8.4486,-8.451,-8.4757,-8.5083,-8.5211,-8.5169,-8.4734,-8.4486,-8.4254,0.0,0.0,0.0,0.0,0.0,0.0,0.0,0.0,0.0,0.0,0.0,0.0,0.0,0.0,0.0,0.0,0.0,0.0,0.0,0.0,0.0,0.0,0.0,0.0,0.0,0.0,0.0,0.0,0.0,0.0,0.0,0.0,0.0,0.0,0.0,0.0,0.0,0.0,0.0,0.0,0.0,0.0,0.0,0.0,0.0,0.0,0.0,-8.0208,-8.0263,-8.0382,-8.0145,-7.963,-7.8618,-7.8366,-7.8468,-7.8832,-7.8985,-7.921,-7.9966,-8.011,-8.0116,-8.0499,-8.0685,-8.0775,-8.0685,-8.0754,-8.0809,-8.0578,-8.0542,-8.0523,-8.0525,-8.0506,-8.0506,-8.0506,-8.0506,-8.0506,-8.0506,-8.0506,-8.0506,-8.0506,-8.0506,-8.0506,-8.0506,-8.0506,-8.0506,-8.0506,-8.0506,-8.0506,-8.0506,-8.1729,-8.299,-8.425,-8.5091,-8.5511,-8.5511,-8.5511,-8.5511,-8.5511,-8.5511,-8.5511,-8.5491,-8.5211,-8.5105,-8.5062,-8.4533,0.0,-8.4711,-8.4711,-8.487,-8.5148,-8.5393,-8.5511,-8.5451,-8.4892,-8.451,-8.4167,0.0,0.0,0.0,0.0,0.0,0.0,0.0,0.0,0.0,0.0,0.0,0.0,0.0,0.0,0.0,0.0,0.0,0.0,0.0,0.0,0.0,0.0,0.0,0.0,0.0,0.0,0.0,-7.6015,0.0,0.0,0.0,0.0,0.0,0.0,0.0,0.0,0.0,0.0,0.0,0.0,0.0,0.0,0.0,0.0,0.0,0.0,0.0,-8.0904,-8.0943,-8.1007,-8.1061,-8.0799,-7.9254,-7.8913,-7.9138,-7.9648,-7.9879,-8.0103,-8.0656,-8.0702,-8.065,-8.065,-8.072,-8.0792,-8.0667,-8.0702,-8.0741,-8.0543,-8.0506,-8.0506,-8.0506,-8.0506,-8.0506,-8.0506,-8.0506,-8.0506,-8.0506,-8.0506,-8.0506,-8.0506,-8.0506,-8.0506,-8.0506,-8.0506,0.0,-8.0506,0.0,0.0,-8.1041,-8.2455,-8.3677,-8.4518,-8.5167,-8.5511,-8.5511,-8.5511,-8.5511,-8.5511,-8.5511,-8.5511,-8.5511,-8.5373,-8.5148,-8.487,-8.4757,0.0,0.0,-8.487,-8.5126,-8.5511,-8.5511,-8.5511,-8.5413,-8.478,-8.4267,-8.3806,0.0,0.0,0.0,0.0,0.0,0.0,0.0,0.0,0.0,0.0,0.0,0.0,0.0,0.0,0.0,0.0,0.0,0.0,0.0,0.0,0.0,0.0,0.0,0.0,0.0,0.0,0.0,-7.6015,-7.6015,0.0,0.0,0.0,0.0,0.0,0.0,0.0,0.0,0.0,0.0,0.0,0.0,0.0,0.0,0.0,0.0,0.0,0.0,-8.0991,-8.0888,-8.0904,-8.0943,-8.0871,-8.0493,-8.0613,-8.0846,-8.0789,-8.0773,-8.0795,-8.0809,-8.0792,-8.0775,-8.0775,-8.0843,-8.0855,-8.0809,-8.0792,-8.0741,-8.0543,-8.0506,-8.0506,-8.0506,-8.0506,-8.0506,-8.0506,-8.0506,-8.0506,-8.0506,-8.0506,-8.0506,-8.0506,-8.0506,-8.0506,-8.0506,-8.0506,-8.0506,-8.0506,0.0,0.0,-8.2722,-8.3677,-8.4556,-8.5358,-8.5473,-8.5511,-8.5511,-8.5511,-8.5511,-8.5511,-8.5511,-8.5511,-8.5491,-8.5018,-8.498,-8.5393,-8.4914,0.0,0.0,-8.5451,-8.5471,-8.5511,-8.5511,-8.5511,-8.5373,-8.4341,-8.3937,-8.3752,0.0,0.0,0.0,0.0,0.0,0.0,0.0,0.0,0.0,0.0,0.0,0.0,0.0,0.0,0.0,0.0,0.0,0.0,0.0,0.0,0.0,0.0,0.0,0.0,0.0,0.0,-7.7476,-7.7476,-7.7476,0.0,0.0,0.0,0.0,0.0,0.0,0.0,0.0,0.0,0.0,0.0,0.0,0.0,0.0,0.0,0.0,0.0,0.0,0.0,-8.0888,-8.0888,-8.0855,-8.0826,-8.0758,-8.0809,-8.0893,-8.086,-8.0877,-8.0871,-8.0877,-8.0843,-8.0809,-8.086,-8.086,-8.0843,-8.0809,-8.0758,-8.0632,-8.0543,-8.0506,-8.0506,-8.0506,-8.0506,-8.0506,-8.0506,-8.0506,-8.0506,-8.0506,-8.0506,-8.0506,-8.0506,-8.0506,-8.0506,-8.0506,0.0,-8.0735,-8.1232,0.0,0.0,-8.3715,-8.4098,-8.4671,-8.5473,-8.5511,-8.5511,-8.5511,-8.5511,-8.5511,-8.5511,-8.5511,-8.5511,-8.5491,-8.5291,-8.5311,-8.5491,-8.5291,0.0,0.0,-8.5511,-8.5511,-8.5511,-8.5511,-8.5511,-8.5393,-8.4688,-8.439,-8.4267,0.0,0.0,0.0,0.0,0.0,0.0,0.0,0.0,0.0,0.0,0.0,0.0,0.0,0.0,0.0,0.0,0.0,0.0,0.0,0.0,0.0,0.0,0.0,0.0,0.0,0.0,-7.8477,-7.8477,-7.8477,-7.8477,0.0,0.0,0.0,0.0,0.0,0.0,0.0,0.0,0.0,0.0,0.0,0.0,0.0,0.0,0.0,0.0,0.0,0.0,0.0,0.0,0.0,-8.0775,-8.0723,-8.0758,-8.0792,-8.0792,-8.0843,-8.0893,-8.0893,-8.086,-8.0843,-8.0871,-8.0877,-8.0826,-8.0792,-8.0685,-8.0596,-8.0525,-8.0506,-8.0506,-8.0506,-8.0506,-8.0506,-8.0506,-8.0506,-8.0506,-8.0506,-8.0506,-8.0506,-8.0506,-8.0506,-8.0506,-8.0506,-8.0506,-8.085,0.0,0.0,0.0,0.0,-8.4518,-8.49,-8.5473,-8.5511,-8.5511,-8.5511,-8.5511,-8.5511,-8.5511,-8.5511,-8.5511,-8.5511,-8.5511,-8.5511,-8.5511,0.0,0.0,0.0,-8.5511,-8.5511,-8.5511,-8.5511,-8.5511,-8.5451,-8.4892,-8.4711,-8.4604,0.0,0.0,0.0,0.0,0.0,0.0,0.0,0.0,0.0,0.0,0.0,0.0,0.0,0.0,0.0,0.0,0.0,0.0,0.0,0.0,0.0,0.0,0.0,0.0,0.0,0.0,-7.8477,-7.8477,-7.8477,-7.8477,-7.8477,-7.8477,-7.8477,-7.8477,0.0,0.0,0.0,0.0,0.0,0.0,0.0,0.0,0.0,0.0,0.0,0.0,0.0,0.0,0.0,0.0,0.0,0.0,0.0,-8.0652,-8.0792,-8.0792,-8.0792,-8.0792,-8.0792,-8.086,-8.0888,-8.0888,-8.0888,-8.0855,-8.0809,-8.0685,-8.0596,-8.0525,-8.0506,-8.0506,-8.0506,-8.0506,-8.0506,-8.0506,-8.0506,-8.0506,-8.0506,-8.0506,-8.0506,-8.0506,-8.0506,-8.0506,-8.0506,-8.0506,-8.085,0.0,0.0,0.0,0.0,-8.5053,-8.5511,-8.5511,-8.5511,-8.5511,-8.5511,-8.5511,-8.5511,-8.5511,-8.5511,-8.5511,-8.5511,-8.5511,-8.5511,0.0,0.0,0.0,0.0,-8.5511,-8.5511,-8.5511,-8.5511,-8.5511,-8.5451,-8.4892,-8.4711,-8.4604,0.0,0.0,0.0,0.0,0.0,0.0,0.0,0.0,0.0,0.0,0.0,0.0,0.0,0.0,0.0,0.0,0.0,0.0,0.0,0.0,0.0,0.0,0.0,0.0,0.0,-8.0285,-8.0285,-8.0285,-8.0285,-8.0285,-8.0285,-8.0285,-8.0285,-8.0285,-8.0285,0.0,0.0,0.0,0.0,0.0,0.0,0.0,0.0,0.0,0.0,0.0,0.0,0.0,0.0,0.0,0.0,0.0,0.0,0.0,0.0,-8.0598,-8.0652,-8.0667,-8.0775,-8.0775,-8.072,-8.0826,-8.0754,-8.0702,-8.0667,-8.0578,-8.0543,-8.0506,-8.0506,-8.0506,-8.0506,-8.0506,-8.0506,-8.0506,-8.0506,-8.0506,-8.0506,-8.0506,-8.0506,-8.0506,-8.0506,-8.0506,0.0,0.0,0.0,0.0,0.0,0.0,0.0,-8.5358,-8.5511,-8.5511,-8.5511,-8.5511,-8.5511,-8.5511,-8.5511,-8.5511,-8.5511,-8.5511,-8.5511,-8.5511,0.0,0.0,0.0,0.0,0.0,-8.5511,-8.5511,-8.5511,-8.5511,-8.5511,-8.5491,-8.5311,-8.527,-8.5211,0.0,0.0,0.0,0.0,0.0,0.0,0.0,0.0,0.0,0.0,0.0,0.0,0.0,0.0,0.0,0.0,0.0,0.0,0.0,0.0,0.0,0.0,0.0,0.0,-8.1093,-8.1093,-8.1093,-8.1093,-8.1093,-8.1093,-8.1093,-8.1093,-8.1093,-8.1093,-8.1093,-8.1093,0.0,0.0,0.0,0.0,0.0,0.0,-8.1093,0.0,0.0,0.0,0.0,0.0,0.0,0.0,0.0,0.0,0.0,0.0,0.0,0.0,-8.0505,-8.0578,-8.0685,-8.0685,-8.0685,-8.0775,-8.0685,-8.0614,-8.0614,-8.0542,-8.0506,-8.0506,-8.0506,-8.0506,-8.0506,-8.0506,-8.0506,-8.0506,-8.0506,-8.0506,-8.0506,-8.0506,-8.0506,-8.0506,-8.0506,0.0,0.0,-8.1308,0.0,0.0,0.0,0.0,0.0,-8.5511,-8.5511,-8.5511,-8.5511,-8.5511,-8.5511,-8.5511,-8.5511,-8.5511,-8.5511,-8.5511,-8.5511,-8.5511,0.0,0.0,0.0,0.0,0.0,-8.5511,-8.5511,-8.5511,-8.5511,-8.5511,-8.5511,-8.5511,-8.5511,-8.5511,0.0,0.0,0.0,0.0,0.0,0.0,0.0,0.0,0.0,0.0,0.0,0.0,0.0,0.0,0.0,0.0,0.0,0.0,0.0,0.0,0.0,0.0,0.0,0.0,-8.1093,-8.1093,-8.1093,-8.1093,-8.1093,-8.1093,-8.1093,-8.1093,-8.1093,-8.1093,-8.1093,-8.1093,-8.1093,-8.1093,-8.1093,0.0,0.0,-8.1093,0.0,0.0,0.0,0.0,0.0,0.0,0.0,0.0,0.0,0.0,0.0,0.0,0.0,0.0,0.0,0.0,0.0,-8.0667,-8.0775,-8.0775,-8.0705,-8.0596,-8.0596,-8.0542,0.0,-8.0506,-8.0506,-8.0506,-8.0506,-8.0506,-8.0506,-8.0506,-8.0506,-8.0506,-8.0506,-8.0506,-8.0506,-8.0506,-8.0506,0.0,-8.0582,0.0,0.0,0.0,0.0,0.0,0.0,-8.5511,-8.5511,-8.5511,-8.5511,-8.5511,-8.5511,-8.5511,-8.5511,-8.5511,-8.5511,-8.5511,-8.5511,-8.5511,0.0,0.0,0.0,0.0,0.0,-8.5511,-8.5511,-8.5511,-8.5511,-8.5511,-8.5511,-8.5511,-8.5511,-8.5511,0.0,0.0,0.0,0.0,0.0,0.0,0.0,0.0,0.0,0.0,0.0,0.0,0.0,0.0,0.0,0.0,0.0,0.0,0.0,0.0,0.0,0.0,0.0,0.0,-8.1093,-8.1093,-8.1093,-8.1093,-8.1093,-8.1093,-8.1093,-8.1093,-8.1093,-8.1093,-8.1093,-8.1093,-8.1093,-8.1093,-8.1093,0.0,-8.1093,-8.1093,0.0,0.0,0.0,0.0,-8.0959,-8.0877,0.0,0.0,0.0,0.0,0.0,0.0,0.0,0.0,-8.0506,0.0,-8.0543,0.0,-8.058,-8.058,-8.0562,-8.0505,0.0,-8.0525,-8.0506,-8.0506,-8.0506,-8.0506,-8.0506,-8.0506,-8.0506,-8.0506,-8.0506,-8.0506,-8.0506,-8.0506,-8.0506,-8.0506,-8.0506,-8.0773,-8.1423,0.0,0.0,0.0,0.0,0.0,0.0,-8.5511,-8.5511,-8.5511,-8.5511,-8.5511,-8.5511,-8.5511,-8.5511,-8.5511,-8.5511,-8.5511,-8.5511,-8.5511,0.0,0.0,0.0,0.0,-8.5511,-8.5511,-8.5511,-8.5511,-8.5511,-8.5511,-8.5511,-8.5511,-8.5511,-8.5511,0.0,0.0,0.0,0.0,0.0,0.0,0.0,0.0,0.0,0.0,0.0,0.0,0.0,0.0,0.0,0.0,0.0,0.0,0.0,0.0,0.0,0.0,0.0,-8.1093,-8.1093,-8.1093,-8.1093,-8.1093,-8.1093,-8.1093,-8.1093,-8.1093,-8.1093,-8.1093,-8.1093,-8.1093,-8.1093,-8.1093,-8.1093,-8.1093,-8.1093,0.0,0.0,0.0,0.0,0.0,-8.0805,-8.0737,0.0,-8.0632,-8.056,-8.0525,0.0,0.0,0.0,0.0,-8.0506,0.0,-8.0506,-8.0506,-8.0506,-8.0506,-8.0506,-8.0506,-8.0506,-8.0506,-8.0506,-8.0506,-8.0506,-8.0506,-8.0506,-8.0506,-8.0506,-8.0506,-8.0506,-8.0506,-8.0506,-8.0506,-8.0506,-8.0506,-8.085,-8.127,0.0,0.0,0.0,0.0,0.0,0.0,0.0,-8.5511,-8.5511,-8.5511,-8.5511,-8.5511,-8.5511,-8.5511,-8.5511,-8.5511,-8.5511,-8.5511,-8.5511,-8.5511,-8.5511,0.0,0.0,0.0,-8.5511,-8.5511,-8.5511,-8.5511,-8.5511,-8.5511,-8.5511,-8.5511,-8.5511,-8.5511,0.0,0.0,0.0,0.0,0.0,0.0,0.0,0.0,0.0,0.0,0.0,0.0,0.0,0.0,0.0,0.0,0.0,0.0,0.0,0.0,0.0,0.0,-8.1093,-8.1093,-8.1093,-8.1093,-8.1093,-8.1093,-8.1093,-8.1093,-8.1093,-8.1093,-8.1093,-8.1093,-8.1093,-8.1093,-8.1093,-8.1093,-8.1093,-8.1093,-8.1093,0.0,0.0,0.0,0.0,0.0,0.0,0.0,0.0,-8.0596,-8.0542,-8.0525,-8.056,0.0,0.0,0.0,0.0,0.0,-8.0506,-8.0506,-8.0506,-8.0506,-8.0506,-8.0506,-8.0506,-8.0506,-8.0506,-8.0506,-8.0506,-8.0506,-8.0506,-8.0506,-8.0506,-8.0506,-8.0506,-8.0506,-8.0506,-8.0506,-8.0544,-8.0697,-8.1347,0.0,0.0,0.0,0.0,0.0,0.0,0.0,0.0,-8.5511,-8.5511,-8.5511,-8.5511,-8.5511,-8.5511,-8.5511,-8.5511,-8.5511,-8.5511,-8.5511,-8.5511,-8.5511,-8.5511,0.0,0.0,0.0,-8.5511,-8.5511,-8.5511,-8.5511,-8.5511,-8.5511,-8.5511,-8.5511,-8.5511,-8.5511,0.0,0.0,0.0,0.0,0.0,0.0,0.0,0.0,0.0,0.0,0.0,0.0,0.0,0.0,0.0,0.0,0.0,0.0,0.0,0.0,0.0,-8.1093,-8.1093,-8.1093,-8.1093,-8.1093,-8.1093,-8.1093,-8.1093,-8.1093,-8.1093,-8.1093,-8.1093,-8.1093,-8.1093,-8.1093,-8.1093,-8.1093,-8.1093,-8.1093,-8.1093,0.0,0.0,0.0,0.0,0.0,0.0,0.0,0.0,-8.0523,-8.0525,-8.0506,-8.0525,0.0,0.0,0.0,0.0,0.0,-8.0506,-8.0506,-8.0506,-8.0506,-8.0506,-8.0506,-8.0506,-8.0506,-8.0506,-8.0506,-8.0506,-8.0506,-8.0506,-8.0506,-8.0506,-8.0506,-8.0506,-8.0506,0.0,0.0,-8.0773,-8.1499,0.0,0.0,0.0,0.0,0.0,0.0,0.0,0.0,0.0,-8.5511,-8.5511,-8.5511,-8.5511,-8.5511,-8.5511,-8.5511,-8.5511,-8.5511,-8.5511,-8.5511,-8.5511,-8.5511,-8.5511,0.0,0.0,-8.5511,-8.5511,-8.5511,-8.5511,-8.5511,-8.5511,-8.5511,-8.5511,-8.5511,-8.5511,-8.5511,0.0,0.0,0.0,0.0,0.0,0.0,0.0,0.0,0.0,0.0,0.0,0.0,0.0,0.0,0.0,0.0,0.0,0.0,0.0,0.0,-8.1093,-8.1093,-8.1093,-8.1093,-8.1093,-8.1093,-8.1093,-8.1093,-8.1093,-8.1093,-8.1093,-8.1093,-8.1093,-8.1093,-8.1093,-8.1093,-8.1093,-8.1093,-8.1061,-8.0991,0.0,0.0,0.0,0.0,0.0,0.0,0.0,0.0,0.0,0.0,-8.0506,-8.0506,-8.0506,0.0,0.0,0.0,0.0,0.0,-8.0506,-8.0506,-8.0506,-8.0506,-8.0506,-8.0506,-8.0506,-8.0506,-8.0506,-8.0506,-8.0506,-8.0506,-8.0506,-8.0506,-8.0506,-8.0506,-8.0506,-8.0506,-8.0506,-8.0506,-8.0812,0.0,0.0,0.0,0.0,0.0,0.0,0.0,0.0,0.0,0.0,0.0,-8.5511,-8.5511,-8.5511,-8.5511,-8.5511,-8.5511,-8.5511,-8.5511,-8.5511,-8.5511,-8.5511,-8.5511,-8.5511,-8.5511,0.0,-8.5511,-8.5511,-8.5511,-8.5511,-8.5511,-8.5511,-8.5511,-8.5511,-8.5511,-8.5511,-8.5511,0.0,0.0,0.0,0.0,0.0,0.0,0.0,0.0,0.0,0.0,0.0,0.0,0.0,0.0,0.0,0.0,0.0,0.0,0.0,-8.1093,-8.1093,-8.1093,-8.1093,-8.1093,-8.1093,-8.1093,-8.1093,-8.1093,-8.1093,-8.1077,-8.1061,-8.1061,-8.1061,-8.1061,-8.1045,-8.1045,-8.1061,-8.1045,-8.0959,-8.0893,0.0,0.0,0.0,0.0,0.0,0.0,0.0,0.0,0.0,0.0,0.0,0.0,0.0,0.0,0.0,0.0,-8.0506,-8.0506,-8.0506,-8.0506,-8.0544,-8.0735,-8.0659,-8.0506,-8.0506,-8.0506,-8.0506,-8.0506,-8.0506,-8.0544,-8.0773,-8.0812,-8.0735,-8.0544,-8.0506,-8.0582,-8.0773,-8.0812,-8.1194,0.0,0.0,0.0,0.0,0.0,0.0,0.0,0.0,0.0,0.0,0.0,-8.5511,-8.5511,-8.5511,-8.5511,-8.5511,-8.5511,-8.5511,-8.5511,-8.5511,-8.5511,-8.5511,-8.5511,-8.5511,-8.5511,-8.5511,-8.5511,-8.5511,-8.5511,-8.5511,-8.5511,-8.5511,-8.5511,-8.5511,-8.5511,-8.5511,-8.555,0.0,0.0,0.0,0.0,0.0,0.0,0.0,0.0,0.0,0.0,0.0,0.0,0.0,0.0,0.0,0.0,0.0,0.0,0.0,-8.1093,-8.1093,-8.1093,-8.1093,-8.1093,-8.1093,-8.1093,-8.1093,-8.1093,-8.1093,-8.1045,-8.0904,-8.0904,-8.0904,-8.0888,-8.0843,-8.086,-8.0888,-8.0843,-8.0809,-8.0809,-8.0809,0.0,0.0,0.0,0.0,0.0,0.0,0.0,0.0,0.0,0.0,0.0,0.0,0.0,0.0,0.0,-8.0506,-8.0506,-8.0506,-8.0506,-8.0697,-8.1499,-8.1117,-8.0506,-8.0506,-8.0506,-8.0506,-8.0506,-8.0506,-8.0735,-8.1576,-8.1729,-8.1423,-8.0621,-8.0506,-8.0773,-8.1576,0.0,0.0,0.0,0.0,0.0,0.0,0.0,0.0,0.0,0.0,0.0,0.0,0.0,0.0,-8.5511,-8.5511,-8.5511,-8.5511,-8.5511,-8.5511,-8.5511,-8.5511,-8.5511,-8.5511,-8.5511,-8.5511,-8.5511,-8.5511,-8.5511,-8.5511,-8.5511,-8.5511,-8.5511,-8.5511,-8.5511,-8.5511,-8.5511,-8.5511,-8.5626,0.0,0.0,0.0,0.0,0.0,0.0,0.0,0.0,0.0,0.0,0.0,0.0,0.0,0.0,0.0,0.0,0.0,0.0,0.0,-8.1093,-8.1093,-8.1093,-8.1093,-8.1061,-8.0975,-8.1061,-8.1061,-8.0975,-8.0926,-8.0877,-8.0843,-8.0855,-8.0893,-8.0843,-8.086,-8.086,-8.0843,-8.0809,-8.0758,-8.0667,-8.0667,-8.0632,0.0,0.0,0.0,0.0,0.0,0.0,0.0,0.0,0.0,0.0,0.0,0.0,0.0,0.0,-8.0506,-8.0506,-8.0506,-8.0506,-8.0697,-8.1576,-8.1538,-8.1308,-8.1308,-8.1308,-8.1308,-8.1308,-8.0888,-8.0773,-8.1652,-8.1805,-8.1843,-8.2034,-8.2034,-8.2149,-8.2493,0.0,0.0,0.0,0.0,0.0,0.0,0.0,0.0,0.0,0.0,0.0,0.0,0.0,0.0,-8.5511,-8.5511,-8.5511,-8.5511,-8.5511,-8.5511,-8.5511,-8.5511,-8.5511,-8.5511,-8.5511,-8.5511,-8.5511,-8.5511,-8.5511,-8.5511,-8.5511,-8.5511,-8.5511,-8.5511,-8.5855,-8.6314,-8.6314,-8.6658,-8.7154,0.0,0.0,0.0,0.0,0.0,0.0,0.0,0.0,0.0,0.0,0.0,0.0,0.0,0.0,0.0,0.0,0.0,0.0,-8.1131,-8.1093,-8.1077,-8.1061,-8.1045,-8.0975,-8.0893,-8.0943,-8.0943,-8.0877,-8.086,-8.0826,-8.0792,-8.086,-8.086,-8.0792,-8.0792,-8.0737,-8.0741,-8.0723,-8.067,-8.0578,-8.0578,-8.0523,0.0,0.0,0.0,0.0,0.0,0.0,0.0,0.0,0.0,0.0,0.0,0.0,0.0,0.0,0.0,-8.0926,-8.0926,-8.1079,-8.1499,-8.2378,-8.2607,-8.2607,-8.2607,-8.2378,-8.2187,-8.2187,-8.192,-8.1805,-8.2111,-8.2416,-8.2684,0.0,-8.299,-8.3104,0.0,0.0,0.0,0.0,0.0,0.0,0.0,0.0,0.0,0.0,0.0,0.0,0.0,0.0,0.0,0.0,-8.5511,-8.5511,-8.5511,-8.5511,-8.5511,-8.5511,-8.5511,-8.5511,-8.5511,-8.5511,-8.5511,-8.5511,-8.5511,-8.5511,-8.5511,-8.5511,-8.5664,-8.5932,-8.5932,-8.6428,-8.7231,-8.7231,-8.7575,-8.8148,0.0,0.0,0.0,0.0,0.0,0.0,0.0,0.0,0.0,0.0,0.0,0.0,0.0,0.0,0.0,0.0,0.0,0.0,-8.117,-8.1131,-8.1045,-8.0926,-8.0888,-8.0877,-8.0792,-8.0792,-8.0792,-8.0792,-8.0877,-8.0877,-8.0792,-8.0792,-8.0792,-8.0775,-8.0598,-8.0523,-8.0614,-8.0505,-8.0506,-8.0506,-8.0506,-8.0506,-8.0506,0.0,0.0,0.0,0.0,0.0,0.0,0.0,0.0,0.0,0.0,0.0,0.0,0.0,-8.1117,-8.1805,-8.1805,-8.2378,-8.3219,-8.4059,-8.4289,-8.4289,-8.4289,-8.3639,-8.299,-8.299,-8.3677,-8.4021,-8.3181,-8.3715,-8.4021,-8.3142,-8.3028,-8.3333,0.0,0.0,0.0,0.0,0.0,0.0,0.0,0.0,0.0,0.0,0.0,0.0,0.0,0.0,0.0,0.0,-8.5511,-8.5511,-8.5511,-8.5511,-8.5511,-8.5511,-8.5511,-8.5511,-8.5511,-8.5511,-8.5511,-8.5511,-8.5511,-8.5511,-8.5511,-8.5511,-8.6008,-8.679,-8.681,-8.7345,-8.811,-8.811,-8.811,-8.8224,0.0,0.0,0.0,0.0,0.0,0.0,0.0,0.0,0.0,0.0,0.0,0.0,0.0,0.0,0.0,0.0,0.0,0.0,-8.1798,-8.1743,-8.1474,-8.0865,-8.0826,-8.0826,-8.0792,-8.0685,-8.065,-8.065,-8.0614,-8.0616,-8.0598,-8.0632,-8.0614,-8.0598,-8.056,-8.056,-8.0505,-8.0525,-8.0506,-8.0506,-8.0506,-8.0506,-8.0506,0.0,0.0,0.0,0.0,0.0,0.0,0.0,0.0,0.0,0.0,0.0,0.0,-8.1232,-8.1614,-8.192,-8.2493,-8.2798,-8.3219,-8.4059,-8.4289,-8.4441,-8.5015,-8.4518,-8.3715,-8.3104,-8.3677,-8.4212,-8.3945,-8.4136,-8.4403,-8.4709,-8.4747,0.0,0.0,0.0,0.0,0.0,0.0,0.0,0.0,0.0,0.0,0.0,0.0,0.0,0.0,0.0,0.0,0.0,-8.5511,-8.5511,-8.5511,-8.5511,-8.5511,-8.5511,-8.5511,-8.5511,-8.5511,-8.5511,-8.5511,-8.5511,-8.5511,-8.5511,-8.555,-8.6161,-8.6581,-8.6887,-8.746,-8.8224,-8.895,-8.895,-8.9332,-8.9905,0.0,0.0,0.0,0.0,0.0,0.0,0.0,0.0,0.0,0.0,-8.4061,-8.416,0.0,0.0,0.0,0.0,0.0,0.0,0.0,-8.2553,-8.2152,-8.1277,-8.1274,-8.1103,-8.0688,-8.0596,-8.056,-8.056,-8.0542,-8.0523,-8.0523,-8.0596,-8.0578,-8.0523,-8.0542,-8.0523,-8.0506,-8.0506,-8.0506,-8.0506,-8.0506,-8.0506,-8.0506,0.0,0.0,0.0,0.0,0.0,0.0,0.0,0.0,0.0,-8.0926,-8.1003,-8.1194,-8.2034,-8.2531,-8.2913,-8.3372,-8.3754,-8.4136,-8.4632,-8.4785,-8.49,-8.5397,-8.5129,-8.4632,-8.4098,-8.4403,-8.4785,-8.4785,-8.4785,0.0,-8.5435,-8.5511,0.0,0.0,0.0,0.0,0.0,0.0,0.0,0.0,0.0,0.0,0.0,0.0,0.0,0.0,0.0,0.0,0.0,-8.5511,-8.5511,-8.5511,-8.5511,-8.5511,-8.5511,-8.5511,-8.5511,-8.5511,-8.5511,-8.5511,-8.5511,-8.5893,-8.6008,-8.6084,-8.6963,-8.7498,-8.7842,-8.8377,-8.9065,-8.9829,-8.9829,-9.0173,-9.0593,0.0,0.0,0.0,0.0,0.0,0.0,0.0,0.0,0.0,0.0,-8.4878,-8.5096,0.0,0.0,0.0,0.0,0.0,0.0,0.0,-8.347,-8.3051,-8.205,-8.212,-8.1701,-8.0621,-8.0639,-8.0601,-8.0506,-8.056,-8.0596,-8.0596,-8.0596,-8.0596,-8.0596,-8.0543,-8.0506,-8.0506,-8.0506,-8.0506,-8.0506,-8.0506,-8.0544,-8.0621,-8.0621,0.0,0.0,0.0,0.0,0.0,0.0,0.0,0.0,-8.1652,-8.192,-8.2073,-8.2875,-8.3677,-8.4327,-8.4403,-8.4938,-8.5511,-8.5511,-8.5511,-8.5511,-8.5511,-8.5511,-8.5511,-8.5511,-8.5511,-8.5511,-8.5511,-8.5511,-8.5511,-8.5511,0.0,0.0,0.0,0.0,0.0,0.0,0.0,0.0,0.0,0.0,0.0,0.0,0.0,0.0,0.0,0.0,0.0,-8.5511,-8.5511,-8.5511,-8.5511,-8.5511,-8.5511,0.0,-8.5511,-8.5511,-8.5511,-8.5511,-8.555,-8.5664,-8.6467,-8.6849,-8.7001,-8.7842,-8.8644,-8.9332,-8.9409,-8.9905,-9.0593,-9.0593,-9.0593,-9.0593,0.0,0.0,0.0,0.0,0.0,0.0,0.0,0.0,0.0,0.0,0.0,0.0,0.0,0.0,0.0,0.0,0.0,0.0,0.0,-8.4173,-8.3753,-8.2798,-8.2892,-8.2509,-8.1538,-8.1574,-8.123,-8.0506,-8.0525,-8.0505,-8.0505,-8.0505,-8.0505,-8.0505,-8.0525,-8.0506,-8.0506,-8.0506,-8.0506,-8.0506,-8.0506,-8.0926,-8.1538,-8.1538,-8.192,0.0,0.0,0.0,0.0,0.0,0.0,0.0,-8.2684,-8.2722,-8.2913,-8.3754,-8.4136,-8.4441,-8.5053,-8.5358,-8.5511,-8.5511,-8.5511,-8.5511,-8.5511,-8.5511,-8.5511,-8.5511,-8.5511,-8.5511,-8.5511,-8.5511,-8.5511,0.0,0.0,0.0,0.0,0.0,0.0,0.0,0.0,0.0,0.0,0.0,0.0,0.0,0.0,0.0,0.0,0.0,0.0,-8.5511,-8.5511,-8.5511,-8.5511,-8.5511,-8.5511,0.0,-8.5511,-8.5511,-8.5511,-8.5511,-8.5893,-8.6543,-8.6734,-8.7192,-8.788,-8.8683,-8.9141,-8.937,-9.0058,-9.044,-9.0593,-9.0593,-9.0593,-9.0593,0.0,0.0,0.0,0.0,0.0,0.0,0.0,0.0,0.0,0.0,0.0,0.0,0.0,0.0,0.0,0.0,0.0,0.0,0.0,0.0,-8.4614,-8.3716,-8.3295,-8.2894,-8.2378,-8.2397,-8.2014,-8.1117,-8.1117,-8.0926,-8.0506,-8.0506,-8.0506,-8.0506,-8.0506,-8.0506,-8.0506,-8.0506,-8.0735,-8.1117,-8.1117,-8.1614,-8.2378,-8.2378,-8.2607,-8.299,-8.299,0.0,0.0,0.0,0.0,0.0,0.0,0.0,-8.3792,-8.4632,-8.4862,-8.4976,-8.5397,-8.5511,-8.5511,-8.5511,-8.5511,-8.5511,-8.5511,-8.5511,-8.5511,-8.5511,-8.5511,-8.5511,-8.5511,-8.5511,-8.5511,0.0,0.0,0.0,0.0,0.0,0.0,0.0,0.0,0.0,0.0,0.0,0.0,0.0,0.0,0.0,0.0,-8.5511,-8.5511,-8.5511,-8.5511,-8.5511,-8.5511,-8.5511,-8.5511,-8.5511,-8.5511,-8.5741,-8.6123,-8.6123,-8.6619,-8.746,-8.7842,-8.8262,-8.8721,-8.96,-8.9944,-8.9982,-9.044,-9.0593,-9.0593,-9.0593,-9.0593,-9.0593,0.0,0.0,0.0,0.0,0.0,0.0,0.0,0.0,0.0,0.0,0.0,0.0,0.0,0.0,0.0,0.0,0.0,0.0,0.0,0.0,0.0,-8.4595,-8.3831,-8.3372,-8.3219,-8.3219,-8.2798,-8.1996,-8.1996,-8.1652,-8.0926,-8.0621,-8.0506,-8.0506,-8.0506,-8.0582,-8.0735,-8.0735,-8.1232,-8.1996,-8.1996,-8.2493,-8.3219,-8.3219,-8.3295,-8.341,-8.341,-8.341,-8.341,-8.341,0.0,0.0,0.0,0.0,-8.4632,-8.532,-8.5511,-8.5511,-8.5511,-8.5511,-8.5511,-8.5511,-8.5511,-8.5511,-8.5511,-8.5511,-8.5511,-8.5511,-8.5511,-8.5511,-8.5511,-8.5511,0.0,0.0,0.0,0.0,0.0,0.0,0.0,0.0,0.0,0.0,0.0,0.0,0.0,0.0,0.0,0.0,-8.5511,-8.5511,-8.5511,-8.5511,-8.5511,-8.5511,-8.5511,-8.5511,-8.5511,-8.5511,-8.5664,-8.6275,-8.7231,-8.7231,-8.7651,-8.8339,-8.9027,-8.9409,-8.96,-9.0326,-9.0593,-9.0593,-9.0593,-9.0593,-9.0593,-9.0593,-9.0593,-9.0593,0.0,0.0,0.0,0.0,0.0,0.0,0.0,0.0,0.0,0.0,-8.5531,-8.5531,0.0,0.0,0.0,0.0,0.0,0.0,0.0,0.0,0.0,-8.5378,-8.5244,-8.4824,-8.4136,-8.4136,-8.3677,-8.2837,-8.2837,-8.276,-8.2607,-8.1194,-8.0506,-8.0506,-8.0506,-8.0926,-8.1614,-8.1614,-8.2111,-8.2837,-8.2837,-8.3372,-8.4136,-8.4136,-8.4556,-8.5167,-8.5167,-8.5167,-8.5167,-8.5167,-8.5167,0.0,0.0,0.0,-8.5358,-8.5473,-8.5511,-8.5511,-8.5511,-8.5511,-8.5511,-8.5511,-8.5511,-8.5511,-8.5511,-8.5511,-8.5511,-8.5511,-8.5511,-8.5511,-8.5511,0.0,0.0,0.0,0.0,0.0,0.0,0.0,0.0,0.0,0.0,0.0,0.0,0.0,0.0,0.0,0.0,0.0,-8.5511,-8.5511,-8.5511,-8.5511,-8.5511,-8.5511,-8.5511,-8.5511,-8.5511,-8.5511,-8.6275,-8.746,-8.8988,-8.8988,-8.9027,-8.9141,-8.9256,-8.9752,-9.044,-9.0555,-9.0593,-9.0593,-9.0593,-9.0593,-9.0593,-9.0593,-9.0593,-9.0593,0.0,0.0,0.0,0.0,0.0,0.0,0.0,0.0,0.0,0.0,0.0,-8.5511,0.0,0.0,0.0,0.0,0.0,0.0,0.0,0.0,0.0,-8.5511,-8.5511,-8.532,-8.4976,-8.4976,-8.4556,-8.3715,-8.3715,-8.3486,-8.299,-8.2225,-8.1881,-8.1881,-8.1881,-8.2111,-8.2455,-8.2455,-8.2951,-8.3715,-8.3715,-8.4212,-8.4976,-8.4976,-8.5206,-8.5511,-8.5511,-8.5511,-8.5511,-8.5511,-8.5511,-8.5511,-8.5511,0.0,0.0,0.0,-8.5511,-8.5511,-8.5511,-8.5511,-8.5511,-8.5511,-8.5511,-8.5511,-8.5511,-8.5511,-8.5511,-8.5511,-8.5511,-8.5511,0.0,0.0,0.0,0.0,0.0,0.0,0.0,0.0,0.0,0.0,0.0,0.0,0.0,0.0,0.0,0.0,0.0,-8.5511,-8.5511,-8.5511,-8.5511,-8.5511,-8.5511,-8.5511,-8.5511,-8.5511,-8.5741,-8.6237,-8.7116,-8.8148,-8.9332,-8.9829,-9.002,-9.002,-9.002,-9.0249,-9.0593,-9.0593,-9.0593,-9.0593,-9.0593,-9.0593,-9.0593,-9.0593,-9.0593,-9.0593,0.0,0.0,0.0,0.0,0.0,0.0,0.0,0.0,0.0,0.0,0.0,0.0,0.0,0.0,0.0,0.0,0.0,0.0,0.0,0.0,0.0,0.0,0.0,-8.5511,-8.5511,-8.5511,-8.5206,-8.4594,-8.4594,-8.425,-8.3639,-8.3639,-8.3639,-8.3601,-8.3181,-8.3104,-8.3333,-8.3333,-8.383,-8.4594,-8.4594,-8.4976,-8.5511,-8.5511,-8.5511,-8.5511,-8.5511,-8.5511,-8.5511,-8.5511,-8.5511,-8.5511,-8.5511,-8.5511,0.0,0.0,0.0,-8.5511,-8.5511,-8.5511,-8.5511,-8.5511,-8.5511,-8.5511,-8.5511,-8.5511,-8.5511,0.0,-8.5511,-8.5511,0.0,0.0,0.0,0.0,0.0,0.0,0.0,0.0,0.0,0.0,0.0,0.0,0.0,0.0,0.0,0.0,0.0,-8.5511,-8.5511,-8.5511,-8.5511,-8.5511,-8.5511,-8.5511,-8.5511,-8.5741,-8.6275,-8.7154,-8.7995,-8.8835,-8.9638,-9.0326,-9.0593,-9.0593,-9.0593,-9.0593,-9.0593,-9.0593,-9.0593,-9.0593,-9.0593,-9.0593,-9.0593,-9.0593,-9.0593,-9.0593,0.0,0.0,0.0,0.0,0.0,0.0,0.0,0.0,0.0,0.0,0.0,0.0,-8.5511,-8.5511,-8.5511,-8.5511,0.0,0.0,0.0,0.0,0.0,0.0,0.0,0.0,-8.5511,-8.5511,-8.5473,-8.5435,-8.5435,-8.5397,-8.5358,-8.5358,-8.5358,-8.532,-8.3715,-8.3448,-8.4212,-8.4212,-8.4709,-8.5435,-8.5435,-8.5473,-8.5511,-8.5511,-8.5511,-8.5511,-8.5511,-8.5511,-8.5511,-8.5511,-8.5511,-8.5511,-8.5511,-8.5511,-8.5511,0.0,0.0,0.0,-8.5511,-8.5511,-8.5511,-8.5511,-8.5511,-8.5511,-8.5511,-8.5511,-8.5511,-8.5511,-8.5511,0.0,0.0,0.0,0.0,0.0,0.0,0.0,0.0,0.0,0.0,0.0,0.0,0.0,0.0,0.0,0.0,0.0,0.0,-8.5511,-8.5511,-8.5511,-8.5511,-8.5511,-8.5511,-8.5511,-8.5511,-8.6314,-8.7192,-8.8033,-8.8835,-8.9676,-9.0555,-9.0593,-9.0593,-9.0593,-9.0593,-9.0593,-9.0593,-9.0593,-9.0593,-9.0593,-9.0593,-9.0593,-9.0593,-9.0593,-9.0593,-9.0593,0.0,0.0,0.0,0.0,0.0,0.0,0.0,0.0,0.0,0.0,0.0,0.0,0.0,-8.5511,-8.5511,-8.5511,-8.5511,0.0,0.0,0.0,0.0,0.0,0.0,0.0,-8.5511,-8.5511,-8.5511,-8.5511,-8.5511,-8.5511,-8.5511,-8.5511,-8.5511,-8.5473,-8.4862,-8.4785,-8.5053,-8.5053,-8.5244,-8.5511,-8.5511,-8.5511,-8.5511,-8.5511,-8.5511,-8.5511,-8.5511,-8.5511,-8.5511,-8.5511,-8.5511,-8.5511,-8.5511,-8.5511,-8.5511,-8.5511,-8.5511,-8.5511,-8.5511,-8.5511,-8.5511,-8.5511,-8.5511,-8.5511,-8.5511,-8.5511,-8.5511,-8.5511,-8.5511,0.0,0.0,0.0,0.0,0.0,0.0,0.0,0.0,0.0,0.0,0.0,0.0,0.0,0.0,0.0,0.0,0.0,0.0,0.0,-8.5511,-8.5511,-8.5511,-8.5511,-8.5511,-8.5779,-8.6352,-8.6658,-8.7498,-8.8874,-8.9179,-8.9752,-9.0593,-9.0593,-9.0593,-9.0593,-9.0593,-9.0593,-9.0593,-9.0593,-9.0593,-9.0593,-9.0593,-9.0593,-9.0593,-9.0593,-9.0593,-9.0593,0.0,0.0,0.0,0.0,0.0,0.0,0.0,0.0,0.0,-8.5511,0.0,0.0,0.0,0.0,-8.5511,-8.5511,-8.5511,-8.5511,-8.5511,0.0,0.0,0.0,0.0,0.0,-8.5511,-8.5244,-8.5244,-8.5511,-8.5244,-8.5244,-8.5511,-8.5511,-8.5511,-8.5511,-8.5511,-8.5511,-8.5511,-8.5511,-8.5511,-8.5511,-8.5511,-8.5511,-8.5511,-8.5511,-8.5511,-8.5491,-8.5311,-8.5211,-8.5211,-8.5211,-8.5211,-8.527,-8.5413,-8.5511,-8.5511,-8.5511,-8.5511,-8.5511,-8.5511,-8.5511,-8.5511,-8.5511,-8.5511,-8.5511,-8.5511,-8.5511,-8.5511,-8.5511,0.0,0.0,0.0,0.0,0.0,0.0,0.0,0.0,0.0,0.0,0.0,0.0,0.0,0.0,0.0,0.0,0.0,0.0,0.0,0.0,-8.5511,-8.5511,-8.5511,-8.5511,-8.5511,-8.5932,-8.679,-8.7078,-8.7918,-8.9294,-8.96,-9.0058,-9.0593,-9.0593,-9.0593,-9.0593,-9.0593,-9.0593,-9.0593,-9.0593,-9.0593,-9.0593,-9.0593,-9.0593,-9.0593,-9.0593,-9.0593,-9.0593,0.0,0.0,0.0,0.0,0.0,0.0,0.0,0.0,-8.5511,-8.5511,0.0,0.0,0.0,0.0,0.0,-8.5511,-8.5511,-8.5511,-8.5511,-8.5511,0.0,0.0,0.0,0.0,-8.5511,-8.4747,-8.4709,-8.5511,-8.4709,-8.4747,-8.5491,-8.5491,-8.5491,-8.5491,-8.5491,-8.5491,-8.5491,-8.5491,-8.5491,-8.5491,-8.5491,-8.5471,-8.5433,-8.5491,-8.5491,-8.5393,-8.4892,-8.4734,-8.4734,-8.4734,-8.4734,-8.4825,-8.5332,-8.5471,-8.5471,-8.5491,-8.5491,-8.5491,0.0,0.0,0.0,-8.5511,-8.5511,-8.5511,-8.5511,0.0,-8.5511,-8.5511,0.0,0.0,0.0,0.0,0.0,0.0,0.0,0.0,0.0,0.0,0.0,0.0,0.0,0.0,0.0,0.0,0.0,0.0,0.0,-8.5511,-8.5511,-8.5511,-8.5511,-8.5511,-8.5511,-8.5932,-8.6849,-8.7689,-8.853,-8.937,-9.0211,-9.0593,-9.0593,-9.0593,-9.0593,-9.0593,-9.0572,-9.0572,-9.0593,-9.0593,-9.0593,-9.0593,-9.0593,-9.0593,-9.0593,-9.0593,-9.0593,-9.0593,0.0,0.0,0.0,0.0,0.0,0.0,0.0,0.0,-8.5511,0.0,0.0,0.0,-8.5511,-8.5511,-8.5511,-8.5511,-8.5511,-8.5511,-8.5511,-8.5511,-8.5511,0.0,0.0,-8.5511,-8.5511,-8.5282,-8.5282,-8.5511,-8.5282,-8.5082,-8.4914,-8.5332,-8.5311,-8.4937,-8.5332,-8.5291,-8.4914,-8.4914,-8.4914,-8.4914,-8.4914,-8.4711,-8.439,-8.478,-8.4914,-8.4892,-8.4757,-8.4937,-8.5291,-8.5291,-8.5291,-8.5249,-8.5018,-8.4665,-8.4414,-8.4803,-8.4914,-8.5018,-8.5393,0.0,0.0,0.0,0.0,0.0,0.0,0.0,0.0,0.0,0.0,0.0,0.0,0.0,0.0,0.0,0.0,0.0,0.0,0.0,0.0,0.0,0.0,0.0,0.0,0.0,0.0,0.0,-8.5511,-8.5511,-8.5511,-8.5511,-8.5511,-8.5511,-8.5511,-8.6237,-8.7727,-8.7957,-8.8835,-9.0249,-9.0478,-9.0593,-9.0593,-9.0593,-9.0593,-9.0572,-9.0144,-9.019,-9.0593,-9.0593,-9.0593,-9.0593,-9.0593,-9.0593,-9.0593,-9.0593,-9.0593,-9.0593,0.0,0.0,0.0,0.0,0.0,0.0,0.0,0.0,-8.5511,0.0,0.0,0.0,-8.5511,-8.5511,-8.5511,-8.5511,-8.5511,-8.5511,-8.5511,-8.5511,-8.5511,-8.5511,0.0,-8.5511,-8.5511,-8.4909,-8.4909,-8.5511,-8.4909,-8.4746,-8.5062,-8.5352,-8.519,-8.4734,-8.504,-8.487,-8.4341,-8.4079,-8.4292,-8.4688,-8.4462,-8.4438,-8.4557,-8.4688,-8.4711,-8.4688,-8.4438,-8.4414,-8.4448,-8.4448,-8.4627,-8.478,-8.4462,-8.4142,-8.3963,-8.4267,-8.4365,-8.4438,-8.4757,-8.4825,-8.4825,-8.4825,0.0,0.0,-8.5169,-8.5332,0.0,0.0,0.0,0.0,0.0,0.0,0.0,0.0,0.0,0.0,0.0,0.0,0.0,0.0,0.0,0.0,0.0,0.0,0.0,-8.5511,-8.5511,-8.5511,-8.5511,-8.5511,-8.5511,-8.5511,-8.5855,-8.6696,-8.8071,-8.8415,-8.9256,-9.0593,-9.0593,-9.0593,-9.0593,-9.0593,-9.0593,-9.0551,-8.9968,-9.0037,-9.0572,-9.034,-9.0383,-9.0593,-9.0593,-9.0593,-9.0593,-9.0593,-9.0593,-9.0593,0.0,0.0,0.0,0.0,0.0,0.0,0.0,0.0,0.0,0.0,-8.5511,-8.5511,-8.5511,-8.5511,-8.5511,-8.5511,-8.5511,-8.5491,-8.5431,-8.5393,-8.5373,0.0,0.0,0.0,-8.5393,-8.422,-8.4242,-8.5511,-8.4176,-8.4155,-8.5332,-8.5332,-8.5083,-8.4604,-8.4604,-8.4341,-8.3859,-8.3255,-8.3607,-8.4557,-8.4092,-8.4462,-8.5291,-8.4803,-8.4604,-8.4533,-8.4015,-8.3508,-8.3082,-8.3082,-8.3424,-8.3806,-8.3885,-8.3806,-8.3726,-8.3859,-8.3859,-8.3806,-8.3885,-8.3911,-8.3911,-8.3911,-8.4267,0.0,-8.4711,-8.5083,-8.5413,0.0,0.0,0.0,0.0,0.0,0.0,0.0,0.0,0.0,0.0,0.0,0.0,0.0,0.0,0.0,0.0,-8.5511,-8.5511,-8.5511,-8.5511,-8.5511,-8.5511,-8.5511,-8.5511,-8.5511,-8.6352,-8.7231,-8.8071,-8.8912,-8.9752,-9.0593,-9.0593,-9.0551,-9.0508,-9.0508,-9.0508,-9.0487,-8.9835,-8.9991,-9.0551,-8.9968,-9.0037,-9.0593,-9.0593,-9.0593,-9.0593,-9.0593,-9.0593,-9.0631,0.0,0.0,0.0,0.0,0.0,0.0,0.0,0.0,-8.5511,-8.5511,-8.5511,-8.5511,-8.5511,-8.5511,-8.5511,-8.5511,-8.5511,-8.5332,-8.487,-8.4848,0.0,0.0,0.0,0.0,0.0,0.0,-8.524,-8.5511,-8.4806,-8.4382,-8.4218,-8.4218,-8.4167,-8.4066,-8.4066,-8.4015,-8.3859,-8.3255,-8.3424,-8.4041,-8.3937,-8.4041,-8.4193,-8.4092,-8.4066,-8.3989,-8.3396,-8.3424,-8.3726,-8.3726,-8.348,-8.3255,-8.3752,-8.3292,-8.2708,-8.3618,-8.3563,-8.3284,-8.3779,-8.3911,-8.3911,-8.3911,0.0,0.0,-8.458,-8.478,-8.4958,0.0,0.0,0.0,0.0,0.0,0.0,0.0,0.0,0.0,0.0,0.0,0.0,0.0,0.0,0.0,0.0,-8.5511,-8.5511,-8.5511,-8.5511,-8.5511,-8.5511,-8.5511,-8.5511,-8.5511,-8.6352,-8.7231,-8.8071,-8.8912,-8.9752,-9.0593,-9.0593,-9.0362,-8.9897,-8.9897,-8.9897,-8.9835,-8.9246,-8.9578,-9.0551,-8.9968,-9.0037,-9.0593,-9.0593,-9.0593,-9.0593,-9.0593,-9.0593,-9.0708,0.0,0.0,0.0,0.0,0.0,0.0,0.0,0.0,-8.5393,-8.5126,-8.5105,-8.519,-8.5491,-8.527,-8.519,-8.5491,-8.527,-8.5105,-8.5105,-8.5105,0.0,0.0,0.0,0.0,0.0,0.0,-8.4376,-8.4711,-8.413,-8.3847,-8.3911,-8.4167,-8.4167,-8.3911,-8.3911,-8.3726,-8.3424,-8.2823,-8.2913,-8.3452,-8.3452,-8.3768,-8.4267,-8.4015,-8.3726,-8.3424,-8.3111,-8.3032,-8.3032,-8.3032,-8.286,0.0,-8.2943,-8.2684,-8.2279,0.0,-8.286,-8.2647,-8.2943,-8.3032,0.0,-8.3032,0.0,0.0,0.0,-8.4734,-8.5169,0.0,0.0,0.0,0.0,0.0,0.0,0.0,0.0,0.0,0.0,0.0,0.0,0.0,0.0,0.0,0.0,-8.5511,-8.5511,-8.5511,-8.5511,-8.5511,-8.5511,-8.5511,-8.5511,-8.5511,-8.6772,-8.7651,-8.811,-8.9332,-9.0173,-9.0593,-9.0593,-9.0257,-8.9714,-9.0014,-8.9991,-8.969,-8.9376,-8.9763,-9.0551,-8.9968,-9.0037,-9.0593,-9.0593,-9.0593,-9.0669,-9.1052,-9.1204,-9.1319,-8.5491,0.0,0.0,0.0,0.0,0.0,0.0,0.0,-8.5352,-8.4892,-8.4848,-8.504,-8.5433,-8.5126,-8.504,-8.5471,-8.5018,-8.4848,-8.5169,-8.5105,-8.4958,0.0,0.0,-8.439,0.0,0.0,0.0,-8.3911,-8.3312,-8.3255,-8.3752,-8.4054,-8.4028,-8.3726,-8.3618,-8.3368,-8.2935,-8.2439,-8.2497,-8.2994,-8.2994,-8.3607,-8.4486,-8.3937,-8.3424,-8.3002,-8.2883,-8.2591,-8.2186,-8.2186,-8.2186,-8.2219,-8.2311,-8.2284,0.0,0.0,0.0,0.0,0.0,0.0,0.0,0.0,0.0,-8.359,0.0,0.0,0.0,0.0,0.0,0.0,0.0,0.0,0.0,0.0,0.0,0.0,0.0,0.0,0.0,0.0,0.0,0.0,0.0,-8.5511,-8.5511,-8.5511,-8.5511,-8.5511,-8.5511,-8.5511,-8.5511,-8.5511,-8.7192,-8.811,-8.811,-8.9752,-9.0593,-9.0593,-9.0487,-9.0121,-8.9528,-9.0014,-8.9991,-8.9528,-8.9665,-8.9968,-9.0383,-8.992,-8.992,-9.0257,-9.0508,-9.053,-9.052,-9.1343,-9.1543,-9.1591,-8.5393,-8.5511,0.0,0.0,0.0,0.0,0.0,0.0,-8.5491,-8.5393,-8.5393,-8.5413,-8.5511,-8.5471,-8.5413,-8.5511,-8.5018,-8.451,-8.4117,-8.3553,-8.3053,0.0,0.0,0.0,-8.3198,0.0,0.0,0.0,-8.3312,-8.3024,-8.3082,-8.2678,-8.2708,-8.3082,-8.2622,-8.2622,-8.2935,-8.2439,-8.2497,-8.2994,-8.2994,-8.3396,-8.3937,-8.334,-8.3053,-8.2943,-8.2434,-8.2251,-8.2186,0.0,-8.2186,-8.2284,0.0,-8.2554,-8.2279,-8.28,0.0,0.0,0.0,0.0,0.0,0.0,-8.2316,0.0,0.0,0.0,-8.3452,-8.3989,0.0,0.0,0.0,0.0,0.0,0.0,0.0,0.0,0.0,0.0,0.0,0.0,0.0,0.0,0.0,0.0,-8.5511,-8.5511,-8.5511,-8.5511,-8.5511,-8.5511,-8.5511,-8.5511,-8.7192,-8.811,-8.811,-8.9752,-9.0593,-9.0572,-9.0037,-8.9478,-8.8887,-8.8969,-8.8969,-8.8914,-8.9453,-8.9739,-8.9787,-8.9739,-8.9427,-8.9103,-9.019,-9.0257,-8.9901,-9.0735,-9.0662,-9.0398,-8.4627,-8.4557,-8.4557,0.0,0.0,0.0,0.0,0.0,-8.4557,-8.4557,-8.4557,-8.4711,-8.498,-8.504,-8.504,-8.504,-8.4533,-8.4267,-8.4365,-8.3859,-8.3563,0.0,0.0,0.0,0.0,0.0,0.0,0.0,-8.2647,-8.2528,-8.2528,-8.2616,-8.2763,-8.2965,-8.2732,-8.2763,-8.2935,-8.2439,-8.2311,-8.2528,-8.2528,-8.2678,0.0,-8.3002,-8.2793,-8.2497,-8.2284,-8.2186,-8.2186,0.0,-8.2186,0.0,0.0,0.0,0.0,-8.2465,0.0,0.0,0.0,0.0,0.0,0.0,0.0,0.0,-8.2972,0.0,-8.359,0.0,0.0,0.0,0.0,0.0,0.0,0.0,0.0,0.0,0.0,0.0,0.0,0.0,0.0,0.0,0.0,0.0,0.0,0.0,0.0,-8.5511,-8.5511,-8.5511,-8.5511,-8.5511,-8.7192,-8.811,-8.811,-8.9752,-9.0405,-9.006,-8.9811,-8.9376,-8.8804,-8.9156,-8.9324,-8.935,-8.9968,-9.0014,-8.9714,-8.9714,-8.935,-8.8869,-8.9879,-9.012,-8.9985,-9.0815,-9.1254,-9.1629,-8.3618,-8.3806,-8.4117,-8.4117,0.0,0.0,0.0,0.0,-8.3726,-8.3885,-8.3911,-8.4041,-8.4438,-8.4486,-8.4533,-8.4711,-8.4066,-8.3911,-8.4438,-8.3832,-8.3618,-8.3977,-8.3227,-8.2763,0.0,0.0,0.0,0.0,0.0,-8.2186,-8.2219,-8.2622,-8.2763,-8.2763,-8.2763,-8.2763,-8.2769,-8.2375,-8.2186,-8.2186,-8.2186,-8.2186,-8.2251,-8.2616,-8.256,-8.2186,-8.2186,-8.2186,-8.2186,-8.2186,-8.2186,0.0,-8.2186,0.0,0.0,0.0,0.0,0.0,-8.2186,0.0,0.0,0.0,0.0,0.0,0.0,0.0,0.0,0.0,0.0,0.0,0.0,0.0,0.0,0.0,0.0,0.0,0.0,0.0,0.0,0.0,0.0,0.0,0.0,0.0,0.0,-8.5511,-8.5511,-8.5511,-8.5511,-8.5511,-8.5511,-8.5511,-8.7192,-8.811,-8.811,-8.9752,-9.0317,-8.9714,-8.9528,-8.9209,-8.8804,-8.9272,-8.9528,-8.9714,-9.0167,-9.0014,-8.9427,-8.9299,-8.8982,-8.8697,-8.9295,-8.978,-9.0265,-9.1044,-9.1612,-9.2094,-8.2343,-8.3563,-8.465,-8.465,-8.4267,0.0,0.0,0.0,-8.3227,-8.3832,-8.3911,-8.3911,-8.3937,-8.3937,-8.4142,-8.4627,-8.3661,-8.3284,-8.3885,-8.289,-8.2284,-8.2284,-8.2251,-8.2219,-8.2219,0.0,0.0,0.0,0.0,0.0,-8.2186,0.0,0.0,0.0,-8.2219,-8.2219,-8.2219,-8.2219,-8.2186,-8.2186,-8.2186,-8.2186,-8.2186,0.0,-8.2219,-8.2186,-8.2186,0.0,0.0,-8.2186,-8.2186,0.0,0.0,0.0,0.0,0.0,0.0,0.0,0.0,0.0,0.0,-8.2186,0.0,0.0,0.0,0.0,-8.2251,0.0,0.0,0.0,0.0,0.0,-8.2474,-8.0885,0.0,0.0,0.0,0.0,0.0,0.0,0.0,0.0,0.0,0.0,0.0,-8.5511,-8.5511,-8.5511,-8.5511,-8.5511,-8.5511,-8.5511,-8.7192,-8.811,-8.811,-8.9752,-9.0317,-8.969,-8.9103,-8.8804,-8.8804,-8.8804,-8.9167,-8.9714,-8.9714,-8.9402,-8.8776,-8.8205,-8.8067,-8.8202,-8.8239,-8.9231,-9.0662,-9.1276,-9.1145,-9.0774,-8.334,-8.348,-8.3443,-8.3119,-8.3169,-8.3312,-8.3312,-8.314,-8.2943,-8.28,-8.309,-8.3452,-8.3859,-8.3911,-8.3963,-8.4167,-8.348,-8.3082,-8.3284,-8.2622,-8.2343,-8.2708,-8.2407,-8.2186,-8.2186,0.0,0.0,0.0,0.0,0.0,0.0,0.0,0.0,0.0,-8.2186,-8.2186,-8.2186,-8.2186,-8.2186,-8.2186,0.0,-8.2186,-8.2186,0.0,0.0,-8.2186,-8.2186,-8.2186,0.0,-8.2186,-8.2186,-8.2186,-8.2186,-8.2186,-8.2186,-8.2186,-8.2186,0.0,0.0,0.0,-8.2186,-8.2186,0.0,0.0,0.0,0.0,0.0,0.0,0.0,0.0,0.0,0.0,-8.2281,-8.1734,-8.2542,0.0,0.0,0.0,0.0,0.0,0.0,0.0,0.0,0.0,0.0,-8.5511,-8.5511,-8.5511,0.0,-8.5511,-8.5511,-8.5511,-8.7192,-8.811,-8.811,-8.9752,-9.0121,-8.9103,-8.9324,-8.8969,-8.8235,-8.8607,-8.8914,-8.9076,-8.9076,-8.8748,-8.8242,-8.8586,-8.8483,-8.8316,-8.9381,-9.0115,-9.0628,-9.0839,-9.11,-9.1436,-8.3321,-8.2972,-8.2678,-8.2497,-8.2585,-8.2708,-8.2708,-8.2708,-8.2647,-8.2497,-8.28,-8.314,-8.3535,-8.359,-8.359,-8.359,-8.3061,-8.2793,-8.3002,-8.2497,-8.2343,-8.2708,-8.2375,-8.2186,0.0,0.0,0.0,0.0,0.0,-8.2186,0.0,0.0,0.0,0.0,0.0,-8.2186,-8.2186,-8.2186,-8.2186,0.0,0.0,-8.2186,0.0,0.0,-8.2186,-8.2186,0.0,-8.2186,-8.2186,-8.2186,-8.2186,-8.2186,-8.2186,-8.2186,-8.2186,-8.2186,-8.2186,-8.2186,-8.2186,-8.2186,0.0,-8.2186,-8.2186,0.0,-8.2186,0.0,0.0,0.0,0.0,0.0,0.0,0.0,0.0,-8.2186,-8.2497,0.0,0.0,-8.3795,0.0,0.0,0.0,0.0,0.0,0.0,0.0,-8.5511,-8.5511,-8.5511,0.0,0.0,-8.5664,-8.597,-8.7345,-8.8224,-8.853,-8.9697,-8.9787,-8.8804,-8.8969,-8.8635,-8.7898,-8.8287,-8.8578,-8.8776,-8.8578,-8.8265,-8.7941,-8.8539,-8.8729,-8.8757,-9.0078,-9.0776,-9.1033,-9.1033,-9.1363,-9.1803,-8.2186,-8.2186,-8.2343,-8.2883,-8.256,-8.2186,-8.2186,-8.2219,-8.2439,-8.2913,-8.2965,-8.2994,-8.2994,-8.3002,-8.2965,-8.2994,-8.2497,-8.2439,-8.2943,-8.2465,0.0,0.0,-8.2186,-8.2186,-8.2186,0.0,0.0,0.0,0.0,0.0,0.0,0.0,0.0,0.0,-8.2186,-8.2186,-8.2186,-8.2186,-8.2186,-8.2186,-8.2186,-8.2186,-8.2186,-8.2186,-8.2186,-8.2186,-8.2186,-8.2186,-8.2186,-8.2186,-8.2186,-8.2186,-8.2186,-8.2186,-8.2186,-8.2186,-8.2186,-8.2186,-8.2186,-8.2186,-8.2186,-8.2186,0.0,0.0,0.0,0.0,-8.2186,0.0,0.0,0.0,0.0,0.0,0.0,-8.2186,-8.2186,0.0,0.0,0.0,0.0,0.0,0.0,0.0,0.0,0.0,-8.5511,-8.5511,-8.5511,-8.5511,0.0,0.0,-8.5893,-8.6772,-8.7651,-8.8492,-8.9294,-8.9573,-8.9402,-8.8776,-8.8235,-8.7898,-8.7873,-8.7904,-8.8205,-8.8664,-8.8114,-8.7873,-8.7921,-8.8151,-8.872,-8.9529,-9.0372,-9.1143,-9.1803,-9.1803,-9.1803,-9.1803,-8.2186,-8.2186,-8.2251,-8.2375,-8.2316,-8.2186,-8.2186,-8.256,-8.2708,-8.2434,-8.2769,-8.2994,-8.2994,-8.2647,-8.2591,-8.2972,-8.2497,0.0,0.0,0.0,0.0,-8.2186,-8.2186,-8.2186,-8.2186,-8.2186,-8.2186,-8.2186,0.0,0.0,-8.2186,0.0,0.0,0.0,0.0,-8.2186,-8.2186,-8.2186,-8.2186,-8.2186,-8.2186,-8.2186,0.0,0.0,-8.2186,-8.2186,-8.2186,-8.2186,-8.2186,-8.2186,-8.2186,-8.2186,-8.2186,-8.2186,-8.2186,-8.2186,-8.2186,-8.2186,-8.2186,-8.2186,-8.2186,-8.2186,-8.2186,-8.2186,0.0,0.0,0.0,0.0,0.0,0.0,0.0,0.0,0.0,0.0,0.0,0.0,0.0,0.0,0.0,-8.3415,0.0,0.0,0.0,-8.5511,-8.5511,-8.5511,-8.5511,-8.5511,0.0,0.0,0.0,-8.6772,-8.7651,-8.8492,-8.9294,-8.9573,-8.9402,-8.8804,-8.8635,-8.8114,-8.7231,-8.7683,-8.7746,-8.746,-8.7298,-8.7562,-8.8188,-8.8827,-8.9564,-9.0372,-9.1179,-9.162,-9.1803,-9.1803,-9.1803,-9.1803,-8.2186,-8.2186,-8.2186,-8.2186,-8.2186,-8.2186,-8.2186,-8.2434,-8.2616,-8.256,-8.2793,0.0,-8.2994,-8.2739,-8.2591,-8.2647,-8.2375,0.0,-8.2186,0.0,0.0,-8.2186,-8.2186,-8.2186,-8.2186,-8.2186,0.0,-8.2186,0.0,0.0,-8.2186,0.0,0.0,0.0,0.0,-8.2186,-8.2186,-8.2186,-8.2186,-8.2186,-8.2186,0.0,0.0,-8.2186,-8.2186,-8.2186,-8.2186,-8.2186,-8.2186,-8.2186,-8.2186,-8.2186,-8.2186,-8.2186,-8.2186,-8.2186,-8.2186,-8.2186,-8.2186,-8.2186,-8.2186,-8.2186,-8.2186,-8.2186,-8.2186,-8.2186,-8.2186,0.0,0.0,0.0,0.0,0.0,0.0,0.0,0.0,0.0,0.0,0.0,0.0,0.0,-8.3715,0.0,0.0,0.0,-8.527,-8.5491,-8.5511,0.0,0.0,0.0,0.0,-8.6937,-8.7701,-8.854,-8.9489,-8.9351,-8.8996,-8.8375,-8.8144,-8.7651,-8.6995,-8.7328,-8.7332,-8.6995,-8.6995,-8.7472,-8.828,-8.9087,-8.9895,-9.0702,-9.1473,-9.1803,-9.1803,-9.1803,-9.1803,-9.1803,-8.2186,-8.2186,-8.2186,-8.2186,-8.2186,-8.2186,0.0,-8.2284,0.0,-8.2823,0.0,-8.2965,-8.2913,-8.2913,-8.2708,-8.2251,-8.2186,-8.2186,-8.2186,-8.2186,-8.2186,-8.2186,-8.2186,-8.2186,-8.2186,-8.2186,-8.2186,0.0,0.0,0.0,0.0,0.0,0.0,0.0,-8.2186,-8.2186,0.0,-8.2186,-8.2186,-8.2186,-8.2186,-8.2186,-8.2186,-8.2186,-8.2186,-8.2186,-8.2186,-8.2186,-8.2186,-8.2186,-8.2186,-8.2186,-8.2186,-8.2186,-8.2186,-8.2186,-8.2186,-8.2186,-8.2186,-8.2186,-8.2186,-8.2186,-8.2186,-8.2186,-8.2186,-8.2186,-8.2186,-8.2186,-8.2186,0.0,0.0,0.0,0.0,0.0,0.0,0.0,0.0,0.0,0.0,0.0,0.0,0.0,0.0,0.0,0.0,-8.5352,-8.5471,0.0,0.0,0.0,0.0,0.0,-8.7699,0.0,-8.9811,0.0,-8.8434,-8.8022,-8.7332,-8.6995,-8.6995,-8.6995,-8.6995,-8.7031,-8.7105,-8.7619,-8.8426,-8.9234,-9.0041,-9.0849,-9.1546,-9.1803,-9.1803,-9.1803,-9.1803,-9.1803,-8.2186,-8.2186,-8.2186,-8.2186,-8.2186,-8.2186,-8.2186,-8.2591,-8.2739,-8.2375,-8.2739,-8.2823,-8.2407,-8.2343,-8.2279,-8.2219,-8.2186,0.0,0.0,0.0,0.0,-8.2186,-8.2186,-8.2186,-8.2186,-8.2186,-8.2186,0.0,0.0,0.0,-8.2186,0.0,0.0,0.0,-8.2186,0.0,-8.2186,-8.2186,0.0,-8.2186,-8.2186,-8.2186,-8.2186,-8.2186,-8.2186,-8.2186,-8.2186,-8.2186,-8.2186,-8.2186,-8.2186,-8.2186,-8.2186,-8.2186,-8.2186,-8.2186,-8.2186,-8.2186,-8.2186,-8.2186,-8.2186,-8.2186,-8.2186,-8.2186,-8.2186,-8.2186,-8.2186,-8.2186,-8.2186,-8.2186,-8.2186,0.0,0.0,0.0,0.0,0.0,0.0,0.0,0.0,0.0,0.0,0.0,0.0,0.0,0.0,0.0,0.0,0.0,0.0,0.0,0.0,0.0,0.0,0.0,0.0,0.0,0.0,-8.8635,-8.7526,-8.6995,-8.6995,-8.6995,-8.6995,-8.7031,-8.7692,-8.8463,-8.9271,-9.0078,-9.0849,-9.1583,-9.173,-9.1803,-9.1803,-9.1803,-9.1803,-9.1803,-8.2186,-8.2186,-8.2186,-8.2186,-8.2186,0.0,0.0,-8.2439,-8.2497,-8.2219,-8.2439,-8.2465,-8.2219,-8.2186,-8.2186,-8.2186,-8.2186,-8.2186,-8.2186,-8.2186,-8.2186,-8.2186,-8.2186,-8.2186,-8.2186,-8.2186,-8.2186,-8.2186,0.0,0.0,-8.2186,-8.2186,0.0,-8.2186,0.0,-8.2186,0.0,0.0,0.0,-8.2186,-8.2186,-8.2186,-8.2186,-8.2186,-8.2186,-8.2186,-8.2186,-8.2186,-8.2186,-8.2186,-8.2186,-8.2186,-8.2186,-8.2186,-8.2186,-8.2186,-8.2186,-8.2186,-8.2186,-8.2186,-8.2186,-8.2186,-8.2186,-8.2186,-8.2186,-8.2186,-8.2186,-8.2186,-8.2186,-8.2186,-8.2186,-8.2186,0.0,0.0,0.0,0.0,0.0,0.0,0.0,0.0,0.0,0.0,0.0,0.0,0.0,0.0,0.0,0.0,0.0,0.0,0.0,0.0,0.0,0.0,0.0,0.0,0.0,-8.7836,-8.7298,-8.6995,-8.6995,-8.6995,-8.6995,-8.7031,-8.7839,-8.8683,-8.9455,-9.0739,-9.1436,-9.1803,-9.1803,-9.1803,-9.1803,-9.1803,-9.1803,-9.1803,-8.2186,-8.2186,-8.2186,-8.2186,-8.2186,0.0,-8.2186,-8.2186,-8.2186,-8.2186,-8.2186,-8.2186,-8.2186,-8.2186,-8.2186,-8.2186,-8.2186,-8.2186,-8.2186,-8.2186,-8.2186,-8.2186,-8.2186,-8.2186,-8.2186,-8.2186,-8.2186,0.0,0.0,0.0,0.0,0.0,0.0,0.0,0.0,0.0,0.0,0.0,-8.2186,-8.2186,-8.2186,-8.2186,-8.2186,-8.2186,-8.2186,-8.2186,-8.2186,-8.2186,-8.2186,-8.2186,-8.2186,-8.2186,-8.2186,-8.2186,-8.2186,-8.2186,-8.2186,-8.2186,-8.2186,-8.2186,-8.2186,-8.2186,-8.2186,-8.2186,-8.2186,-8.2186,-8.2186,-8.2186,-8.2186,-8.2186,-8.2186,-8.2186,0.0,0.0,0.0,0.0,0.0,0.0,0.0,0.0,0.0,0.0,0.0,0.0,0.0,0.0,0.0,-8.465,-8.3082,-8.4844,0.0,0.0,0.0,-8.7745,-8.8257,0.0,-8.7558,0.0,-8.7064,-8.6995,-8.6995,-8.6995,-8.7105,-8.7325,-8.8096,-8.9014,-9.0005,-9.1289,-9.1803,-9.1803,-9.1803,-9.1803,-9.1803,-9.1803,-9.1913,-9.206,0.0,-8.2186,0.0,0.0,0.0,0.0,-8.2186,-8.2186,-8.2186,-8.2186,-8.2186,-8.2186,-8.2186,-8.2186,-8.2186,-8.2186,-8.2186,-8.2186,-8.2186,-8.2186,-8.2186,-8.2186,-8.2186,-8.2186,-8.2186,-8.2186,-8.2186,0.0,0.0,0.0,0.0,0.0,0.0,0.0,0.0,0.0,0.0,-8.2186,-8.2186,-8.2186,-8.2186,-8.2186,-8.2186,-8.2186,-8.2186,-8.2186,-8.2186,-8.2186,-8.2186,-8.2186,-8.2186,-8.2186,-8.2186,-8.2186,-8.2186,-8.2186,-8.2186,-8.2186,-8.2186,-8.2186,-8.2186,-8.2186,-8.2186,-8.2186,-8.2186,-8.2186,-8.2186,-8.2186,-8.2186,-8.2186,-8.2186,-8.2186,-8.2186,0.0,0.0,0.0,0.0,0.0,-8.2769,-8.2251,0.0,0.0,0.0,0.0,0.0,0.0,0.0,-8.423,-8.3053,-8.4908,-8.6101,-8.6299,0.0,-8.8157,-8.9503,-8.7898,0.0,-8.781,-8.7265,-8.6995,-8.6995,-8.6995,-8.7399,-8.8133,-8.894,-9.0188,-9.1583,-9.173,-9.1803,-9.1803,-9.1803,-9.1803,-9.1803,-9.1803,-9.2281,-9.2978,0.0,0.0,0.0,0.0,0.0,0.0,0.0,-8.2407,-8.2186,-8.2186,-8.2186,-8.2186,-8.2186,-8.2186,-8.2186,-8.2186,-8.2186,-8.2186,-8.2186,-8.2186,-8.2186,-8.2186,-8.2186,-8.2186,-8.2186,-8.2186,-8.2186,0.0,0.0,0.0,0.0,0.0,0.0,0.0,0.0,-8.2186,-8.2186,-8.2186,-8.2186,-8.2186,-8.2186,-8.2186,-8.2186,-8.2186,-8.2186,-8.2186,-8.2186,-8.2186,-8.2186,-8.2186,-8.2186,-8.2186,-8.2186,-8.2186,-8.2186,-8.2186,-8.2186,-8.2186,-8.2186,-8.2186,-8.2186,-8.2186,-8.2186,-8.2186,-8.2186,-8.2186,-8.2186,-8.2186,-8.2186,-8.2186,-8.2186,-8.2186,-8.2186,0.0,0.0,0.0,0.0,0.0,0.0,0.0,0.0,-8.3032,0.0,0.0,0.0,0.0,0.0,0.0,-8.2622,-8.4825,0.0,-8.5889,0.0,-8.7656,-8.8607,-8.7558,-8.7132,-8.7365,-8.7132,-8.6995,-8.7031,-8.7509,-8.8426,-8.9674,-9.0005,-9.0776,-9.1803,-9.1803,-9.1803,-9.1803,-9.1803,-9.1803,-9.1803,-9.1803,-9.2354,-9.3161,-8.2769,0.0,-8.3198,0.0,-8.2994,-8.2972,-8.2763,-8.2434,-8.2186,-8.2186,-8.2186,-8.2186,-8.2186,-8.2186,-8.2186,-8.2186,-8.2186,-8.2186,-8.2186,-8.2186,-8.2186,-8.2186,-8.2186,0.0,-8.2186,-8.2186,-8.2186,-8.2186,-8.2186,0.0,0.0,0.0,0.0,0.0,-8.292,-8.292,-8.292,-8.292,-8.292,-8.292,-8.292,-8.292,-8.292,-8.292,-8.292,-8.292,-8.292,-8.2737,-8.2553,-8.2553,-8.2406,-8.2186,-8.2186,-8.2186,-8.2186,-8.2186,-8.2186,-8.2186,-8.2186,-8.2186,-8.2186,-8.2186,-8.2186,-8.2186,-8.2186,-8.2186,-8.2186,-8.2186,-8.2186,-8.2186,-8.2186,-8.2186,-8.2186,-8.2186,0.0,0.0,0.0,0.0,0.0,0.0,-8.2502,-8.256,-8.2219,0.0,0.0,0.0,0.0,0.0,0.0,0.0,0.0,0.0,0.0,0.0,0.0,-8.7298,-8.6995,-8.6995,-8.6995,-8.6995,-8.7031,-8.8096,-8.9307,-9.0629,-9.0849,-9.1289,-9.1803,-9.1803,-9.1803,-9.1803,-9.1803,-9.1803,-9.184,-9.2097,-9.2721,-9.3565,-8.3885,-8.3885,-8.3699,-8.3111,-8.2994,-8.2823,-8.2316,-8.2186,-8.2186,-8.2186,-8.2186,-8.2186,-8.2186,-8.2186,-8.2186,-8.2186,-8.2186,-8.2186,-8.2186,-8.2186,-8.2186,0.0,0.0,-8.2186,-8.2186,-8.2186,-8.2186,-8.2186,0.0,0.0,-8.3398,0.0,-8.4572,-8.4572,-8.4572,-8.4572,-8.4572,-8.4572,-8.4572,-8.4572,-8.4572,-8.4572,-8.4572,-8.4572,-8.4572,-8.4572,-8.4572,-8.4058,-8.3398,-8.3398,-8.2847,-8.2186,-8.2186,-8.2186,-8.2186,-8.2186,-8.2186,-8.2186,-8.2186,-8.2186,-8.2186,-8.2186,-8.2186,-8.2186,-8.2186,-8.2186,-8.2186,-8.2186,-8.2186,-8.2186,-8.2186,-8.2186,-8.2186,-8.2186,0.0,0.0,0.0,0.0,0.0,0.0,-8.3206,-8.3424,-8.2316,0.0,0.0,0.0,0.0,0.0,0.0,0.0,0.0,-8.6666,-8.749,0.0,-8.7898,-8.7298,-8.6995,-8.6995,-8.6995,-8.6995,-8.7068,-8.8683,-8.9858,-9.0629,-9.1436,-9.1803,-9.1803,-9.1803,-9.1803,-9.1803,-9.1803,-9.1803,-9.1913,-9.2758,-9.3602,-9.441,-8.3963,-8.3911,-8.3832,-8.3645,-8.3284,-8.2943,-8.2763,-8.2402,-8.2186,-8.2186,-8.2186,-8.2186,-8.2186,-8.2186,-8.2186,0.0,-8.2186,-8.2186,0.0,-8.2186,-8.2186,-8.2186,-8.2737,-8.303,-8.303,-8.3544,-8.3838,-8.3838,0.0,0.0,0.0,-8.4499,-8.4609,-8.4609,-8.4609,-8.4609,-8.4609,-8.4609,-8.4609,-8.4609,-8.4609,-8.4609,-8.4609,-8.4609,-8.4609,-8.4609,-8.4609,-8.4462,-8.4242,-8.4242,-8.4058,-8.3838,-8.3838,-8.3067,-8.2186,-8.2186,-8.2186,-8.2186,-8.2186,-8.2186,-8.2186,-8.2186,-8.2186,-8.2186,-8.2186,-8.2186,-8.2186,-8.2186,-8.2186,-8.2186,-8.2186,-8.2186,-8.2186,-8.2186,0.0,0.0,0.0,0.0,0.0,0.0,-8.2497,-8.2591,0.0,-8.3158,0.0,0.0,0.0,0.0,0.0,0.0,0.0,0.0,-8.7082,0.0,-8.7898,-8.7298,-8.6995,-8.6995,-8.6995,-8.7582,-8.8648,-8.9748,-9.0665,-9.1436,-9.1693,-9.1803,-9.1803,-9.1803,-9.1803,-9.1803,-9.1803,-9.1803,-9.1913,-9.2794,-9.3602,-9.441,-8.4267,-8.4041,-8.3832,-8.3618,-8.3255,-8.2943,-8.2739,-8.2439,-8.2186,-8.2186,-8.2186,-8.2186,-8.2186,-8.2186,0.0,-8.2186,-8.2186,-8.2186,-8.2186,-8.248,-8.2663,-8.2663,-8.3434,-8.3875,-8.3875,0.0,0.0,-8.4609,-8.4903,-8.5049,-8.5049,-8.538,-8.549,-8.549,-8.549,-8.549,-8.549,-8.549,-8.549,-8.549,-8.549,-8.549,-8.549,-8.549,-8.549,-8.549,-8.549,-8.5306,-8.5049,-8.5049,-8.4866,-8.4609,-8.4609,-8.3911,-8.303,-8.2737,-8.2443,-8.2186,-8.2186,-8.2186,-8.2186,-8.2186,-8.2186,-8.2186,-8.2186,-8.2186,-8.2186,-8.2186,-8.2186,-8.2186,-8.2186,-8.2186,-8.2186,-8.2186,0.0,-8.2186,-8.2186,0.0,0.0,0.0,0.0,0.0,0.0,-8.3861,0.0,0.0,0.0,0.0,0.0,0.0,0.0,-8.6777,-8.694,0.0,-8.7558,-8.7163,-8.6995,-8.6995,-8.7325,-8.8316,-8.9895,-9.0372,-9.1033,-9.1803,-9.1803,-9.1803,-9.1803,-9.1803,-9.1803,-9.1803,-9.1803,-9.1987,-9.2391,-9.3235,-9.4079,-9.4887,-8.4627,-8.4242,0.0,0.0,-8.2994,0.0,-8.2284,-8.2186,-8.2186,-8.2186,-8.2186,-8.2186,-8.2186,-8.2186,-8.2223,-8.226,0.0,0.0,0.0,-8.2994,-8.3434,-8.3508,-8.4242,-8.4682,-8.4682,-8.4756,-8.4756,-8.4756,-8.5527,-8.5857,-8.5894,-8.6664,-8.6995,-8.6995,-8.6995,-8.6995,-8.6995,-8.6995,-8.6995,-8.6995,-8.6995,-8.6995,-8.6995,-8.6995,-8.6995,-8.6995,-8.6995,-8.6518,-8.5857,-8.5857,-8.538,-8.4756,-8.4756,-8.4719,-8.4535,-8.3728,-8.2957,-8.2333,-8.2296,-8.226,-8.226,-8.2223,-8.2186,-8.2186,-8.2186,-8.2186,-8.2186,-8.2186,-8.2186,-8.2186,-8.2186,-8.2186,-8.2186,-8.2186,-8.226,-8.226,-8.226,0.0,0.0,0.0,0.0,0.0,0.0,-8.4646,-8.4976,0.0,0.0,0.0,0.0,0.0,-8.6224,-8.6995,-8.6995,-8.6995,-8.6995,-8.6995,-8.7031,-8.7105,-8.7912,-8.9087,-9.0592,-9.0665,-9.1106,-9.1803,-9.1803,-9.1803,-9.1803,-9.1803,-9.1803,-9.1803,-9.1803,-9.2317,-9.3198,-9.4006,-9.4813,-9.5621,0.0,0.0,-8.3726,-8.3111,-8.2994,-8.2823,-8.2284,-8.2186,-8.2186,-8.2186,-8.2186,-8.2186,-8.2186,-8.2186,-8.2443,-8.3067,-8.2553,-8.2443,-8.3104,-8.3287,-8.3691,-8.4278,-8.5086,-8.5527,-8.5527,-8.6114,-8.6444,-8.6444,-8.6628,-8.6738,-8.6738,-8.6921,-8.6995,-8.6995,-8.6995,-8.6995,-8.6995,-8.6995,-8.6995,-8.6995,-8.6995,-8.6995,-8.6995,-8.6995,-8.6995,-8.6995,-8.6995,-8.6885,-8.6738,-8.6738,-8.6591,-8.6444,-8.6444,-8.6004,-8.5343,-8.4535,-8.4168,-8.3911,-8.3287,-8.3141,-8.2994,-8.2333,-8.2186,-8.2186,-8.2186,-8.2186,-8.2186,-8.2186,-8.2186,-8.2186,-8.2186,-8.2186,-8.2186,-8.2186,-8.2737,-8.3141,-8.3141,0.0,0.0,0.0,-8.4315,-8.4389,-8.4572,-8.5159,-8.56,0.0,0.0,0.0,0.0,0.0,-8.6811,-8.6995,-8.6995,-8.6995,-8.6995,-8.6995,-8.7325,-8.7949,-8.8757,-8.9638,-9.0629,-9.1253,-9.162,-9.1803,-9.1803,-9.1803,-9.1803,-9.1803,-9.1803,-9.1803,-9.1803,-9.2317,-9.3198,-9.4006,-9.4813,-9.5621,-8.4015,-8.3672,-8.3396,-8.3053,-8.2793,-8.2528,-8.2251,-8.2186,-8.2186,-8.2186,-8.2186,-8.2186,-8.2186,-8.2517,-8.292,-8.3361,-8.2994,-8.3104,-8.3911,-8.4278,-8.4682,-8.5123,-8.593,-8.6334,-8.6334,-8.6775,-8.6995,-8.6995,-8.6995,-8.6995,-8.6995,-8.6995,-8.6995,-8.6995,-8.6995,-8.6995,-8.6995,-8.6995,-8.6995,-8.6995,-8.6995,-8.6995,-8.6995,-8.6995,-8.6995,-8.6995,-8.6995,-8.6995,-8.6995,-8.6995,-8.6995,-8.6995,-8.6995,-8.6701,-8.6261,-8.582,-8.5196,-8.4499,-8.4058,-8.3948,-8.3765,-8.2957,-8.2737,-8.2663,-8.226,-8.248,-8.2737,-8.2737,-8.303,-8.3287,-8.3287,-8.3287,-8.3287,-8.3287,-8.3654,-8.3948,-8.3948,-8.4315,0.0,-8.5086,-8.5159,-8.5306,-8.5673,-8.6077,-8.6334,-8.6334,0.0,0.0,-8.6995,-8.6995,-8.6995,-8.6995,-8.6995,-8.6995,-8.6995,-8.7362,-8.7949,-8.8757,-8.9564,-9.0372,-9.1179,-9.1583,-9.1803,-9.1803,-9.1803,-9.1803,-9.1803,-9.1803,-9.1803,-9.184,-9.2244,-9.2905,-9.3749,-9.4556,-9.5364,-9.6098,-8.4015,-8.348,-8.3111,-8.2994,-8.2616,-8.2279,-8.2219,-8.2186,-8.2186,-8.2186,-8.2296,-8.237,-8.237,-8.3104,-8.3654,-8.3765,-8.3765,-8.4058,-8.4756,-8.5416,-8.5857,-8.5967,-8.6628,-8.6995,-8.6995,-8.6995,-8.6995,-8.6995,-8.6995,-8.6995,-8.6995,-8.6995,-8.6995,-8.6995,-8.6995,-8.6995,-8.6995,-8.6995,-8.6995,-8.6995,-8.6995,-8.6995,-8.6995,-8.6995,-8.6995,-8.6995,-8.6995,-8.6995,-8.6995,-8.6995,-8.6995,-8.6995,-8.6995,-8.6995,-8.6995,-8.6995,-8.604,-8.4939,-8.4792,-8.4682,-8.4462,-8.3765,-8.3581,-8.3398,-8.27,-8.3104,-8.3581,-8.3581,-8.4132,-8.4609,-8.4609,-8.4609,-8.4609,-8.4609,-8.4682,-8.4792,-8.4792,0.0,-8.5233,-8.5894,-8.5967,-8.6261,-8.6921,-8.6995,-8.6995,-8.6995,-8.6995,0.0,0.0,-8.6995,-8.6995,-8.6995,-8.6995,-8.7068,-8.7178,-8.7876,-8.8683,-8.9601,-9.0298,-9.1033,-9.1803,-9.1803,-9.1803,-9.1803,-9.1803,-9.1803,-9.1803,-9.1803,-9.1803,-9.1877,-9.2758,-9.3602,-9.441,-9.5217,-9.6025,-9.6685,-8.4015,-8.3832,-8.3618,-8.3082,-8.2943,-8.2739,-8.2284,-8.2186,-8.2186,-8.2186,-8.281,-8.3214,-8.3214,-8.3948,-8.4682,-8.538,-8.5416,-8.549,-8.56,-8.571,-8.6114,-8.6775,-8.6921,-8.6995,-8.6995,-8.6995,-8.6995,-8.6995,-8.6995,-8.6995,-8.6995,-8.6995,-8.6995,-8.6995,-8.6995,-8.6995,-8.6995,-8.6995,-8.6995,-8.6995,-8.6995,-8.6995,-8.6995,-8.6995,-8.6995,-8.6995,-8.6995,-8.6995,-8.6995,-8.6995,-8.6995,-8.6995,-8.6995,-8.6995,-8.6995,-8.6995,-8.6811,-8.6481,-8.5783,-8.5123,-8.4572,-8.4462,-8.4425,-8.4389,-8.4278,-8.4315,-8.4425,-8.4425,-8.4499,-8.4609,-8.4609,-8.4609,-8.4609,-8.4609,-8.5159,-8.56,-8.56,0.0,-8.6664,-8.6811,-8.6811,-8.6885,-8.6995,-8.6995,-8.6995,-8.6995,-8.6995,-8.6995,-8.6995,-8.6995,-8.6995,-8.6995,-8.6995,-8.7325,-8.8023,-8.8133,-8.894,-9.0445,-9.0555,-9.1033,-9.1803,-9.1803,-9.1803,-9.1803,-9.1803,-9.1803,-9.1803,-9.1803,-9.1803,-9.1877,-9.2758,-9.3602,-9.441,-9.5217,-9.6025,-9.6685,-8.4066,-8.3911,-8.3726,-8.3111,-8.2769,-8.2465,-8.2251,-8.2186,-8.237,-8.281,-8.3177,-8.3581,-8.4022,-8.4756,-8.538,-8.5747,-8.6187,-8.6444,-8.6444,-8.6444,-8.6628,-8.6995,-8.6995,-8.6995,-8.6995,-8.6995,-8.6995,-8.6995,-8.6995,-8.6995,-8.6995,-8.6995,-8.6995,-8.6995,-8.6995,-8.6995,-8.6995,-8.6995,-8.6995,-8.6995,-8.6995,-8.6995,-8.6995,-8.6995,-8.6995,-8.6995,-8.6995,-8.6995,-8.6995,-8.6995,-8.6995,-8.6995,-8.6995,-8.6995,-8.6995,-8.6995,-8.6995,-8.6921,-8.6554,-8.6187,-8.5783,-8.5343,-8.5233,-8.5123,-8.4682,-8.4939,-8.5233,-8.5233,-8.56,-8.5894,-8.5894,-8.5894,-8.5894,-8.5894,-8.6187,0.0,0.0,-8.6775,-8.6995,-8.6995,-8.6995,-8.6995,-8.6995,-8.6995,-8.6995,-8.6995,-8.6995,-8.6995,-8.6995,-8.6995,-8.6995,-8.6995,-8.7435,-8.7839,-8.8206,-8.905,-8.9858,-9.0629,-9.1033,-9.1436,-9.1803,-9.1803,-9.1803,-9.1803,-9.1803,-9.1803,-9.1803,-9.1803,-9.206,-9.2574,-9.3418,-9.4226,-9.5034,-9.5841,-9.6392,-9.6685,-8.4267,-8.3989,-8.3726,-8.3111,-8.256,-8.226,-8.2443,-8.248,-8.2774,-8.3581,-8.3838,-8.4205,-8.4792,-8.56,-8.6077,-8.6077,-8.6628,-8.6995,-8.6995,-8.6995,-8.6995,-8.6995,-8.6995,-8.6995,-8.6995,-8.6995,-8.6995,-8.6995,-8.6995,-8.6995,-8.6995,-8.6995,-8.6995,-8.6995,-8.6995,-8.6995,-8.6995,-8.6995,-8.6995,-8.6995,-8.6995,-8.6995,-8.6995,-8.6995,-8.6995,-8.6995,-8.6995,-8.6995,-8.6995,-8.6995,-8.6995,-8.6995,-8.6995,-8.6995,-8.6995,-8.6995,-8.6995,-8.6995,-8.6995,-8.6995,-8.6848,-8.6224,-8.6077,-8.593,-8.5306,-8.5637,-8.6077,-8.6077,-8.6591,-8.6995,-8.6995,-8.6995,-8.6995,-8.6995,0.0,0.0,0.0,-8.6995,-8.6995,-8.6995,-8.6995,-8.6995,-8.6995,-8.6995,-8.6995,-8.6995,-8.6995,-8.6995,-8.6995,-8.6995,-8.7105,-8.7288,-8.7876,-8.839,-8.8757,-8.9968,-9.0702,-9.0886,-9.151,-9.1803,-9.1803,-9.1803,-9.1803,-9.1803,-9.1803,-9.1803,-9.1803,-9.2024,-9.2501,-9.3198,-9.4189,-9.496,-9.5621,-9.6392,-9.6685,-9.6685,-8.4757,-8.4242,-8.3726,-8.3111,-8.256,-8.2443,-8.3214,-8.3324,-8.3618,-8.4425,-8.5159,-8.5637,-8.571,-8.6444,-8.6921,-8.6921,-8.6995,-8.6995,-8.6995,-8.6995,-8.6995,-8.6995,-8.6995,-8.6995,-8.6995,-8.6995,-8.6995,-8.6995,-8.6995,-8.6995,-8.6995,-8.6995,-8.6995,-8.6995,-8.6995,-8.6995,-8.6995,-8.6995,-8.6995,-8.6995,-8.6995,-8.6995,-8.6995,-8.6995,-8.6995,-8.6995,-8.6995,-8.6995,-8.6995,-8.6995,-8.6995,-8.6995,-8.6995,-8.6995,-8.6995,-8.6995,-8.6995,-8.6995,-8.6995,-8.6995,-8.6995,-8.6921,-8.6921,-8.6921,-8.6848,-8.6885,-8.6921,-8.6921,-8.6958,-8.6995,-8.6995,-8.6995,-8.6995,-8.6995,0.0,0.0,-8.6995,-8.6995,-8.6995,-8.6995,-8.6995,-8.6995,-8.6995,-8.6995,-8.6995,-8.6995,-8.6995,-8.6995,-8.6995,-8.6995,-8.7362,-8.8096,-8.8169,-8.8904,-9.0408,-9.0555,-9.0959,-9.1693,-9.1767,-9.1803,-9.1803,-9.1803,-9.1803,-9.1803,-9.1803,-9.1803,-9.184,-9.2684,-9.3051,-9.3272,-9.4813,-9.5474,-9.5621,-9.6392,-9.6685,-9.6685,-8.4317,-8.3752,-8.3326,-8.3255,-8.3084,-8.3214,-8.4022,-8.4132,-8.4425,-8.5233,-8.56,-8.5967,-8.6481,-8.6811,-8.6995,-8.6995,-8.6995,-8.6995,-8.6995,-8.6995,-8.6995,-8.6995,-8.6995,-8.6995,-8.6995,-8.6995,-8.6995,-8.6995,-8.6995,-8.6995,-8.6995,-8.6995,-8.6995,-8.6995,-8.6995,-8.6995,-8.6995,-8.6995,-8.6995,-8.6995,-8.6995,-8.6995,-8.6995,-8.6995,-8.6995,-8.6995,-8.6995,-8.6995,-8.6995,-8.6995,-8.6995,-8.6995,-8.6995,-8.6995,-8.6995,-8.6995,-8.6995,-8.6995,-8.6995,-8.6995,-8.6995,-8.6995,-8.6995,-8.6995,-8.6995,-8.6995,-8.6995,-8.6995,-8.6995,-8.6995,-8.6995,-8.6995,-8.6995,-8.6995,0.0,-8.6995,-8.6995,-8.6995,-8.6995,-8.6995,-8.6995,-8.6995,-8.6995,-8.6995,-8.6995,-8.6995,-8.6995,-8.6995,-8.6995,-8.7472,-8.8353,-8.9638,-8.9711,-8.9968,-9.0592,-9.1106,-9.151,-9.1803,-9.1803,-9.1803,-9.1803,-9.1803,-9.1803,-9.1803,-9.1803,-9.1803,-9.1877,-9.2758,-9.3382,-9.3932,-9.507,-9.5804,-9.6282,-9.6575,-9.6685,-9.6685,-8.4117,-8.3656,-8.3453,-8.3717,-8.3801,-8.4058,-8.4866,-8.4976,-8.527,-8.6077,-8.6187,-8.6371,-8.6958,-8.6995,-8.6995,-8.6995,-8.6995,-8.6995,-8.6995,-8.6995,-8.6995,-8.6995,-8.6995,-8.6995,-8.6995,-8.6995,-8.6995,-8.6995,-8.6995,-8.6995,-8.6995,-8.6995,-8.6995,-8.6995,-8.6995,-8.6995,-8.6995,-8.6995,-8.6995,-8.6995,-8.6995,-8.6995,-8.6995,-8.6995,-8.6995,-8.6995,-8.6995,-8.6995,-8.6995,-8.6995,-8.6995,-8.6995,-8.6995,-8.6995,-8.6995,-8.6995,-8.6995,-8.6995,-8.6995,-8.6995,-8.6995,-8.6995,-8.6995,-8.6995,-8.6995,-8.6995,-8.6995,-8.6995,-8.6995,-8.6995,-8.6995,-8.6995,-8.6995,-8.6995,-8.6995,-8.6995,-8.6995,-8.6995,-8.6995,-8.6995,-8.6995,-8.6995,-8.6995,-8.6995,-8.6995,-8.6995,-8.6995,-8.7105,-8.7362,-8.839,-8.9454,-9.0592,-9.0849,-9.0996,-9.0996,-9.151,-9.1803,-9.1803,-9.1803,-9.1803,-9.1803,-9.1803,-9.1803,-9.1803,-9.1803,-9.195,-9.2281,-9.3125,-9.3969,-9.4777,-9.5584,-9.6208,-9.6685,-9.6685,-9.6685,-9.6685,-8.427,-8.422,-8.4305,-8.4559,-8.4609,-8.4866,-8.5673,-8.5783,-8.6077,-8.6921,-8.6995,-8.6995,-8.6995,-8.6995,-8.6995,-8.6995,-8.6995,-8.6995,-8.6995,-8.6995,-8.6995,-8.6995,-8.6995,-8.6995,-8.6995,-8.6995,-8.6995,-8.6995,-8.6995,-8.6995,-8.6995,-8.6995,-8.6995,-8.6995,-8.6995,-8.6995,-8.6995,-8.6995,-8.6995,-8.6995,-8.6995,-8.6995,-8.6995,-8.6995,-8.6995,-8.6995,-8.6995,-8.6995,-8.6995,-8.6995,-8.6995,-8.6995,-8.6995,-8.6995,-8.6995,-8.6995,-8.6995,-8.6995,-8.6995,-8.6995,-8.6995,-8.6995,-8.6995,-8.6995,-8.6995,-8.6995,-8.6995,-8.6995,-8.6995,-8.6995,-8.6995,-8.6995,-8.6995,-8.6995,-8.6995,-8.6995,-8.6995,-8.6995,-8.6995,-8.6995,-8.6995,-8.6995,-8.6995,-8.6995,-8.6995,-8.6995,-8.7031,-8.7362,-8.8169,-8.9748,-9.0592,-9.0629,-9.1363,-9.1803,-9.1803,-9.1803,-9.1803,-9.1803,-9.1803,-9.1803,-9.1803,-9.1803,-9.1803,-9.1803,-9.1803,-9.2281,-9.3161,-9.3969,-9.4777,-9.5584,-9.6392,-9.6685,-9.6685,-9.6685,-9.6685,-9.6685,-8.512,-8.5075,-8.5189,-8.5404,-8.5812,-8.6195,-8.6586,-8.6628,-8.6738,-8.6995,-8.6995,-8.6995,-8.6995,-8.6995,-8.6995,-8.6995,-8.6995,-8.6995,-8.6995,-8.6995,-8.6995,-8.6995,-8.6995,-8.6995,-8.6995,-8.6995,-8.6995,-8.6995,-8.6995,-8.6995,-8.6995,-8.6995,-8.6995,-8.6995,-8.6995,-8.6995,-8.6995,-8.6995,-8.6995,-8.6995,-8.6995,-8.6995,-8.6995,-8.6995,-8.6995,-8.6995,-8.6995,-8.6995,-8.6995,-8.6995,-8.6995,-8.6995,-8.6995,-8.6995,-8.6995,-8.6995,-8.6995,-8.6995,-8.6995,-8.6995,-8.6995,-8.6995,-8.6995,-8.6995,-8.6995,-8.6995,-8.6995,-8.6995,-8.6995,-8.6995,-8.6995,-8.6995,-8.6995,-8.6995,-8.6995,-8.6995,-8.6995,-8.6995,-8.6995,-8.6995,-8.6995,-8.6995,-8.6995,-8.6995,-8.6995,-8.6995,-8.7509,-8.8426,-8.9821,-9.0335,-9.0849,-9.1436,-9.1657,-9.1803,-9.1803,-9.1803,-9.1803,-9.1803,-9.1803,-9.1803,-9.1803,-9.1803,-9.1803,-9.184,-9.2464,-9.2868,-9.3198,-9.4593,-9.529,-9.5584,-9.6392,-9.6685,-9.6685,-9.6685,-9.6685,-9.6685,-8.6263,-8.611,-8.6103,-8.6541,-8.6754,-8.6874,-8.699,-8.6995,-8.6995,-8.6995,-8.6995,-8.6995,-8.6995,-8.6995,-8.6995,-8.6995,-8.6995,-8.6995,-8.6995,-8.6995,-8.6995,-8.6995,-8.6995,-8.6995,-8.6995,-8.6995,-8.6995,-8.6995,-8.6995,-8.6995,-8.6995,-8.6995,-8.6995,-8.6995,-8.6995,-8.6995,-8.6995,-8.6995,-8.6995,-8.6995,-8.6995,-8.6995,-8.6995,-8.6995,-8.6995,-8.6995,-8.6995,-8.6995,-8.6995,-8.6995,-8.6995,-8.6995,-8.6995,-8.6995,-8.6995,-8.6995,-8.6995,-8.6995,-8.6995,-8.6995,-8.6995,-8.6995,-8.6995,-8.6995,-8.6995,-8.6995,-8.6995,-8.6995,-8.6995,-8.6995,-8.6995,-8.6995,-8.6995,-8.6995,-8.6995,-8.6995,-8.6995,-8.6995,-8.6995,-8.6995,-8.6995,-8.6995,-8.6995,-8.6995,-8.7142,-8.7472,-8.85,-8.9564,-9.0555,-9.0922,-9.1289,-9.1767,-9.1803,-9.1803,-9.1803,-9.1803,-9.1803,-9.1803,-9.1803,-9.1803,-9.1803,-9.1803,-9.1987,-9.2354,-9.2868,-9.3455,-9.4116,-9.5107,-9.5694,-9.6025,-9.6502,-9.6685,-9.6685,-9.6685,-9.6685,-9.6685,-8.7555,-8.7254,-8.7099,-8.7787,-8.7427,-8.7064,-8.6995,-8.6995,-8.6995,-8.6995,-8.6995,-8.6995,-8.6995,-8.6995,-8.6995,-8.6995,-8.6995,-8.6995,-8.6995,-8.6995,-8.6995,-8.6995,-8.6995,-8.6995,-8.6995,-8.6995,-8.6995,-8.6995,-8.6995,-8.6995,-8.6995,-8.6995,-8.6995,-8.6995,-8.6995,-8.6995,-8.6995,-8.6995,-8.6995,-8.6995,-8.6995,-8.6995,-8.6995,-8.6995,-8.6995,-8.6995,-8.6995,-8.6995,-8.6995,-8.6995,-8.6995,-8.6995,-8.6995,-8.6995,-8.6995,-8.6995,-8.6995,-8.6995,-8.6995,-8.6995,-8.6995,-8.6995,-8.6995,-8.6995,-8.6995,-8.6995,-8.6995,-8.6995,-8.6995,-8.6995,-8.6995,-8.6995,-8.6995,-8.6995,-8.6995,-8.6995,-8.6995,-8.6995,-8.6995,-8.6995,-8.6995,-8.7031,-8.7105,-8.7178,-8.7545,-8.8353,-8.9784,-9.0629,-9.0702,-9.14,-9.1803,-9.1803,-9.1803,-9.1803,-9.1803,-9.1803,-9.1803,-9.1803,-9.1803,-9.1803,-9.1803,-9.1877,-9.2354,-9.3125,-9.3272,-9.4153,-9.5511,-9.5584,-9.6061,-9.6685,-9.6685,-9.6685,-9.6685,-9.6685,-9.6685,-9.6685,-8.8503,-8.8429,-8.8276,-8.7954,-8.781,-8.7558,-8.7064,-8.6995,-8.6995,-8.6995,-8.6995,-8.6995,-8.6995,-8.6995,-8.6995,-8.6995,-8.6995,-8.6995,-8.6995,-8.6995,-8.6995,-8.6995,-8.6995,-8.6995,-8.6995,-8.6995,-8.6995,-8.6995,-8.6995,-8.6995,-8.6995,-8.6995,-8.6995,-8.6995,-8.6995,-8.6995,-8.6995,-8.6995,-8.6995,-8.6995,-8.6995,-8.6995,-8.6995,-8.6995,-8.6995,-8.6995,-8.6995,-8.6995,-8.6995,-8.6995,-8.6995,-8.6995,-8.6995,-8.6995,-8.6995,-8.6995,-8.6995,-8.6995,-8.6995,-8.6995,-8.6995,-8.6995,-8.6995,-8.6995,-8.6995,-8.6995,-8.6995,-8.6995,-8.6995,-8.6995,-8.6995,-8.6995,-8.6995,-8.6995,-8.6995,-8.6995,-8.6995,-8.6995,-8.6995,-8.6995,-8.6995,-8.7252,-8.7876,-8.8536,-8.9234,-9.0041,-9.0408,-9.0886,-9.151,-9.1693,-9.1803,-9.1803,-9.1803,-9.1803,-9.1803,-9.1803,-9.1803,-9.1803,-9.1803,-9.1803,-9.1803,-9.2501,-9.2941,-9.3161,-9.4446,-9.518,-9.5547,-9.6171,-9.6539,-9.6685,-9.6685,-9.6685,-9.6685,-9.6685,-9.6685,-9.6685,-8.9246,-8.8996,-8.8607,-8.7991,-8.7651,-8.7361,-8.7029,-8.6995,-8.6995,-8.6995,-8.6995,-8.6995,-8.6995,-8.6995,-8.6995,-8.6995,-8.6995,-8.6995,-8.6995,-8.6995,-8.6995,-8.6995,-8.6995,-8.6995,-8.6995,-8.6995,-8.6995,-8.6995,-8.6995,-8.6995,-8.6995,-8.6995,-8.6995,-8.6995,-8.6995,-8.6995,-8.6995,-8.6995,-8.6995,-8.6995,-8.6995,-8.6995,-8.6995,-8.6995,-8.6995,-8.6995,-8.6995,-8.6995,-8.6995,-8.6995,-8.6995,-8.6995,-8.6995,-8.6995,-8.6995,-8.6995,-8.6995,-8.6995,-8.6995,-8.6995,-8.6995,-8.6995,-8.6995,-8.6995,-8.6995,-8.6995,-8.6995,-8.6995,-8.6995,-8.6995,-8.6995,-8.6995,-8.6995,-8.6995,-8.6995,-8.6995,-8.6995,-8.6995,-8.7142,-8.7545,-8.7582,-8.7912,-8.8683,-8.9528,-9.0152,-9.0592,-9.0959,-9.1363,-9.1767,-9.1803,-9.1803,-9.1803,-9.1803,-9.1803,-9.1803,-9.1803,-9.1803,-9.1803,-9.1803,-9.1803,-9.184,-9.2721,-9.3308,-9.3749,-9.496,-9.5731,-9.6098,-9.6539,-9.6685,-9.6685,-9.6685,-9.6685,-9.6685,-9.6685,-9.6685,-9.6685,-8.969,-8.9103,-8.8492,-8.7991,-8.7394,-8.6995,-8.6995,-8.6995,-8.6995,-8.6995,-8.6995,-8.6995,-8.6995,-8.6995,-8.6995,-8.6995,-8.6995,-8.6995,-8.6995,-8.6995,-8.6995,-8.6995,-8.6995,-8.6995,-8.6995,-8.6995,-8.6995,-8.6995,-8.6995,-8.6995,-8.6995,-8.6995,-8.6995,-8.6995,-8.6995,-8.6995,-8.6995,-8.6995,-8.6995,-8.6995,-8.6995,-8.6995,-8.6995,-8.6995,-8.6995,-8.6995,-8.6995,-8.6995,-8.6995,-8.6995,-8.6995,-8.6995,-8.6995,-8.6995,-8.6995,-8.6995,-8.6995,-8.6995,-8.6995,-8.6995,-8.6995,-8.6995,-8.6995,-8.6995,-8.6995,-8.6995,-8.6995,-8.6995,-8.6995,-8.6995,-8.6995,-8.6995,-8.6995,-8.6995,-8.6995,-8.7068,-8.7215,-8.7215,-8.7509,-8.8316,-8.8536,-8.8867,-8.9564,-9.0335,-9.0812,-9.0812,-9.1436,-9.1803,-9.1803,-9.1803,-9.1803,-9.1803,-9.1803,-9.1803,-9.1803,-9.1803,-9.1803,-9.1803,-9.195,-9.2024,-9.206,-9.2905,-9.3749,-9.4556,-9.5364,-9.6098,-9.6685,-9.6685,-9.6685,-9.6685,-9.6685,-9.6685,-9.6685,-9.6685,-9.6685,-9.6685,-8.9616,-8.8776,-8.7991,-8.7898,-8.7394,-8.6995,-8.6995,-8.6995,-8.6995,-8.6995,-8.6995,-8.6995,-8.6995,-8.6995,-8.6995,-8.6995,-8.6995,-8.6995,-8.6995,-8.6995,-8.6995,-8.6995,-8.6995,-8.6995,-8.6995,-8.6995,-8.6995,-8.6995,-8.6995,-8.6995,-8.6995,-8.6995,-8.6995,-8.6995,-8.6995,-8.6995,-8.6995,-8.6995,-8.6995,-8.6995,-8.6995,-8.6995,-8.6995,-8.6995,-8.6995,-8.6995,-8.6995,-8.6995,-8.6995,-8.6995,-8.6995,-8.6995,-8.6995,-8.6995,-8.6995,-8.6995,-8.6995,-8.6995,-8.6995,-8.6995,-8.6995,-8.6995,-8.6995,-8.6995,-8.6995,-8.6995,-8.6995,-8.6995,-8.6995,-8.6995,-8.6995,-8.6995,-8.6995,-8.6995,-8.6995,-8.7252,-8.7949,-8.8059,-8.8353,-8.916,-8.9858,-9.0335,-9.0445,-9.1179,-9.1657,-9.1657,-9.173,-9.1803,-9.1803,-9.1803,-9.1803,-9.1803,-9.1803,-9.1803,-9.1803,-9.1803,-9.1803,-9.1803,-9.2574,-9.2941,-9.2941,-9.3749,-9.4593,-9.5401,-9.6208,-9.6612,-9.6685,-9.6685,-9.6685,-9.6685,-9.6685,-9.6685,-9.6685,-9.6685,-9.6685,-9.6685,-8.8776,-8.8294,-8.781,-8.746,-8.7163,-8.6995,-8.6995,-8.6995,-8.6995,-8.6995,-8.6995,-8.6995,-8.6995,-8.6995,-8.6995,-8.6995,-8.6995,-8.6995,-8.6995,-8.6995,-8.6995,-8.6995,-8.6995,-8.6995,-8.6995,-8.6995,-8.6995,-8.6995,-8.6995,-8.6995,-8.6995,-8.6995,-8.6995,-8.6995,-8.6995,-8.6995,-8.6995,-8.6995,-8.6995,-8.6995,-8.6995,-8.6995,-8.6995,-8.6995,-8.6995,-8.6995,-8.6995,-8.6995,-8.6995,-8.6995,-8.6995,-8.6995,-8.6995,-8.6995,-8.6995,-8.6995,-8.6995,-8.6995,-8.6995,-8.6995,-8.6995,-8.6995,-8.7362,-8.7655,-8.7655,-8.8023,-8.8096,-8.7215,-8.6995,-8.6995,-8.6995,-8.7362,-8.7655,-8.7655,-8.8059,-8.8463,-8.883,-8.8867,-8.9197,-8.9968,-9.0776,-9.1253,-9.1253,-9.1583,-9.1803,-9.1803,-9.1803,-9.1803,-9.1803,-9.1803,-9.1803,-9.1803,-9.1803,-9.1803,-9.1803,-9.1803,-9.2024,-9.2537,-9.2941,-9.3088,-9.3161,-9.441,-9.518,-9.5547,-9.6355,-9.6685,-9.6685,-9.6685,-9.6685,-9.6685,-9.6685,-9.6685,-9.6685,-9.6685,-9.6685,-9.6685]},{"header":{"parameterUnit":"m.s-1","parameterCategory":1,"la1":30.6,"la2":28.766,"lo1":-90.7593,"lo2":-88.6598,"dx":0.0162,"dy":0.0183,"nx":116,"ny":114,"refTime":"2023-02-11T06:00:00:Z","depth":0,"parameterNumber":3,"parameterNumberName":"V-component_of_WINDS"},"data":[0.0,0.0,0.0,0.0,0.0,0.0,0.0,0.0,0.0,0.0,0.0,0.0,0.0,0.0,0.0,0.0,0.0,0.0,0.0,0.0,0.0,0.0,0.0,0.0,0.0,0.0,0.0,0.0,0.0,0.0,0.0,0.0,0.0,0.0,0.0,0.0,0.0,0.0,0.0,0.0,0.0,0.0,0.0,0.0,0.0,0.0,0.0,0.0,0.0,0.0,0.0,0.0,0.0,0.0,0.0,0.0,0.0,0.0,0.0,0.0,0.0,0.0,0.0,0.0,0.0,0.0,0.0,0.0,0.0,0.0,0.0,0.0,0.0,0.0,0.0,0.0,0.0,0.0,0.0,0.0,0.0,0.0,0.0,0.0,0.0,0.0,0.0,0.0,0.0,0.0,0.0,0.0,0.0,0.0,0.0,0.0,0.0,0.0,0.0,0.0,0.0,0.0,0.0,0.0,0.0,0.0,0.0,0.0,0.0,0.0,0.0,0.0,0.0,0.0,0.0,0.0,0.0,0.0,0.0,0.0,0.0,0.0,0.0,0.0,0.0,0.0,0.0,0.0,0.0,0.0,0.0,0.0,0.0,0.0,0.0,0.0,0.0,0.0,0.0,0.0,0.0,0.0,0.0,0.0,0.0,0.0,0.0,0.0,0.0,0.0,0.0,0.0,0.0,0.0,0.0,0.0,0.0,0.0,0.0,0.0,0.0,0.0,0.0,0.0,0.0,0.0,0.0,0.0,0.0,0.0,0.0,0.0,0.0,0.0,0.0,0.0,0.0,0.0,0.0,0.0,0.0,0.0,0.0,0.0,0.0,0.0,0.0,0.0,0.0,0.0,0.0,0.0,0.0,0.0,0.0,0.0,0.0,0.0,0.0,0.0,0.0,0.0,0.0,0.0,0.0,0.0,0.0,0.0,0.0,0.0,0.0,0.0,0.0,0.0,0.0,0.0,0.0,0.0,0.0,0.0,0.0,0.0,0.0,0.0,0.0,0.0,0.0,0.0,0.0,0.0,0.0,0.0,0.0,0.0,0.0,0.0,0.0,0.0,0.0,0.0,0.0,0.0,0.0,0.0,0.0,0.0,0.0,0.0,0.0,0.0,0.0,0.0,0.0,0.0,0.0,0.0,0.0,0.0,0.0,0.0,0.0,0.0,0.0,0.0,0.0,0.0,0.0,0.0,0.0,0.0,0.0,0.0,0.0,0.0,0.0,0.0,0.0,0.0,0.0,0.0,0.0,0.0,0.0,0.0,0.0,0.0,0.0,0.0,0.0,0.0,0.0,0.0,0.0,0.0,0.0,0.0,0.0,0.0,0.0,0.0,0.0,0.0,0.0,0.0,0.0,0.0,0.0,0.0,0.0,0.0,0.0,0.0,0.0,0.0,0.0,0.0,0.0,0.0,0.0,0.0,0.0,0.0,0.0,0.0,0.0,0.0,0.0,0.0,0.0,0.0,0.0,0.0,0.0,0.0,0.0,0.0,0.0,0.0,0.0,0.0,0.0,0.0,0.0,0.0,0.0,0.0,0.0,0.0,0.0,0.0,0.0,0.0,0.0,0.0,0.0,0.0,0.0,0.0,0.0,0.0,0.0,0.0,0.0,0.0,0.0,0.0,0.0,0.0,0.0,0.0,0.0,0.0,0.0,0.0,0.0,0.0,0.0,0.0,0.0,0.0,0.0,0.0,0.0,0.0,0.0,0.0,0.0,0.0,0.0,0.0,0.0,0.0,0.0,0.0,0.0,0.0,0.0,0.0,0.0,0.0,0.0,0.0,0.0,0.0,0.0,0.0,0.0,0.0,0.0,0.0,0.0,0.0,0.0,0.0,0.0,0.0,0.0,0.0,0.0,0.0,0.0,0.0,0.0,0.0,0.0,0.0,0.0,0.0,0.0,0.0,0.0,0.0,0.0,0.0,0.0,0.0,0.0,0.0,0.0,0.0,0.0,0.0,0.0,0.0,0.0,0.0,0.0,0.0,0.0,0.0,0.0,0.0,0.0,0.0,0.0,0.0,0.0,0.0,0.0,0.0,0.0,0.0,0.0,0.0,0.0,0.0,0.0,0.0,0.0,0.0,0.0,0.0,0.0,0.0,0.0,0.0,0.0,0.0,0.0,0.0,0.0,0.0,0.0,0.0,0.0,0.0,0.0,0.0,0.0,0.0,0.0,0.0,0.0,0.0,0.0,0.0,0.0,0.0,0.0,0.0,0.0,0.0,0.0,0.0,0.0,0.0,0.0,0.0,0.0,0.0,0.0,0.0,0.0,0.0,0.0,0.0,0.0,0.0,0.0,0.0,0.0,0.0,0.0,0.0,0.0,0.0,0.0,0.0,0.0,0.0,0.0,0.0,0.0,0.0,0.0,0.0,0.0,0.0,0.0,0.0,0.0,0.0,0.0,0.0,0.0,0.0,0.0,0.0,0.0,0.0,0.0,0.0,0.0,0.0,0.0,0.0,0.0,0.0,0.0,0.0,0.0,0.0,0.0,0.0,0.0,0.0,0.0,0.0,0.0,0.0,0.0,0.0,0.0,0.0,0.0,0.0,0.0,0.0,0.0,0.0,0.0,0.0,0.0,0.0,0.0,0.0,0.0,0.0,0.0,0.0,0.0,0.0,0.0,0.0,0.0,0.0,0.0,0.0,0.0,0.0,0.0,0.0,0.0,0.0,0.0,0.0,0.0,0.0,0.0,0.0,0.0,0.0,0.0,0.0,0.0,0.0,0.0,0.0,0.0,0.0,0.0,0.0,0.0,0.0,0.0,0.0,0.0,0.0,0.0,0.0,0.0,0.0,0.0,0.0,0.0,0.0,0.0,0.0,0.0,0.0,0.0,0.0,0.0,0.0,0.0,0.0,0.0,0.0,0.0,0.0,0.0,0.0,0.0,0.0,0.0,0.0,0.0,0.0,0.0,0.0,0.0,0.0,0.0,0.0,0.0,0.0,0.0,0.0,0.0,0.0,0.0,0.0,0.0,0.0,0.0,0.0,0.0,0.0,0.0,0.0,0.0,0.0,0.0,0.0,0.0,0.0,0.0,0.0,0.0,0.0,0.0,0.0,0.0,0.0,0.0,0.0,0.0,0.0,0.0,0.0,0.0,0.0,0.0,0.0,0.0,0.0,0.0,0.0,0.0,0.0,0.0,0.0,0.0,0.0,0.0,0.0,0.0,0.0,0.0,0.0,0.0,0.0,0.0,0.0,0.0,0.0,0.0,0.0,0.0,0.0,0.0,0.0,0.0,0.0,0.0,0.0,0.0,0.0,0.0,0.0,0.0,0.0,0.0,0.0,0.0,0.0,0.0,0.0,0.0,0.0,0.0,0.0,0.0,0.0,0.0,0.0,0.0,0.0,0.0,0.0,0.0,0.0,0.0,0.0,0.0,0.0,0.0,0.0,0.0,0.0,0.0,0.0,0.0,0.0,0.0,0.0,0.0,0.0,0.0,0.0,0.0,0.0,0.0,0.0,0.0,0.0,0.0,0.0,0.0,0.0,0.0,0.0,0.0,0.0,0.0,0.0,0.0,0.0,0.0,0.0,0.0,0.0,0.0,0.0,0.0,0.0,0.0,0.0,0.0,0.0,0.0,0.0,0.0,0.0,0.0,0.0,0.0,0.0,0.0,0.0,0.0,0.0,0.0,0.0,0.0,0.0,0.0,0.0,0.0,0.0,0.0,0.0,0.0,0.0,0.0,0.0,0.0,0.0,0.0,0.0,0.0,0.0,0.0,0.0,0.0,0.0,0.0,0.0,0.0,0.0,0.0,0.0,0.0,0.0,0.0,0.0,0.0,0.0,0.0,0.0,0.0,0.0,0.0,0.0,0.0,0.0,0.0,0.0,0.0,0.0,0.0,0.0,0.0,0.0,0.0,0.0,0.0,0.0,0.0,0.0,0.0,0.0,0.0,0.0,0.0,0.0,0.0,0.0,0.0,0.0,0.0,0.0,0.0,0.0,0.0,0.0,0.0,0.0,0.0,0.0,0.0,0.0,0.0,0.0,0.0,0.0,0.0,0.0,0.0,0.0,0.0,0.0,0.0,0.0,0.0,0.0,0.0,0.0,0.0,0.0,0.0,0.0,0.0,0.0,0.0,0.0,0.0,0.0,0.0,0.0,0.0,0.0,0.0,0.0,0.0,0.0,0.0,0.0,0.0,0.0,0.0,0.0,0.0,0.0,0.0,0.0,0.0,0.0,0.0,0.0,0.0,0.0,0.0,0.0,0.0,0.0,0.0,0.0,0.0,0.0,0.0,0.0,0.0,0.0,0.0,0.0,0.0,0.0,0.0,0.0,0.0,0.0,0.0,0.0,0.0,0.0,0.0,0.0,0.0,0.0,0.0,0.0,0.0,0.0,0.0,0.0,0.0,0.0,0.0,0.0,0.0,0.0,0.0,0.0,0.0,0.0,0.0,0.0,0.0,0.0,0.0,0.0,0.0,0.0,0.0,0.0,0.0,0.0,0.0,0.0,0.0,0.0,0.0,0.0,0.0,0.0,0.0,0.0,0.0,0.0,0.0,0.0,0.0,0.0,0.0,0.0,0.0,0.0,0.0,0.0,0.0,0.0,0.0,0.0,0.0,0.0,0.0,0.0,0.0,0.0,0.0,0.0,0.0,0.0,0.0,0.0,0.0,0.0,0.0,0.0,0.0,0.0,0.0,0.0,0.0,0.0,0.0,0.0,0.0,0.0,0.0,0.0,0.0,0.0,0.0,0.0,0.0,0.0,0.0,0.0,0.0,0.0,0.0,0.0,0.0,0.0,0.0,0.0,0.0,0.0,0.0,0.0,0.0,0.0,0.0,0.0,0.0,0.0,0.0,0.0,0.0,0.0,0.0,0.0,0.0,0.0,0.0,0.0,0.0,0.0,0.0,0.0,0.0,0.0,0.0,0.0,0.0,0.0,0.0,0.0,0.0,0.0,0.0,0.0,0.0,0.0,0.0,0.0,0.0,0.0,0.0,0.0,0.0,0.0,0.0,0.0,0.0,0.0,0.0,0.0,0.0,0.0,0.0,0.0,0.0,0.0,0.0,0.0,0.0,0.0,0.0,0.0,0.0,0.0,0.0,0.0,0.0,0.0,0.0,0.0,0.0,0.0,0.0,0.0,0.0,0.0,0.0,0.0,0.0,0.0,0.0,0.0,0.0,0.0,0.0,0.0,0.0,0.0,0.0,0.0,0.0,0.0,0.0,0.0,0.0,0.0,0.0,0.0,0.0,0.0,0.0,0.0,0.0,0.0,0.0,0.0,0.0,0.0,0.0,0.0,0.0,0.0,0.0,0.0,0.0,0.0,0.0,0.0,0.0,0.0,0.0,0.0,0.0,0.0,0.0,0.0,0.0,0.0,0.0,0.0,0.0,0.0,0.0,0.0,0.0,0.0,0.0,0.0,0.0,0.0,0.0,0.0,0.0,0.0,0.0,0.0,0.0,0.0,0.0,0.0,0.0,0.0,0.0,0.0,0.0,0.0,0.0,0.0,0.0,0.0,0.0,0.0,0.0,0.0,0.0,0.0,0.0,0.0,0.0,0.0,0.0,0.0,0.0,0.0,0.0,0.0,0.0,0.0,0.0,0.0,0.0,0.0,0.0,0.0,0.0,0.0,0.0,0.0,0.0,0.0,0.0,0.0,0.0,0.0,0.0,0.0,0.0,0.0,0.0,0.0,0.0,0.0,0.0,0.0,0.0,0.0,0.0,0.0,0.0,0.0,0.0,0.0,0.0,0.0,0.0,0.0,0.0,0.0,0.0,0.0,0.0,0.0,0.0,0.0,0.0,0.0,0.0,0.0,0.0,0.0,0.0,0.0,0.0,0.0,0.0,0.0,0.0,0.0,0.0,0.0,0.0,0.0,0.0,0.0,0.0,0.0,0.0,0.0,0.0,0.0,0.0,0.0,0.0,0.0,0.0,0.0,0.0,0.0,0.0,0.0,0.0,0.0,0.0,0.0,0.0,0.0,0.0,0.0,0.0,0.0,0.0,0.0,0.0,0.0,0.0,0.0,0.0,0.0,0.0,0.0,0.0,0.0,0.0,0.0,0.0,0.0,0.0,0.0,0.0,0.0,0.0,0.0,0.0,0.0,0.0,0.0,0.0,0.0,0.0,0.0,1.7374,0.0,0.0,0.0,0.0,0.0,0.0,0.0,0.0,0.0,0.0,0.0,0.0,0.0,0.0,0.0,0.0,0.0,0.0,0.0,0.0,0.0,0.0,0.0,0.0,0.0,0.0,0.0,0.0,0.0,0.0,0.0,0.0,0.0,0.0,0.0,0.0,0.0,0.0,0.0,1.4988,1.4836,1.4296,1.471,1.5209,1.5796,0.0,0.0,0.0,0.0,0.0,0.0,0.0,0.0,0.0,0.0,0.0,0.0,0.0,0.0,0.0,0.0,0.0,0.0,0.0,0.0,0.0,0.0,0.0,0.0,0.0,0.0,0.0,0.0,0.0,0.0,0.0,0.0,0.0,0.0,0.0,0.0,0.0,0.0,0.0,0.0,0.0,0.0,0.0,0.0,0.0,0.0,0.0,0.0,0.0,0.0,0.0,0.0,0.0,0.0,0.0,0.0,0.0,0.0,0.0,0.0,0.0,0.0,0.0,0.0,0.0,0.0,0.0,0.0,0.0,0.0,0.0,1.8705,0.0,0.0,0.0,0.0,0.0,0.0,0.0,0.0,0.0,0.0,0.0,0.0,0.0,0.0,0.0,0.0,0.0,0.0,0.0,0.0,0.0,0.0,0.0,0.0,0.0,0.0,0.0,0.0,0.0,0.0,0.0,0.0,0.0,0.0,0.0,0.0,0.0,0.0,1.4737,1.4655,1.4563,1.4173,1.4484,1.5431,1.5554,0.0,0.0,0.0,0.0,0.0,0.0,0.0,0.0,0.0,0.0,0.0,0.0,0.0,0.0,0.0,0.0,0.0,0.0,0.0,0.0,0.0,0.0,0.0,0.0,0.0,0.0,0.0,0.0,0.0,0.0,0.0,0.0,0.0,0.0,0.0,0.0,0.0,0.0,0.0,0.0,0.0,0.0,0.0,0.0,0.0,0.0,0.0,0.0,0.0,0.0,0.0,0.0,0.0,0.0,0.0,0.0,0.0,0.0,0.0,0.0,0.0,0.0,0.0,1.6814,1.7749,1.9351,1.7805,1.8322,2.0385,2.0385,2.1078,2.2105,0.0,0.0,0.0,0.0,0.0,0.0,0.0,0.0,0.0,0.0,0.0,0.0,0.0,0.0,0.0,0.0,0.0,0.0,0.0,0.0,0.0,0.0,0.0,0.0,0.0,0.0,0.0,0.0,0.0,0.0,0.0,0.0,0.0,0.0,1.4592,1.4438,1.4515,1.3737,1.3752,1.44,1.3929,1.4245,1.5057,1.4995,1.5305,1.5764,0.0,0.0,0.0,0.0,0.0,0.0,0.0,0.0,0.0,0.0,0.0,0.0,0.0,0.0,0.0,0.0,0.0,0.0,0.0,0.0,0.0,0.0,0.0,0.0,0.0,0.0,0.0,0.0,0.0,0.0,0.0,0.0,0.0,0.0,0.0,0.0,0.0,0.0,0.0,0.0,0.0,1.4465,1.3728,0.0,0.0,0.0,0.0,0.0,0.0,0.0,0.0,0.0,0.0,0.0,0.0,0.0,1.6657,1.6725,1.6733,1.6909,1.708,1.708,1.7175,1.7455,1.72,1.9012,2.2277,2.2277,0.0,2.0298,2.0298,0.0,0.0,0.0,0.0,0.0,0.0,0.0,0.0,0.0,0.0,0.0,0.0,0.0,0.0,0.0,0.0,0.0,0.0,0.0,0.0,0.0,0.0,0.0,0.0,0.0,0.0,0.0,0.0,0.0,0.0,0.0,0.0,1.4968,1.4592,1.4284,1.3975,1.359,1.366,1.3975,1.3821,1.4053,1.4676,1.4594,1.4916,1.548,1.561,0.0,0.0,0.0,0.0,0.0,0.0,0.0,0.0,0.0,0.0,0.0,0.0,0.0,0.0,0.0,0.0,0.0,0.0,0.0,0.0,0.0,0.0,0.0,0.0,0.0,0.0,0.0,0.0,0.0,0.0,0.0,0.0,0.0,0.0,0.0,0.0,0.0,0.0,0.0,1.4638,1.4426,1.4605,1.4946,1.5317,0.0,0.0,0.0,0.0,0.0,0.0,0.0,0.0,0.0,1.673,1.6828,1.6917,1.6998,1.6998,1.7039,1.7112,1.8147,1.9177,2.0211,2.0211,2.1673,2.4092,2.3052,2.2708,2.3052,2.4092,2.4434,2.4263,0.0,0.0,0.0,0.0,2.5726,2.5726,0.0,0.0,0.0,0.0,0.0,0.0,0.0,0.0,0.0,0.0,0.0,0.0,0.0,0.0,0.0,1.2888,0.0,0.0,0.0,0.0,0.0,0.0,0.0,1.4968,1.4968,1.4515,1.3975,1.359,1.3428,1.3505,1.3667,1.359,1.3821,1.4368,1.4368,1.4687,1.5252,1.5472,1.5569,0.0,0.0,0.0,0.0,0.0,0.0,0.0,0.0,0.0,0.0,0.0,0.0,0.0,0.0,0.0,0.0,0.0,0.0,0.0,0.0,0.0,0.0,0.0,0.0,0.0,0.0,0.0,0.0,0.0,0.0,0.0,0.0,0.0,0.0,0.0,0.0,0.0,0.0,1.4931,1.4816,1.544,1.5455,1.567,0.0,0.0,0.0,0.0,0.0,0.0,1.6649,1.682,1.6917,1.6917,1.7047,1.7112,1.7112,1.7112,1.7112,1.7112,1.8497,1.9873,2.1165,2.1165,2.2449,2.4605,2.3223,2.3909,2.6151,2.7109,2.6927,2.6248,2.763,2.7363,2.6333,2.7714,2.8221,2.8221,0.0,0.0,0.0,0.0,0.0,0.0,0.0,0.0,0.0,0.0,0.0,0.0,0.0,0.0,1.2501,1.2501,1.2888,1.312,0.0,0.0,0.0,0.0,0.0,1.4968,1.4968,1.4199,1.3513,1.312,1.2733,1.2965,1.3667,1.3274,1.359,1.4368,1.4368,1.4687,1.5228,1.5074,1.5301,1.5731,0.0,0.0,0.0,0.0,0.0,0.0,0.0,0.0,0.0,0.0,0.0,0.0,0.0,0.0,0.0,0.0,0.0,0.0,0.0,0.0,0.0,0.0,0.0,0.0,0.0,0.0,0.0,0.0,0.0,0.0,0.0,0.0,0.0,0.0,0.0,0.0,0.0,0.0,0.0,1.5376,1.6057,0.0,0.0,0.0,0.0,1.6584,1.6738,1.675,1.675,1.7006,1.7096,1.7096,1.7104,1.7112,1.7112,1.7112,1.7112,1.7112,1.72,1.7288,1.7367,1.7367,1.9351,2.2708,2.2622,2.4691,2.7968,2.6236,2.6503,2.8052,2.8136,2.8136,2.8052,2.8136,2.8221,2.8221,0.0,0.0,0.0,0.0,0.0,0.0,0.0,0.0,0.0,0.0,0.0,0.0,0.0,1.2501,1.2501,1.2501,1.2656,1.2811,1.3042,0.0,0.0,0.0,0.0,1.4737,1.4199,1.3583,1.312,1.2733,1.2811,1.3042,1.3351,1.3744,1.413,1.4446,1.4669,1.4855,1.5065,1.5122,1.5187,1.5277,1.5496,1.5561,0.0,0.0,0.0,0.0,0.0,0.0,0.0,0.0,0.0,0.0,0.0,0.0,0.0,0.0,0.0,0.0,0.0,0.0,0.0,0.0,0.0,0.0,0.0,0.0,0.0,0.0,0.0,0.0,0.0,0.0,0.0,0.0,0.0,0.0,0.0,0.0,0.0,1.6231,1.6325,0.0,1.6649,1.683,1.6925,1.6925,1.6982,1.7015,1.7015,1.708,1.7112,1.7112,1.7112,1.7112,1.7112,1.7112,1.7112,1.7112,1.8322,1.8925,1.9012,2.1338,2.3137,2.4434,2.4434,2.5811,2.8052,2.6151,2.6503,2.8221,2.8221,2.8221,2.8221,2.8221,2.8221,2.8221,0.0,0.0,0.0,0.0,0.0,0.0,0.0,0.0,0.0,0.0,0.0,1.2501,1.2501,1.2501,1.2501,1.2501,1.2501,1.2656,1.3042,0.0,0.0,0.0,1.443,1.4199,1.3505,1.3274,1.2965,1.2733,1.2811,1.3042,1.3274,1.3744,1.413,1.4446,1.4669,1.4891,1.4976,1.5098,1.5114,1.509,1.5447,1.552,1.5455,0.0,0.0,0.0,0.0,0.0,0.0,0.0,0.0,0.0,0.0,0.0,0.0,0.0,0.0,0.0,0.0,0.0,0.0,0.0,0.0,0.0,0.0,0.0,0.0,0.0,0.0,0.0,0.0,0.0,0.0,0.0,0.0,0.0,0.0,0.0,1.6458,1.6838,1.6673,1.6633,1.7096,1.7112,1.7112,1.7112,1.7112,1.7112,1.7112,1.7112,1.7112,1.7112,1.7112,1.7112,1.7112,1.7112,1.7112,1.7112,1.8322,1.8925,1.9012,2.1511,2.2966,2.3567,2.4178,2.5556,2.7194,2.6588,2.7109,2.8221,2.8221,2.8221,2.8221,2.8221,2.8221,2.8221,0.0,0.0,0.0,0.0,0.0,0.0,0.0,0.0,0.0,0.0,1.2501,1.2501,1.2501,1.2501,1.2501,1.2501,1.2501,1.2656,1.3042,1.312,0.0,0.0,1.3667,1.3505,1.312,1.312,1.3042,1.3042,1.2733,1.2888,1.3667,1.3274,1.359,1.4361,1.4446,1.4669,1.4968,1.4968,1.5065,1.515,1.5236,1.5447,1.5756,0.0,0.0,0.0,0.0,0.0,0.0,0.0,0.0,0.0,0.0,0.0,0.0,0.0,0.0,0.0,0.0,0.0,0.0,0.0,0.0,0.0,0.0,0.0,0.0,0.0,0.0,0.0,0.0,0.0,0.0,0.0,0.0,0.0,1.7112,1.7112,1.7112,1.7112,1.7112,1.7112,1.7112,1.7112,1.7112,1.7112,1.7112,1.7112,1.7112,1.7112,1.7112,1.7112,1.7112,1.7112,1.7112,1.7112,1.7112,1.7112,1.7112,1.7112,1.7112,1.72,1.8235,2.0134,2.1932,2.3738,2.5641,2.7363,2.815,2.8248,2.8234,2.8221,2.8221,2.8221,2.8221,2.8221,0.0,0.0,0.0,0.0,0.0,0.0,0.0,0.0,0.0,0.0,1.2501,1.2501,1.2501,1.2501,1.2501,1.2501,1.2501,1.2579,1.2656,0.0,0.0,0.0,1.3428,1.3197,1.312,1.2811,1.2656,1.2656,1.2888,1.2888,1.2888,1.3667,1.3975,1.3898,1.4584,1.4891,1.4968,1.4968,1.4992,1.5049,1.5187,1.5301,1.5415,0.0,0.0,0.0,0.0,0.0,0.0,0.0,0.0,0.0,0.0,0.0,0.0,0.0,0.0,0.0,0.0,0.0,0.0,0.0,0.0,0.0,0.0,0.0,0.0,0.0,0.0,0.0,0.0,0.0,0.0,0.0,1.7024,1.7024,1.6665,1.6928,1.7112,1.7112,1.7112,1.7112,1.7112,1.7112,1.7112,1.7112,1.7112,1.7112,1.7112,1.7112,1.7112,1.7112,1.7112,1.7112,1.7112,1.7112,1.7112,1.7112,1.7112,1.7112,1.72,1.9873,2.1338,2.1932,2.3824,2.5726,2.7363,2.6503,2.7055,2.8457,2.8315,2.8221,2.8221,2.8221,2.8221,2.8221,0.0,0.0,0.0,0.0,0.0,0.0,0.0,0.0,0.0,0.0,1.2501,1.2501,1.2501,1.2501,1.2501,1.2501,1.2501,1.2579,1.2733,0.0,0.0,0.0,1.2965,1.2888,1.2888,1.2656,1.2501,1.2501,1.2733,1.2811,1.2733,1.3667,1.4053,1.4053,1.4737,1.4968,1.4968,1.4968,1.4968,1.4984,1.5163,1.5285,1.5382,1.5666,1.5821,1.5902,1.6008,1.5966,1.5966,1.5966,0.0,0.0,0.0,0.0,0.0,0.0,0.0,0.0,0.0,0.0,0.0,0.0,0.0,0.0,0.0,0.0,0.0,0.0,0.0,0.0,0.0,0.0,0.0,0.0,1.7112,1.7024,1.6753,1.6928,1.7112,1.7112,1.7112,1.7112,1.7112,1.7112,1.7112,1.7112,1.7112,1.7112,1.7112,1.7112,1.7112,1.7112,1.7112,1.7112,1.7112,1.7112,1.7112,1.7112,1.7112,1.7543,1.8322,1.97,2.0732,0.0,2.3593,2.5027,2.6081,2.6634,2.7659,0.0,0.0,0.0,0.0,0.0,2.8524,2.8524,0.0,0.0,0.0,0.0,0.0,0.0,0.0,0.0,0.0,0.0,0.0,1.2549,1.2528,1.2528,1.2522,1.2501,1.2501,1.2656,0.0,0.0,0.0,1.2501,1.2501,1.2501,1.2501,1.2501,1.2501,1.2501,1.2579,1.2733,1.3042,1.3505,1.3898,1.4284,1.4661,1.4891,1.4968,1.4968,1.4968,1.4984,1.5163,1.535,1.5536,1.5707,1.5886,1.5966,1.5966,1.5966,1.5966,1.5966,0.0,0.0,0.0,0.0,0.0,0.0,0.0,0.0,0.0,0.0,0.0,0.0,0.0,0.0,0.0,0.0,0.0,0.0,0.0,0.0,0.0,0.0,0.0,0.0,1.7112,1.7112,1.7112,1.7112,1.7112,1.7112,1.7112,1.7112,1.7112,1.7112,1.7112,1.7112,1.7112,1.7112,1.7112,0.0,0.0,0.0,0.0,1.7112,1.7112,1.7112,1.7112,1.7112,1.7112,1.7972,1.9525,1.806,1.8331,2.0095,2.2368,2.3436,2.3742,2.7421,2.9058,2.9058,2.8764,2.8818,2.9045,2.9045,2.9045,0.0,0.0,0.0,0.0,0.0,0.0,0.0,0.0,0.0,0.0,1.2874,1.2874,1.2827,1.2698,1.2684,1.2637,1.2515,1.2501,1.2501,0.0,0.0,1.2579,1.2501,1.2501,1.2501,1.2501,1.2501,1.2501,1.2501,1.2811,1.2888,1.2656,1.3351,1.359,1.3358,1.3737,1.413,1.4515,1.4515,1.4669,1.4984,1.5163,1.535,1.5536,1.5707,1.5886,1.5966,1.5966,1.5966,1.5966,1.5966,1.5966,1.5966,1.5966,1.5966,0.0,0.0,0.0,0.0,0.0,0.0,0.0,0.0,0.0,0.0,0.0,0.0,0.0,0.0,0.0,0.0,0.0,0.0,0.0,1.7112,1.7112,1.7112,1.7112,1.7112,1.7112,1.7112,1.7112,1.7112,1.7112,1.7112,1.7112,1.7112,1.7112,1.7112,1.7112,1.7112,1.7112,1.7112,1.7112,1.7112,1.7112,1.7112,1.7112,1.7112,0.0,0.0,1.7718,1.8837,1.9618,2.0217,2.374,2.537,2.5671,2.8034,2.9179,2.9366,2.9072,2.8991,2.9045,2.9045,2.9045,2.9045,0.0,0.0,0.0,0.0,0.0,0.0,0.0,0.0,0.0,0.0,1.2963,1.2929,1.2854,1.2779,1.2698,1.2623,1.2549,0.0,0.0,1.2501,1.2501,1.2501,1.2501,1.2501,1.2501,1.2501,1.2501,1.2501,1.2733,1.2733,1.2501,1.312,1.3274,1.312,1.3505,1.3821,1.4053,1.4053,1.433,1.4804,1.4987,1.5321,1.565,1.574,1.5886,1.5966,1.5966,1.5966,1.5966,1.5966,1.5966,1.5966,1.5793,1.5883,1.5966,0.0,0.0,0.0,0.0,0.0,0.0,0.0,0.0,0.0,0.0,0.0,0.0,0.0,0.0,1.7112,1.7112,0.0,1.7112,1.7112,1.7112,1.7112,1.7112,1.7112,1.7112,1.7112,1.7112,1.7112,1.7112,1.7112,1.7112,1.7112,1.7112,1.7112,1.7112,1.7112,1.7112,1.7112,1.7112,1.7112,1.7112,1.7112,1.7112,1.7112,1.7112,1.7593,1.8638,1.8646,1.9795,2.1845,2.3898,2.5448,2.6576,2.8611,2.9566,2.9686,2.9539,2.9472,2.9472,2.9472,2.9472,2.9472,0.0,0.0,0.0,0.0,0.0,0.0,0.0,0.0,0.0,0.0,1.3051,1.3037,1.3003,1.2888,1.2807,0.0,0.0,0.0,0.0,1.2589,1.2589,1.2589,1.2589,1.2576,1.2549,1.2549,1.2528,1.2501,1.2501,1.2501,1.2501,1.2811,1.2965,1.2965,1.3351,1.3527,1.3634,1.3634,1.3956,1.4515,1.4772,1.5168,1.5699,1.5731,1.5837,1.5966,1.5966,1.5966,1.5966,1.5966,1.5966,1.5966,1.5628,1.5711,1.5966,1.5628,1.5711,0.0,0.0,0.0,0.0,0.0,0.0,0.0,0.0,1.7112,1.7112,1.7112,1.7112,1.7112,1.7112,1.7112,1.7112,1.7112,1.7112,1.7112,1.7112,1.7112,1.7112,1.7112,1.7112,1.7112,1.7112,1.7112,1.7112,1.7112,1.7112,1.7112,1.7112,1.7112,1.7112,1.7112,1.7112,1.7112,1.7112,1.7112,1.7112,1.7112,1.7145,1.8021,1.9496,1.8127,1.9392,2.2883,2.3925,2.5487,2.7494,2.918,2.9913,2.9913,2.9913,2.9913,2.9913,2.9913,2.9913,2.9913,0.0,0.0,0.0,0.0,0.0,0.0,0.0,0.0,0.0,0.0,0.0,0.0,0.0,0.0,0.0,0.0,0.0,0.0,1.2908,1.2908,1.2908,1.2908,1.2908,1.2847,1.2705,1.2705,1.2637,1.2501,1.2501,1.2501,1.2501,1.2579,1.2579,1.2579,1.2579,1.2887,1.3333,1.3333,1.3663,1.4294,1.4466,1.4792,1.5228,1.5377,1.5695,1.5966,1.5966,1.5966,1.5966,1.5966,1.5966,1.5966,1.5966,1.5966,1.5966,1.5966,1.5966,1.5966,1.5966,1.617,1.6389,1.6763,1.6766,1.6814,0.0,1.7112,1.7112,1.7112,1.7112,1.7112,1.7112,1.7112,1.7112,1.7112,1.7112,1.7112,1.7112,1.7112,1.7112,1.7112,1.7112,1.7112,1.7112,1.7112,1.7112,1.7112,1.7112,1.7112,1.7112,1.7112,1.7112,1.7112,1.7112,1.7112,1.7112,1.7112,1.7112,1.7112,1.7274,1.7453,1.7656,1.7633,1.8867,2.1316,2.4992,2.7755,2.9591,2.981,2.9913,2.9913,2.9913,2.9913,2.9913,2.9913,2.9913,2.9913,0.0,0.0,0.0,0.0,0.0,0.0,0.0,0.0,0.0,0.0,0.0,0.0,0.0,0.0,0.0,0.0,0.0,0.0,1.2963,1.2963,1.2963,1.2963,1.2963,1.2929,1.2868,1.2868,1.2834,1.2766,1.2766,1.2766,1.2766,1.2766,1.2766,1.2766,1.2766,1.2886,1.3106,1.3106,1.3429,1.3974,1.4047,1.4371,1.487,1.4938,1.5133,1.5298,1.5801,1.5966,0.0,0.0,1.5966,1.5966,1.5719,1.5793,1.5966,1.5719,1.5801,1.5966,1.5966,1.6097,1.6243,1.66,1.669,1.6771,1.7047,1.7112,1.7112,1.7112,1.7112,1.7112,1.7112,1.7112,1.7112,1.7112,1.7112,1.7112,1.7112,1.7112,1.7112,1.7112,1.7112,1.7112,1.7112,1.7112,1.7112,1.7112,1.7112,1.7112,1.7112,1.7112,1.7112,1.7112,1.7112,1.7112,1.7112,1.7112,1.7161,1.7274,1.7348,1.7494,1.7697,1.777,1.9523,2.281,2.5741,2.7431,2.8166,2.6979,2.716,2.8166,2.8166,2.8899,2.9913,2.9913,2.9913,2.9913,0.0,0.0,0.0,0.0,0.0,0.0,0.0,0.0,0.0,0.0,0.0,0.0,0.0,0.0,0.0,0.0,0.0,0.0,0.0,1.3085,1.3085,1.3085,1.3085,1.3064,1.3024,1.3097,1.3003,1.2963,1.2963,1.2963,1.2963,1.2963,1.2963,1.2963,1.2963,1.2983,1.3097,1.3097,1.3267,1.3725,1.3725,1.4042,1.4555,1.4555,1.4721,1.4961,1.5628,1.5801,0.0,0.0,1.5966,1.5966,1.5628,1.5801,1.5966,1.5628,1.5801,1.5966,1.5966,1.5966,1.6129,1.6487,1.6584,1.6674,1.7031,1.7112,1.7112,1.7112,1.7112,1.7112,1.7112,1.7112,1.7112,1.7112,1.7112,1.7112,1.7112,1.7112,1.7112,1.7112,1.7112,1.7112,1.7112,1.7112,1.7112,1.7112,1.7112,1.7112,1.7112,1.7112,1.7112,1.7112,1.7112,1.7112,1.7112,1.7161,1.7258,1.7388,1.7486,1.7672,1.7916,1.8509,2.0428,2.3321,2.5332,2.615,2.606,2.5241,2.5696,2.7069,2.7612,2.8629,2.9913,2.9913,2.9913,2.9913,0.0,0.0,0.0,0.0,0.0,0.0,0.0,0.0,0.0,0.0,0.0,0.0,0.0,0.0,0.0,0.0,0.0,0.0,0.0,1.339,1.339,1.339,1.339,1.3315,1.3166,1.3166,1.3098,1.2963,1.2963,1.2963,1.2963,1.2963,1.2963,1.2963,1.2963,1.3037,1.3166,1.3166,1.3254,1.3397,1.3397,1.3728,1.4149,1.4149,1.4645,1.5381,1.5381,0.0,0.0,0.0,1.5966,1.5966,1.5966,1.5966,1.5966,1.5966,1.5966,1.5966,1.5966,1.5966,1.6129,1.6487,1.6584,1.6674,1.7031,1.7112,1.7112,1.7112,1.7112,1.7112,1.7112,1.7112,1.7112,1.7112,1.7112,1.7112,1.7112,1.7112,1.7112,1.7112,1.7112,1.7112,0.0,1.7112,1.7112,1.7112,1.7112,1.7112,1.7112,1.7112,1.7112,1.7112,1.7112,1.7112,1.7112,1.7291,1.738,1.7388,1.7737,1.7908,1.8016,2.0013,2.1111,2.1306,2.3229,2.4054,2.4237,2.615,2.6966,2.716,2.9092,2.9824,2.9913,2.9913,2.9913,2.9913,0.0,0.0,0.0,0.0,0.0,0.0,0.0,0.0,0.0,0.0,0.0,0.0,0.0,0.0,0.0,0.0,1.3403,1.3403,0.0,1.3403,1.3403,1.3403,1.3403,1.3376,1.3322,1.3322,1.3302,1.3254,1.3254,1.3254,1.3254,1.3254,1.3254,1.3254,1.3254,1.3281,1.3322,1.3322,1.3356,1.3403,1.3403,1.3486,1.3652,1.3652,1.3983,1.4563,0.0,0.0,0.0,0.0,1.5966,1.5966,1.5966,1.5966,1.5966,1.5966,1.5966,1.5966,1.5966,1.6129,1.6276,1.6519,1.6674,1.682,1.7055,1.7112,1.7112,1.7112,1.7112,1.7112,1.7112,1.7112,1.7112,1.7112,1.7112,1.7112,1.7112,1.7112,1.7112,1.7112,1.7112,0.0,0.0,0.0,0.0,1.7112,1.7112,1.7112,1.7112,1.7112,1.7112,1.7112,1.7112,1.7169,1.7291,1.7356,1.751,1.7746,1.7973,1.8087,1.8179,2.0168,2.1121,2.1121,2.1757,2.2034,2.2034,2.1388,2.2668,2.5058,2.5696,2.7624,2.9913,2.9913,2.9913,2.9913,0.0,0.0,0.0,0.0,0.0,0.0,0.0,0.0,0.0,0.0,0.0,0.0,0.0,0.0,0.0,0.0,0.0,1.3403,0.0,0.0,1.3403,1.3403,1.3403,1.3403,1.3403,1.3403,1.3403,1.3403,1.3403,1.3403,1.3403,1.3403,1.3403,1.3403,1.3403,1.3403,1.3403,1.3403,1.3403,1.3403,1.3403,1.3403,1.3403,1.3569,1.3901,0.0,0.0,0.0,0.0,0.0,1.5966,1.5966,1.5966,1.5966,1.5966,1.5966,1.5966,1.5966,1.5966,1.617,1.6349,1.6535,1.6722,1.6814,1.7071,1.6936,1.6928,1.7112,1.6936,1.6928,1.7112,1.7112,1.7112,1.7112,1.7112,1.7112,1.7112,1.7112,1.7112,1.7112,1.7112,1.7112,0.0,0.0,0.0,1.7112,1.7112,1.7112,1.7112,1.7112,1.7112,1.7112,1.7177,1.7266,1.7388,1.751,1.7721,1.8014,1.8119,1.8176,1.8269,1.9462,2.0019,2.0112,2.0844,2.0751,2.0103,2.1019,2.2402,2.4145,2.5514,2.7624,2.9913,2.9913,2.9913,2.9913,0.0,0.0,0.0,0.0,0.0,0.0,0.0,0.0,0.0,0.0,0.0,0.0,0.0,0.0,0.0,0.0,0.0,0.0,0.0,0.0,0.0,1.3403,1.3403,1.3403,1.3403,1.3403,1.3403,1.3403,1.3403,1.3403,1.3403,1.3403,1.3403,1.3403,1.3403,1.3403,1.3403,1.3403,1.3403,1.3403,1.3403,1.3403,1.3486,1.3901,0.0,0.0,0.0,0.0,0.0,1.5966,1.5966,1.5966,1.5966,1.5966,1.5966,1.5966,1.5966,1.5966,1.5974,1.6186,1.6365,1.6552,1.673,1.6822,1.6984,1.6665,1.6489,1.6936,1.6665,1.6577,1.7024,1.7112,1.7112,1.7112,1.7112,1.7112,1.7112,1.7112,1.7112,1.7112,1.7112,1.7112,1.7112,1.7112,0.0,1.7112,0.0,1.7112,1.7112,1.7112,1.7112,1.7128,1.7299,1.7396,1.7413,1.7762,1.8014,1.8176,1.8176,1.8176,1.8176,1.8176,1.8176,1.8269,2.0288,2.001,1.882,2.4408,2.5605,2.4328,2.7985,2.9541,2.9644,2.9644,2.9644,2.9644,0.0,0.0,0.0,0.0,0.0,0.0,0.0,0.0,0.0,0.0,0.0,0.0,0.0,0.0,0.0,0.0,0.0,0.0,0.0,0.0,0.0,0.0,0.0,0.0,0.0,0.0,0.0,0.0,1.3403,1.3403,1.3403,1.3403,1.3403,1.3403,1.3403,1.3403,1.3403,1.3403,1.3403,1.3403,0.0,1.3403,1.3486,0.0,0.0,0.0,0.0,0.0,1.6135,1.5676,1.5546,1.5546,1.5546,1.5793,1.5966,1.5628,1.5801,1.599,1.5794,1.6121,1.6552,1.6738,1.6649,1.6522,1.6569,1.6225,1.5969,1.6489,1.6489,1.6577,1.7024,1.7112,1.7112,1.7112,1.7112,1.7112,1.7112,1.7112,1.7112,1.7112,1.7112,1.7112,1.7112,1.7112,0.0,0.0,1.7112,1.7112,1.7112,1.7112,1.7177,1.7315,1.7364,1.7518,1.7778,1.7997,1.8135,1.8176,1.8176,1.8176,1.8176,1.8176,1.8176,1.8269,2.0288,2.0844,2.0473,2.1942,2.3137,2.3962,2.3504,2.4237,2.5514,2.5514,2.5514,2.5696,0.0,0.0,0.0,0.0,0.0,0.0,0.0,0.0,0.0,0.0,0.0,0.0,0.0,0.0,0.0,0.0,0.0,0.0,0.0,0.0,0.0,0.0,0.0,0.0,0.0,0.0,0.0,0.0,0.0,0.0,0.0,1.3403,1.3403,1.3403,1.3403,1.3403,1.3403,1.3403,0.0,0.0,0.0,0.0,0.0,0.0,0.0,0.0,0.0,1.5839,1.5731,1.5218,1.5006,1.5133,1.5298,1.5381,1.5479,1.5474,1.5664,1.587,1.5792,1.622,1.6722,1.6741,1.6633,1.6489,1.6665,1.6145,1.5881,1.6577,1.6577,1.6577,1.7024,1.7112,1.7112,1.7112,1.7112,1.7112,1.7112,1.7112,1.7112,1.7112,1.7112,1.7112,1.7112,1.7112,1.7112,0.0,1.7112,1.7112,1.7112,1.7112,1.7193,1.738,1.7461,1.7672,1.803,1.8127,1.8176,1.8176,1.8176,1.8176,1.8176,1.8176,1.8634,1.9555,0.0,2.185,2.1204,2.2943,2.331,2.2678,2.2494,2.3045,2.3962,2.3962,2.4602,2.5514,0.0,0.0,0.0,0.0,0.0,0.0,0.0,0.0,0.0,0.0,0.0,0.0,0.0,0.0,0.0,0.0,0.0,0.0,0.0,0.0,0.0,0.0,0.0,0.0,0.0,0.0,0.0,0.0,0.0,0.0,0.0,0.0,0.0,0.0,0.0,0.0,0.0,0.0,0.0,0.0,0.0,0.0,0.0,0.0,0.0,0.0,0.0,1.5584,1.5164,1.4736,1.4619,1.478,1.5202,1.5119,1.4893,1.5379,1.5593,1.5631,1.5794,1.6301,1.6687,1.6711,1.6562,1.6401,1.6849,1.6233,1.5881,1.6849,1.6665,1.6577,1.7024,1.7112,1.7112,1.7112,1.7112,1.7112,1.7112,1.7112,1.7112,1.7112,1.7112,1.7112,1.7112,1.7112,1.7112,1.7112,1.7112,1.7112,1.7112,1.7136,1.7242,1.7453,1.7624,1.7859,1.8176,1.8176,1.8176,1.8176,1.8176,1.8176,1.8176,1.8456,1.9369,2.0844,0.0,0.0,2.1388,2.4774,2.4226,2.1204,2.2678,2.3229,2.3229,2.3504,2.4682,2.6332,0.0,0.0,0.0,0.0,0.0,0.0,0.0,0.0,0.0,0.0,0.0,0.0,0.0,0.0,0.0,0.0,0.0,0.0,0.0,0.0,0.0,0.0,0.0,0.0,0.0,0.0,0.0,0.0,0.0,0.0,0.0,0.0,0.0,0.0,0.0,0.0,0.0,0.0,0.0,0.0,0.0,0.0,0.0,0.0,0.0,0.0,1.5268,1.55,1.5414,1.4902,1.4693,1.4621,1.5131,1.5215,1.5138,1.5253,1.526,1.5298,1.5541,1.5869,1.627,1.6411,1.6122,1.5881,1.5881,1.5528,1.5344,1.6313,1.6489,1.6577,1.7024,1.7112,1.7112,1.7112,1.7112,1.7112,1.7112,1.7112,1.7112,1.7112,1.7112,1.7112,1.7112,1.7112,0.0,0.0,1.7112,1.7112,1.7112,1.7258,1.7486,1.7819,1.7989,1.8111,1.8176,1.8176,1.8176,1.8176,1.8176,1.8176,1.8269,1.9834,1.9926,1.8913,2.2494,0.0,2.1111,2.185,2.1757,2.0936,1.9741,1.9184,1.9369,2.1028,2.185,2.2576,0.0,0.0,0.0,0.0,0.0,0.0,0.0,0.0,0.0,0.0,0.0,0.0,0.0,0.0,0.0,0.0,0.0,0.0,0.0,0.0,0.0,0.0,0.0,0.0,0.0,0.0,0.0,0.0,0.0,0.0,0.0,0.0,0.0,0.0,0.0,0.0,0.0,0.0,0.0,0.0,0.0,0.0,0.0,0.0,0.0,0.0,0.0,1.5228,1.5148,1.4717,1.4493,1.4489,1.5015,1.4878,1.4543,1.5145,1.5174,1.5038,1.5453,1.5935,1.63,1.6378,1.6049,1.5793,1.6049,1.5697,1.5616,1.6577,1.6753,1.6841,1.7024,1.7112,1.7112,1.7112,1.7112,1.7112,1.7112,1.7112,1.7112,1.7112,1.7112,1.7112,1.7112,1.7112,1.7112,1.7112,1.7112,1.7112,1.7112,1.7372,1.764,1.7908,1.8087,1.8176,1.8176,1.8176,1.8176,1.8176,1.8176,1.8176,1.8269,1.9184,1.9648,1.9834,2.1665,0.0,2.1121,2.1121,2.0473,1.9462,1.8541,1.8176,1.8456,2.0381,2.1757,2.3045,0.0,0.0,0.0,0.0,0.0,0.0,0.0,0.0,0.0,0.0,0.0,0.0,0.0,0.0,0.0,0.0,0.0,0.0,0.0,0.0,0.0,0.0,0.0,0.0,0.0,0.0,0.0,1.3403,0.0,0.0,0.0,0.0,0.0,0.0,0.0,0.0,0.0,0.0,0.0,0.0,0.0,0.0,0.0,0.0,0.0,0.0,0.0,1.4903,1.4911,1.4557,1.4476,1.4611,1.5226,1.4715,1.4132,1.5032,1.5075,1.4937,1.5587,1.5961,1.6225,1.6225,1.5873,1.5704,1.6137,1.5961,1.5969,1.6936,1.7112,1.7112,1.7112,1.7112,1.7112,1.7112,1.7112,1.7112,1.7112,1.7112,1.7112,1.7112,1.7112,1.7112,1.7112,1.7112,0.0,1.7112,0.0,0.0,1.7226,1.7526,1.7786,1.7965,1.8103,1.8176,1.8176,1.8176,1.8176,1.8176,1.8176,1.8176,1.8176,1.8634,1.9462,2.0473,2.0936,0.0,0.0,2.0473,1.9555,1.8176,1.8176,1.8176,1.8447,2.0844,2.2678,2.4328,0.0,0.0,0.0,0.0,0.0,0.0,0.0,0.0,0.0,0.0,0.0,0.0,0.0,0.0,0.0,0.0,0.0,0.0,0.0,0.0,0.0,0.0,0.0,0.0,0.0,0.0,0.0,1.3403,1.3403,0.0,0.0,0.0,0.0,0.0,0.0,0.0,0.0,0.0,0.0,0.0,0.0,0.0,0.0,0.0,0.0,0.0,0.0,1.4646,1.4992,1.4903,1.4911,1.508,1.6011,1.5396,1.4346,1.4882,1.497,1.5066,1.5616,1.5704,1.5793,1.5793,1.544,1.5168,1.5616,1.5704,1.5969,1.6936,1.7112,1.7112,1.7112,1.7112,1.7112,1.7112,1.7112,1.7112,1.7112,1.7112,1.7112,1.7112,1.7112,1.7112,1.7112,1.7112,1.7112,1.7112,0.0,0.0,1.7583,1.7786,1.7973,1.8144,1.8168,1.8176,1.8176,1.8176,1.8176,1.8176,1.8176,1.8176,1.8269,2.0019,2.001,1.8541,2.0288,0.0,0.0,1.8456,1.8363,1.8176,1.8176,1.8176,1.8634,2.2402,2.3871,2.4511,0.0,0.0,0.0,0.0,0.0,0.0,0.0,0.0,0.0,0.0,0.0,0.0,0.0,0.0,0.0,0.0,0.0,0.0,0.0,0.0,0.0,0.0,0.0,0.0,0.0,0.0,1.3661,1.3661,1.3661,0.0,0.0,0.0,0.0,0.0,0.0,0.0,0.0,0.0,0.0,0.0,0.0,0.0,0.0,0.0,0.0,0.0,0.0,0.0,1.4992,1.4992,1.5168,1.5528,1.5881,1.5616,1.5175,1.5352,1.5264,1.508,1.5264,1.544,1.5616,1.5352,1.5352,1.544,1.5616,1.5881,1.6313,1.6936,1.7112,1.7112,1.7112,1.7112,1.7112,1.7112,1.7112,1.7112,1.7112,1.7112,1.7112,1.7112,1.7112,1.7112,1.7112,0.0,1.7161,1.7266,0.0,0.0,1.7794,1.7875,1.7997,1.8168,1.8176,1.8176,1.8176,1.8176,1.8176,1.8176,1.8176,1.8176,1.8269,1.9006,1.8913,1.8269,1.9006,0.0,0.0,1.8176,1.8176,1.8176,1.8176,1.8176,1.8541,2.1213,2.2218,2.2678,0.0,0.0,0.0,0.0,0.0,0.0,0.0,0.0,0.0,0.0,0.0,0.0,0.0,0.0,0.0,0.0,0.0,0.0,0.0,0.0,0.0,0.0,0.0,0.0,0.0,0.0,1.3838,1.3838,1.3838,1.3838,0.0,0.0,0.0,0.0,0.0,0.0,0.0,0.0,0.0,0.0,0.0,0.0,0.0,0.0,0.0,0.0,0.0,0.0,0.0,0.0,0.0,1.5793,1.6057,1.5881,1.5704,1.5704,1.544,1.5175,1.5175,1.5352,1.544,1.508,1.5264,1.5528,1.5704,1.6049,1.6489,1.7024,1.7112,1.7112,1.7112,1.7112,1.7112,1.7112,1.7112,1.7112,1.7112,1.7112,1.7112,1.7112,1.7112,1.7112,1.7112,1.7112,1.7185,0.0,0.0,0.0,0.0,1.7965,1.8046,1.8168,1.8176,1.8176,1.8176,1.8176,1.8176,1.8176,1.8176,1.8176,1.8176,1.8176,1.8176,1.8176,0.0,0.0,0.0,1.8176,1.8176,1.8176,1.8176,1.8176,1.8456,2.0381,2.1121,2.1388,0.0,0.0,0.0,0.0,0.0,0.0,0.0,0.0,0.0,0.0,0.0,0.0,0.0,0.0,0.0,0.0,0.0,0.0,0.0,0.0,0.0,0.0,0.0,0.0,0.0,0.0,1.3838,1.3838,1.3838,1.3838,1.3838,1.3838,1.3838,1.3838,0.0,0.0,0.0,0.0,0.0,0.0,0.0,0.0,0.0,0.0,0.0,0.0,0.0,0.0,0.0,0.0,0.0,0.0,0.0,1.6409,1.5704,1.5704,1.5704,1.5704,1.5704,1.5352,1.4992,1.4992,1.4992,1.5168,1.5616,1.6049,1.6489,1.7024,1.7112,1.7112,1.7112,1.7112,1.7112,1.7112,1.7112,1.7112,1.7112,1.7112,1.7112,1.7112,1.7112,1.7112,1.7112,1.7112,1.7185,0.0,0.0,0.0,0.0,1.8079,1.8176,1.8176,1.8176,1.8176,1.8176,1.8176,1.8176,1.8176,1.8176,1.8176,1.8176,1.8176,1.8176,0.0,0.0,0.0,0.0,1.8176,1.8176,1.8176,1.8176,1.8176,1.8456,2.0381,2.1121,2.1388,0.0,0.0,0.0,0.0,0.0,0.0,0.0,0.0,0.0,0.0,0.0,0.0,0.0,0.0,0.0,0.0,0.0,0.0,0.0,0.0,0.0,0.0,0.0,0.0,0.0,1.4156,1.4156,1.4156,1.4156,1.4156,1.4156,1.4156,1.4156,1.4156,1.4156,0.0,0.0,0.0,0.0,0.0,0.0,0.0,0.0,0.0,0.0,0.0,0.0,0.0,0.0,0.0,0.0,0.0,0.0,0.0,0.0,1.6673,1.6409,1.6137,1.5793,1.5793,1.5873,1.5528,1.5697,1.5961,1.6137,1.6577,1.6936,1.7112,1.7112,1.7112,1.7112,1.7112,1.7112,1.7112,1.7112,1.7112,1.7112,1.7112,1.7112,1.7112,1.7112,1.7112,0.0,0.0,0.0,0.0,0.0,0.0,0.0,1.8144,1.8176,1.8176,1.8176,1.8176,1.8176,1.8176,1.8176,1.8176,1.8176,1.8176,1.8176,1.8176,0.0,0.0,0.0,0.0,0.0,1.8176,1.8176,1.8176,1.8176,1.8176,1.8269,1.8913,1.9099,1.9184,0.0,0.0,0.0,0.0,0.0,0.0,0.0,0.0,0.0,0.0,0.0,0.0,0.0,0.0,0.0,0.0,0.0,0.0,0.0,0.0,0.0,0.0,0.0,0.0,1.4299,1.4299,1.4299,1.4299,1.4299,1.4299,1.4299,1.4299,1.4299,1.4299,1.4299,1.4299,0.0,0.0,0.0,0.0,0.0,0.0,1.4299,0.0,0.0,0.0,0.0,0.0,0.0,0.0,0.0,0.0,0.0,0.0,0.0,0.0,1.6928,1.6577,1.6049,1.6049,1.6049,1.5793,1.6049,1.6401,1.6401,1.6753,1.7112,1.7112,1.7112,1.7112,1.7112,1.7112,1.7112,1.7112,1.7112,1.7112,1.7112,1.7112,1.7112,1.7112,1.7112,0.0,0.0,1.7283,0.0,0.0,0.0,0.0,0.0,1.8176,1.8176,1.8176,1.8176,1.8176,1.8176,1.8176,1.8176,1.8176,1.8176,1.8176,1.8176,1.8176,0.0,0.0,0.0,0.0,0.0,1.8176,1.8176,1.8176,1.8176,1.8176,1.8176,1.8176,1.8176,1.8176,0.0,0.0,0.0,0.0,0.0,0.0,0.0,0.0,0.0,0.0,0.0,0.0,0.0,0.0,0.0,0.0,0.0,0.0,0.0,0.0,0.0,0.0,0.0,0.0,1.4299,1.4299,1.4299,1.4299,1.4299,1.4299,1.4299,1.4299,1.4299,1.4299,1.4299,1.4299,1.4299,1.4299,1.4299,0.0,0.0,1.4299,0.0,0.0,0.0,0.0,0.0,0.0,0.0,0.0,0.0,0.0,0.0,0.0,0.0,0.0,0.0,0.0,0.0,1.6137,1.5793,1.5793,1.6145,1.6489,1.6489,1.6753,0.0,1.7112,1.7112,1.7112,1.7112,1.7112,1.7112,1.7112,1.7112,1.7112,1.7112,1.7112,1.7112,1.7112,1.7112,0.0,1.7128,0.0,0.0,0.0,0.0,0.0,0.0,1.8176,1.8176,1.8176,1.8176,1.8176,1.8176,1.8176,1.8176,1.8176,1.8176,1.8176,1.8176,1.8176,0.0,0.0,0.0,0.0,0.0,1.8176,1.8176,1.8176,1.8176,1.8176,1.8176,1.8176,1.8176,1.8176,0.0,0.0,0.0,0.0,0.0,0.0,0.0,0.0,0.0,0.0,0.0,0.0,0.0,0.0,0.0,0.0,0.0,0.0,0.0,0.0,0.0,0.0,0.0,0.0,1.4299,1.4299,1.4299,1.4299,1.4299,1.4299,1.4299,1.4299,1.4299,1.4299,1.4299,1.4299,1.4299,1.4299,1.4299,0.0,1.4299,1.4299,0.0,0.0,0.0,0.0,1.4822,1.5264,0.0,0.0,0.0,0.0,0.0,0.0,0.0,0.0,1.7112,0.0,1.6936,0.0,1.6761,1.6761,1.6849,1.6928,0.0,1.7024,1.7112,1.7112,1.7112,1.7112,1.7112,1.7112,1.7112,1.7112,1.7112,1.7112,1.7112,1.7112,1.7112,1.7112,1.7112,1.7169,1.7307,0.0,0.0,0.0,0.0,0.0,0.0,1.8176,1.8176,1.8176,1.8176,1.8176,1.8176,1.8176,1.8176,1.8176,1.8176,1.8176,1.8176,1.8176,0.0,0.0,0.0,0.0,1.8176,1.8176,1.8176,1.8176,1.8176,1.8176,1.8176,1.8176,1.8176,1.8176,0.0,0.0,0.0,0.0,0.0,0.0,0.0,0.0,0.0,0.0,0.0,0.0,0.0,0.0,0.0,0.0,0.0,0.0,0.0,0.0,0.0,0.0,0.0,1.4299,1.4299,1.4299,1.4299,1.4299,1.4299,1.4299,1.4299,1.4299,1.4299,1.4299,1.4299,1.4299,1.4299,1.4299,1.4299,1.4299,1.4299,0.0,0.0,0.0,0.0,0.0,1.5433,1.5785,0.0,1.6313,1.6665,1.7024,0.0,0.0,0.0,0.0,1.7112,0.0,1.7112,1.7112,1.7112,1.7112,1.7112,1.7112,1.7112,1.7112,1.7112,1.7112,1.7112,1.7112,1.7112,1.7112,1.7112,1.7112,1.7112,1.7112,1.7112,1.7112,1.7112,1.7112,1.7185,1.7274,0.0,0.0,0.0,0.0,0.0,0.0,0.0,1.8176,1.8176,1.8176,1.8176,1.8176,1.8176,1.8176,1.8176,1.8176,1.8176,1.8176,1.8176,1.8176,1.8176,0.0,0.0,0.0,1.8176,1.8176,1.8176,1.8176,1.8176,1.8176,1.8176,1.8176,1.8176,1.8176,0.0,0.0,0.0,0.0,0.0,0.0,0.0,0.0,0.0,0.0,0.0,0.0,0.0,0.0,0.0,0.0,0.0,0.0,0.0,0.0,0.0,0.0,1.4299,1.4299,1.4299,1.4299,1.4299,1.4299,1.4299,1.4299,1.4299,1.4299,1.4299,1.4299,1.4299,1.4299,1.4299,1.4299,1.4299,1.4299,1.4299,0.0,0.0,0.0,0.0,0.0,0.0,0.0,0.0,1.6489,1.6753,1.7024,1.6665,0.0,0.0,0.0,0.0,0.0,1.7112,1.7112,1.7112,1.7112,1.7112,1.7112,1.7112,1.7112,1.7112,1.7112,1.7112,1.7112,1.7112,1.7112,1.7112,1.7112,1.7112,1.7112,1.7112,1.7112,1.712,1.7153,1.7291,0.0,0.0,0.0,0.0,0.0,0.0,0.0,0.0,1.8176,1.8176,1.8176,1.8176,1.8176,1.8176,1.8176,1.8176,1.8176,1.8176,1.8176,1.8176,1.8176,1.8176,0.0,0.0,0.0,1.8176,1.8176,1.8176,1.8176,1.8176,1.8176,1.8176,1.8176,1.8176,1.8176,0.0,0.0,0.0,0.0,0.0,0.0,0.0,0.0,0.0,0.0,0.0,0.0,0.0,0.0,0.0,0.0,0.0,0.0,0.0,0.0,0.0,1.4299,1.4299,1.4299,1.4299,1.4299,1.4299,1.4299,1.4299,1.4299,1.4299,1.4299,1.4299,1.4299,1.4299,1.4299,1.4299,1.4299,1.4299,1.4299,1.4299,0.0,0.0,0.0,0.0,0.0,0.0,0.0,0.0,1.6841,1.7024,1.7112,1.7024,0.0,0.0,0.0,0.0,0.0,1.7112,1.7112,1.7112,1.7112,1.7112,1.7112,1.7112,1.7112,1.7112,1.7112,1.7112,1.7112,1.7112,1.7112,1.7112,1.7112,1.7112,1.7112,0.0,0.0,1.7169,1.7323,0.0,0.0,0.0,0.0,0.0,0.0,0.0,0.0,0.0,1.8176,1.8176,1.8176,1.8176,1.8176,1.8176,1.8176,1.8176,1.8176,1.8176,1.8176,1.8176,1.8176,1.8176,0.0,0.0,1.8176,1.8176,1.8176,1.8176,1.8176,1.8176,1.8176,1.8176,1.8176,1.8176,1.8176,0.0,0.0,0.0,0.0,0.0,0.0,0.0,0.0,0.0,0.0,0.0,0.0,0.0,0.0,0.0,0.0,0.0,0.0,0.0,0.0,1.4299,1.4299,1.4299,1.4299,1.4299,1.4299,1.4299,1.4299,1.4299,1.4299,1.4299,1.4299,1.4299,1.4299,1.4299,1.4299,1.4299,1.4299,1.4476,1.4646,0.0,0.0,0.0,0.0,0.0,0.0,0.0,0.0,0.0,0.0,1.7112,1.7112,1.7112,0.0,0.0,0.0,0.0,0.0,1.7112,1.7112,1.7112,1.7112,1.7112,1.7112,1.7112,1.7112,1.7112,1.7112,1.7112,1.7112,1.7112,1.7112,1.7112,1.7112,1.7112,1.7112,1.7112,1.7112,1.7177,0.0,0.0,0.0,0.0,0.0,0.0,0.0,0.0,0.0,0.0,0.0,1.8176,1.8176,1.8176,1.8176,1.8176,1.8176,1.8176,1.8176,1.8176,1.8176,1.8176,1.8176,1.8176,1.8176,0.0,1.8176,1.8176,1.8176,1.8176,1.8176,1.8176,1.8176,1.8176,1.8176,1.8176,1.8176,0.0,0.0,0.0,0.0,0.0,0.0,0.0,0.0,0.0,0.0,0.0,0.0,0.0,0.0,0.0,0.0,0.0,0.0,0.0,1.4299,1.4299,1.4299,1.4299,1.4299,1.4299,1.4299,1.4299,1.4299,1.4299,1.4387,1.4476,1.4476,1.4476,1.4476,1.4564,1.4564,1.4476,1.4564,1.4822,1.5175,0.0,0.0,0.0,0.0,0.0,0.0,0.0,0.0,0.0,0.0,0.0,0.0,0.0,0.0,0.0,0.0,1.7112,1.7112,1.7112,1.7112,1.712,1.7161,1.7145,1.7112,1.7112,1.7112,1.7112,1.7112,1.7112,1.712,1.7169,1.7177,1.7161,1.712,1.7112,1.7128,1.7169,1.7177,1.7258,0.0,0.0,0.0,0.0,0.0,0.0,0.0,0.0,0.0,0.0,0.0,1.8176,1.8176,1.8176,1.8176,1.8176,1.8176,1.8176,1.8176,1.8176,1.8176,1.8176,1.8176,1.8176,1.8176,1.8176,1.8176,1.8176,1.8176,1.8176,1.8176,1.8176,1.8176,1.8176,1.8176,1.8176,1.8184,0.0,0.0,0.0,0.0,0.0,0.0,0.0,0.0,0.0,0.0,0.0,0.0,0.0,0.0,0.0,0.0,0.0,0.0,0.0,1.4299,1.4299,1.4299,1.4299,1.4299,1.4299,1.4299,1.4299,1.4299,1.4299,1.4564,1.4903,1.4903,1.4903,1.4992,1.544,1.5352,1.4992,1.544,1.5616,1.5616,1.5616,0.0,0.0,0.0,0.0,0.0,0.0,0.0,0.0,0.0,0.0,0.0,0.0,0.0,0.0,0.0,1.7112,1.7112,1.7112,1.7112,1.7153,1.7323,1.7242,1.7112,1.7112,1.7112,1.7112,1.7112,1.7112,1.7161,1.7339,1.7372,1.7307,1.7136,1.7112,1.7169,1.7339,0.0,0.0,0.0,0.0,0.0,0.0,0.0,0.0,0.0,0.0,0.0,0.0,0.0,0.0,1.8176,1.8176,1.8176,1.8176,1.8176,1.8176,1.8176,1.8176,1.8176,1.8176,1.8176,1.8176,1.8176,1.8176,1.8176,1.8176,1.8176,1.8176,1.8176,1.8176,1.8176,1.8176,1.8176,1.8176,1.82,0.0,0.0,0.0,0.0,0.0,0.0,0.0,0.0,0.0,0.0,0.0,0.0,0.0,0.0,0.0,0.0,0.0,0.0,0.0,1.4299,1.4299,1.4299,1.4299,1.4476,1.4734,1.4476,1.4476,1.4734,1.4999,1.5264,1.544,1.5168,1.5175,1.544,1.5352,1.5352,1.544,1.5616,1.5881,1.6137,1.6137,1.6313,0.0,0.0,0.0,0.0,0.0,0.0,0.0,0.0,0.0,0.0,0.0,0.0,0.0,0.0,1.7112,1.7112,1.7112,1.7112,1.7153,1.7339,1.7331,1.7283,1.7283,1.7283,1.7283,1.7283,1.7193,1.7169,1.7356,1.7388,1.7396,1.7437,1.7437,1.7461,1.7534,0.0,0.0,0.0,0.0,0.0,0.0,0.0,0.0,0.0,0.0,0.0,0.0,0.0,0.0,1.8176,1.8176,1.8176,1.8176,1.8176,1.8176,1.8176,1.8176,1.8176,1.8176,1.8176,1.8176,1.8176,1.8176,1.8176,1.8176,1.8176,1.8176,1.8176,1.8176,1.8249,1.8347,1.8347,1.842,1.8525,0.0,0.0,0.0,0.0,0.0,0.0,0.0,0.0,0.0,0.0,0.0,0.0,0.0,0.0,0.0,0.0,0.0,0.0,1.4306,1.4299,1.4387,1.4476,1.4564,1.4734,1.5175,1.4911,1.4911,1.5264,1.5352,1.5528,1.5704,1.5352,1.5352,1.5704,1.5704,1.5785,1.5969,1.6057,1.6321,1.6577,1.6577,1.6841,0.0,0.0,0.0,0.0,0.0,0.0,0.0,0.0,0.0,0.0,0.0,0.0,0.0,0.0,0.0,1.7201,1.7201,1.7234,1.7323,1.751,1.7559,1.7559,1.7559,1.751,1.7469,1.7469,1.7413,1.7388,1.7453,1.7518,1.7575,0.0,1.764,1.7664,0.0,0.0,0.0,0.0,0.0,0.0,0.0,0.0,0.0,0.0,0.0,0.0,0.0,0.0,0.0,0.0,1.8176,1.8176,1.8176,1.8176,1.8176,1.8176,1.8176,1.8176,1.8176,1.8176,1.8176,1.8176,1.8176,1.8176,1.8176,1.8176,1.8208,1.8265,1.8265,1.8371,1.8541,1.8541,1.8615,1.8736,0.0,0.0,0.0,0.0,0.0,0.0,0.0,0.0,0.0,0.0,0.0,0.0,0.0,0.0,0.0,0.0,0.0,0.0,1.4312,1.4306,1.4564,1.4999,1.4992,1.5264,1.5704,1.5704,1.5704,1.5704,1.5264,1.5264,1.5704,1.5704,1.5704,1.5793,1.6673,1.6841,1.6401,1.6928,1.7112,1.7112,1.7112,1.7112,1.7112,0.0,0.0,0.0,0.0,0.0,0.0,0.0,0.0,0.0,0.0,0.0,0.0,0.0,1.7242,1.7388,1.7388,1.751,1.7689,1.7867,1.7916,1.7916,1.7916,1.7778,1.764,1.764,1.7786,1.7859,1.7681,1.7794,1.7859,1.7672,1.7648,1.7713,0.0,0.0,0.0,0.0,0.0,0.0,0.0,0.0,0.0,0.0,0.0,0.0,0.0,0.0,0.0,0.0,1.8176,1.8176,1.8176,1.8176,1.8176,1.8176,1.8176,1.8176,1.8176,1.8176,1.8176,1.8176,1.8176,1.8176,1.8176,1.8176,1.8282,1.8547,1.8452,1.8566,1.8728,1.8728,1.8728,1.8753,0.0,0.0,0.0,0.0,0.0,0.0,0.0,0.0,0.0,0.0,0.0,0.0,0.0,0.0,0.0,0.0,0.0,0.0,1.5437,1.5519,1.5468,1.5536,1.5528,1.5528,1.5704,1.6049,1.6225,1.6225,1.6401,1.6585,1.6673,1.6313,1.6401,1.6673,1.6665,1.6665,1.6928,1.7024,1.7112,1.7112,1.7112,1.7112,1.7112,0.0,0.0,0.0,0.0,0.0,0.0,0.0,0.0,0.0,0.0,0.0,0.0,1.7266,1.7348,1.7413,1.7534,1.7599,1.7689,1.7867,1.7916,1.7949,1.807,1.7965,1.7794,1.7664,1.7786,1.79,1.7843,1.7884,1.794,1.8005,1.8014,0.0,0.0,0.0,0.0,0.0,0.0,0.0,0.0,0.0,0.0,0.0,0.0,0.0,0.0,0.0,0.0,0.0,1.8176,1.8176,1.8176,1.8176,1.8176,1.8176,1.8176,1.8176,1.8176,1.8176,1.8176,1.8176,1.8176,1.8176,1.8184,1.8314,1.8403,1.8468,1.859,1.8753,1.8907,1.8907,1.8988,1.911,0.0,0.0,0.0,0.0,0.0,0.0,0.0,0.0,0.0,0.0,1.5011,1.5124,0.0,0.0,0.0,0.0,0.0,0.0,0.0,1.586,1.5876,1.6075,1.589,1.5948,1.6233,1.6489,1.6665,1.6665,1.6753,1.6841,1.6841,1.6489,1.6577,1.6841,1.6753,1.6841,1.7112,1.7112,1.7112,1.7112,1.7112,1.7112,1.7112,0.0,0.0,0.0,0.0,0.0,0.0,0.0,0.0,0.0,1.7201,1.7218,1.7258,1.7437,1.7543,1.7624,1.7721,1.7802,1.7884,1.7989,1.8022,1.8046,1.8152,1.8095,1.7989,1.7875,1.794,1.8022,1.8022,1.8022,0.0,1.816,1.8176,0.0,0.0,0.0,0.0,0.0,0.0,0.0,0.0,0.0,0.0,0.0,0.0,0.0,0.0,0.0,0.0,0.0,1.8176,1.8176,1.8176,1.8176,1.8176,1.8176,1.8176,1.8176,1.8176,1.8176,1.8176,1.8176,1.8257,1.8282,1.8298,1.8485,1.8598,1.8671,1.8785,1.8931,1.9094,1.9094,1.9167,1.9256,0.0,0.0,0.0,0.0,0.0,0.0,0.0,0.0,0.0,0.0,1.554,1.5868,0.0,0.0,0.0,0.0,0.0,0.0,0.0,1.5847,1.5956,1.6787,1.6242,1.6344,1.7136,1.7048,1.704,1.7112,1.6665,1.6489,1.6489,1.6489,1.6489,1.6489,1.6936,1.7112,1.7112,1.7112,1.7112,1.7112,1.7112,1.712,1.7136,1.7136,0.0,0.0,0.0,0.0,0.0,0.0,0.0,0.0,1.7356,1.7413,1.7445,1.7616,1.7786,1.7924,1.794,1.8054,1.8176,1.8176,1.8176,1.8176,1.8176,1.8176,1.8176,1.8176,1.8176,1.8176,1.8176,1.8176,1.8176,1.8176,0.0,0.0,0.0,0.0,0.0,0.0,0.0,0.0,0.0,0.0,0.0,0.0,0.0,0.0,0.0,0.0,0.0,1.8176,1.8176,1.8176,1.8176,1.8176,1.8176,0.0,1.8176,1.8176,1.8176,1.8176,1.8184,1.8208,1.8379,1.846,1.8493,1.8671,1.8842,1.8988,1.9004,1.911,1.9256,1.9256,1.9256,1.9256,0.0,0.0,0.0,0.0,0.0,0.0,0.0,0.0,0.0,0.0,0.0,0.0,0.0,0.0,0.0,0.0,0.0,0.0,0.0,1.6934,1.704,1.7411,1.6959,1.688,1.7331,1.6967,1.6896,1.7112,1.7024,1.6928,1.6928,1.6928,1.6928,1.6928,1.7024,1.7112,1.7112,1.7112,1.7112,1.7112,1.7112,1.7201,1.7331,1.7331,1.7413,0.0,0.0,0.0,0.0,0.0,0.0,0.0,1.7575,1.7583,1.7624,1.7802,1.7884,1.7949,1.8079,1.8144,1.8176,1.8176,1.8176,1.8176,1.8176,1.8176,1.8176,1.8176,1.8176,1.8176,1.8176,1.8176,1.8176,0.0,0.0,0.0,0.0,0.0,0.0,0.0,0.0,0.0,0.0,0.0,0.0,0.0,0.0,0.0,0.0,0.0,0.0,1.8176,1.8176,1.8176,1.8176,1.8176,1.8176,0.0,1.8176,1.8176,1.8176,1.8176,1.8257,1.8395,1.8436,1.8533,1.868,1.885,1.8948,1.8996,1.9142,1.9224,1.9256,1.9256,1.9256,1.9256,0.0,0.0,0.0,0.0,0.0,0.0,0.0,0.0,0.0,0.0,0.0,0.0,0.0,0.0,0.0,0.0,0.0,0.0,0.0,0.0,1.7311,1.7413,1.7325,1.7336,1.751,1.7232,1.7152,1.7242,1.7242,1.7201,1.7112,1.7112,1.7112,1.7112,1.7112,1.7112,1.7112,1.7112,1.7161,1.7242,1.7242,1.7348,1.751,1.751,1.7559,1.764,1.764,0.0,0.0,0.0,0.0,0.0,0.0,0.0,1.7811,1.7989,1.8038,1.8062,1.8152,1.8176,1.8176,1.8176,1.8176,1.8176,1.8176,1.8176,1.8176,1.8176,1.8176,1.8176,1.8176,1.8176,1.8176,0.0,0.0,0.0,0.0,0.0,0.0,0.0,0.0,0.0,0.0,0.0,0.0,0.0,0.0,0.0,0.0,1.8176,1.8176,1.8176,1.8176,1.8176,1.8176,1.8176,1.8176,1.8176,1.8176,1.8225,1.8306,1.8306,1.8412,1.859,1.8671,1.8761,1.8858,1.9045,1.9118,1.9126,1.9224,1.9256,1.9256,1.9256,1.9256,1.9256,0.0,0.0,0.0,0.0,0.0,0.0,0.0,0.0,0.0,0.0,0.0,0.0,0.0,0.0,0.0,0.0,0.0,0.0,0.0,0.0,0.0,1.7403,1.7628,1.7721,1.7689,1.7689,1.7599,1.7429,1.7429,1.7356,1.7201,1.7136,1.7112,1.7112,1.7112,1.7128,1.7161,1.7161,1.7266,1.7429,1.7429,1.7534,1.7689,1.7689,1.7705,1.7729,1.7729,1.7729,1.7729,1.7729,0.0,0.0,0.0,0.0,1.7989,1.8135,1.8176,1.8176,1.8176,1.8176,1.8176,1.8176,1.8176,1.8176,1.8176,1.8176,1.8176,1.8176,1.8176,1.8176,1.8176,1.8176,0.0,0.0,0.0,0.0,0.0,0.0,0.0,0.0,0.0,0.0,0.0,0.0,0.0,0.0,0.0,0.0,1.8176,1.8176,1.8176,1.8176,1.8176,1.8176,1.8176,1.8176,1.8176,1.8176,1.8208,1.8338,1.8541,1.8541,1.8631,1.8777,1.8923,1.9004,1.9045,1.9199,1.9256,1.9256,1.9256,1.9256,1.9256,1.9256,1.9256,1.9256,0.0,0.0,0.0,0.0,0.0,0.0,0.0,0.0,0.0,0.0,1.8083,1.8083,0.0,0.0,0.0,0.0,0.0,0.0,0.0,0.0,0.0,1.805,1.8119,1.803,1.7884,1.7884,1.7786,1.7607,1.7607,1.7591,1.7559,1.7258,1.7112,1.7112,1.7112,1.7201,1.7348,1.7348,1.7453,1.7607,1.7607,1.7721,1.7884,1.7884,1.7973,1.8103,1.8103,1.8103,1.8103,1.8103,1.8103,0.0,0.0,0.0,1.8144,1.8168,1.8176,1.8176,1.8176,1.8176,1.8176,1.8176,1.8176,1.8176,1.8176,1.8176,1.8176,1.8176,1.8176,1.8176,1.8176,0.0,0.0,0.0,0.0,0.0,0.0,0.0,0.0,0.0,0.0,0.0,0.0,0.0,0.0,0.0,0.0,0.0,1.8176,1.8176,1.8176,1.8176,1.8176,1.8176,1.8176,1.8176,1.8176,1.8176,1.8338,1.859,1.8915,1.8915,1.8923,1.8948,1.8972,1.9077,1.9224,1.9248,1.9256,1.9256,1.9256,1.9256,1.9256,1.9256,1.9256,1.9256,0.0,0.0,0.0,0.0,0.0,0.0,0.0,0.0,0.0,0.0,0.0,1.8176,0.0,0.0,0.0,0.0,0.0,0.0,0.0,0.0,0.0,1.8176,1.8176,1.8135,1.8062,1.8062,1.7973,1.7794,1.7794,1.7746,1.764,1.7478,1.7404,1.7404,1.7404,1.7453,1.7526,1.7526,1.7632,1.7794,1.7794,1.79,1.8062,1.8062,1.8111,1.8176,1.8176,1.8176,1.8176,1.8176,1.8176,1.8176,1.8176,0.0,0.0,0.0,1.8176,1.8176,1.8176,1.8176,1.8176,1.8176,1.8176,1.8176,1.8176,1.8176,1.8176,1.8176,1.8176,1.8176,0.0,0.0,0.0,0.0,0.0,0.0,0.0,0.0,0.0,0.0,0.0,0.0,0.0,0.0,0.0,0.0,0.0,1.8176,1.8176,1.8176,1.8176,1.8176,1.8176,1.8176,1.8176,1.8176,1.8225,1.833,1.8517,1.8736,1.8988,1.9094,1.9134,1.9134,1.9134,1.9183,1.9256,1.9256,1.9256,1.9256,1.9256,1.9256,1.9256,1.9256,1.9256,1.9256,0.0,0.0,0.0,0.0,0.0,0.0,0.0,0.0,0.0,0.0,0.0,0.0,0.0,0.0,0.0,0.0,0.0,0.0,0.0,0.0,0.0,0.0,0.0,1.8176,1.8176,1.8176,1.8111,1.7981,1.7981,1.7908,1.7778,1.7778,1.7778,1.777,1.7681,1.7664,1.7713,1.7713,1.7819,1.7981,1.7981,1.8062,1.8176,1.8176,1.8176,1.8176,1.8176,1.8176,1.8176,1.8176,1.8176,1.8176,1.8176,1.8176,0.0,0.0,0.0,1.8176,1.8176,1.8176,1.8176,1.8176,1.8176,1.8176,1.8176,1.8176,1.8176,0.0,1.8176,1.8176,0.0,0.0,0.0,0.0,0.0,0.0,0.0,0.0,0.0,0.0,0.0,0.0,0.0,0.0,0.0,0.0,0.0,1.8176,1.8176,1.8176,1.8176,1.8176,1.8176,1.8176,1.8176,1.8225,1.8338,1.8525,1.8704,1.8883,1.9053,1.9199,1.9256,1.9256,1.9256,1.9256,1.9256,1.9256,1.9256,1.9256,1.9256,1.9256,1.9256,1.9256,1.9256,1.9256,0.0,0.0,0.0,0.0,0.0,0.0,0.0,0.0,0.0,0.0,0.0,0.0,1.8176,1.8176,1.8176,1.8176,0.0,0.0,0.0,0.0,0.0,0.0,0.0,0.0,1.8176,1.8176,1.8168,1.816,1.816,1.8152,1.8144,1.8144,1.8144,1.8135,1.7794,1.7737,1.79,1.79,1.8005,1.816,1.816,1.8168,1.8176,1.8176,1.8176,1.8176,1.8176,1.8176,1.8176,1.8176,1.8176,1.8176,1.8176,1.8176,1.8176,0.0,0.0,0.0,1.8176,1.8176,1.8176,1.8176,1.8176,1.8176,1.8176,1.8176,1.8176,1.8176,1.8176,0.0,0.0,0.0,0.0,0.0,0.0,0.0,0.0,0.0,0.0,0.0,0.0,0.0,0.0,0.0,0.0,0.0,0.0,1.8176,1.8176,1.8176,1.8176,1.8176,1.8176,1.8176,1.8176,1.8347,1.8533,1.8712,1.8883,1.9061,1.9248,1.9256,1.9256,1.9256,1.9256,1.9256,1.9256,1.9256,1.9256,1.9256,1.9256,1.9256,1.9256,1.9256,1.9256,1.9256,0.0,0.0,0.0,0.0,0.0,0.0,0.0,0.0,0.0,0.0,0.0,0.0,0.0,1.8176,1.8176,1.8176,1.8176,0.0,0.0,0.0,0.0,0.0,0.0,0.0,1.8176,1.8176,1.8176,1.8176,1.8176,1.8176,1.8176,1.8176,1.8176,1.8168,1.8038,1.8022,1.8079,1.8079,1.8119,1.8176,1.8176,1.8176,1.8176,1.8176,1.8176,1.8176,1.8176,1.8176,1.8176,1.8176,1.8176,1.8176,1.8176,1.8176,1.8176,1.8176,1.8176,1.8176,1.8176,1.8176,1.8176,1.8176,1.8176,1.8176,1.8176,1.8176,1.8176,1.8176,1.8176,0.0,0.0,0.0,0.0,0.0,0.0,0.0,0.0,0.0,0.0,0.0,0.0,0.0,0.0,0.0,0.0,0.0,0.0,0.0,1.8176,1.8176,1.8176,1.8176,1.8176,1.8233,1.8355,1.842,1.8598,1.8891,1.8956,1.9077,1.9256,1.9256,1.9256,1.9256,1.9256,1.9256,1.9256,1.9256,1.9256,1.9256,1.9256,1.9256,1.9256,1.9256,1.9256,1.9256,0.0,0.0,0.0,0.0,0.0,0.0,0.0,0.0,0.0,1.8176,0.0,0.0,0.0,0.0,1.8176,1.8176,1.8176,1.8176,1.8176,0.0,0.0,0.0,0.0,0.0,1.8176,1.8119,1.8119,1.8176,1.8119,1.8119,1.8176,1.8176,1.8176,1.8176,1.8176,1.8176,1.8176,1.8176,1.8176,1.8176,1.8176,1.8176,1.8176,1.8176,1.8176,1.8269,1.8913,1.9184,1.9184,1.9184,1.9184,1.9099,1.8447,1.8176,1.8176,1.8176,1.8176,1.8176,1.8176,1.8176,1.8176,1.8176,1.8176,1.8176,1.8176,1.8176,1.8176,1.8176,0.0,0.0,0.0,0.0,0.0,0.0,0.0,0.0,0.0,0.0,0.0,0.0,0.0,0.0,0.0,0.0,0.0,0.0,0.0,0.0,1.8176,1.8176,1.8176,1.8176,1.8176,1.8265,1.8547,1.8509,1.8688,1.898,1.9045,1.9142,1.9256,1.9256,1.9256,1.9256,1.9256,1.9256,1.9256,1.9256,1.9256,1.9256,1.9256,1.9256,1.9256,1.9256,1.9256,1.9256,0.0,0.0,0.0,0.0,0.0,0.0,0.0,0.0,1.8176,1.8176,0.0,0.0,0.0,0.0,0.0,1.8176,1.8176,1.8176,1.8176,1.8176,0.0,0.0,0.0,0.0,1.8176,1.8014,1.8005,1.8176,1.8005,1.8014,1.8269,1.8269,1.8269,1.8269,1.8269,1.8269,1.8269,1.8269,1.8269,1.8269,1.8269,1.8363,1.8354,1.8269,1.8269,1.8541,2.0381,2.1028,2.1028,2.1028,2.1028,2.0659,1.882,1.8363,1.8363,1.8269,1.8269,1.8269,0.0,0.0,0.0,1.8176,1.8176,1.8176,1.8176,0.0,1.8176,1.8176,0.0,0.0,0.0,0.0,0.0,0.0,0.0,0.0,0.0,0.0,0.0,0.0,0.0,0.0,0.0,0.0,0.0,0.0,0.0,1.8176,1.8176,1.8176,1.8176,1.8176,1.8176,1.8265,1.846,1.8639,1.8818,1.8996,1.9175,1.9256,1.9256,1.9256,1.9256,1.9256,1.9355,1.9355,1.9256,1.9256,1.9256,1.9256,1.9256,1.9256,1.9256,1.9256,1.9256,1.9256,0.0,0.0,0.0,0.0,0.0,0.0,0.0,0.0,1.8176,0.0,0.0,0.0,1.8176,1.8176,1.8176,1.8176,1.8176,1.8176,1.8176,1.8176,1.8176,0.0,0.0,1.8176,1.8176,1.8127,1.8127,1.8176,1.8127,1.8862,2.0288,1.882,1.8913,2.0196,1.882,1.9006,2.0288,2.0288,2.0288,2.0288,2.0288,2.1121,2.2218,2.0844,2.0288,2.0381,2.0936,2.0196,1.9006,1.9006,1.9006,1.9192,2.0019,2.1306,2.2126,2.0751,2.0288,2.0019,1.8541,0.0,0.0,0.0,0.0,0.0,0.0,0.0,0.0,0.0,0.0,0.0,0.0,0.0,0.0,0.0,0.0,0.0,0.0,0.0,0.0,0.0,0.0,0.0,0.0,0.0,0.0,0.0,1.8176,1.8176,1.8176,1.8176,1.8176,1.8176,1.8176,1.833,1.8647,1.8696,1.8883,1.9183,1.9232,1.9256,1.9256,1.9256,1.9256,1.9355,2.0915,2.0718,1.9256,1.9256,1.9256,1.9256,1.9256,1.9256,1.9256,1.9256,1.9256,1.9256,0.0,0.0,0.0,0.0,0.0,0.0,0.0,0.0,1.8176,0.0,0.0,0.0,1.8176,1.8176,1.8176,1.8176,1.8176,1.8176,1.8176,1.8176,1.8176,1.8176,0.0,1.8176,1.8176,1.8921,1.8921,1.8176,1.8921,1.9468,1.9834,1.8727,1.9276,2.1028,1.9926,2.0473,2.2402,2.3219,2.2586,2.1213,2.1942,2.2034,2.1573,2.1213,2.1121,2.1213,2.2034,2.2126,2.184,2.184,2.1296,2.0844,2.1942,2.3137,2.3779,2.2678,2.231,2.2034,2.0936,2.0659,2.0659,2.0659,0.0,0.0,1.9369,1.882,0.0,0.0,0.0,0.0,0.0,0.0,0.0,0.0,0.0,0.0,0.0,0.0,0.0,0.0,0.0,0.0,0.0,0.0,0.0,1.8176,1.8176,1.8176,1.8176,1.8176,1.8176,1.8176,1.8249,1.8428,1.872,1.8793,1.8972,1.9256,1.9256,1.9256,1.9256,1.9256,1.9256,1.9454,2.1496,2.1201,1.9355,2.0235,2.0038,1.9256,1.9256,1.9256,1.9256,1.9256,1.9256,1.9256,0.0,0.0,0.0,0.0,0.0,0.0,0.0,0.0,0.0,0.0,1.8176,1.8176,1.8176,1.8176,1.8176,1.8176,1.8176,1.8269,1.8549,1.8541,1.8634,0.0,0.0,0.0,1.8541,1.9831,1.9739,1.8176,2.0015,2.0107,1.882,1.882,1.9741,2.1388,2.1388,2.2402,2.4145,2.615,2.4865,2.1573,2.3321,2.1942,1.9006,2.0751,2.1388,2.1665,2.3596,2.5332,2.6695,2.6695,2.5605,2.4328,2.4054,2.4328,2.4602,2.4145,2.4145,2.4328,2.4054,2.3962,2.3962,2.3962,2.2678,0.0,2.1121,1.9741,1.8447,0.0,0.0,0.0,0.0,0.0,0.0,0.0,0.0,0.0,0.0,0.0,0.0,0.0,0.0,0.0,0.0,1.8176,1.8176,1.8176,1.8176,1.8176,1.8176,1.8176,1.8176,1.8176,1.8355,1.8541,1.872,1.8899,1.9077,1.9256,1.9256,1.9454,1.9651,1.9651,1.9651,1.975,2.1879,2.1397,1.9454,2.1496,2.1201,1.9256,1.9256,1.9256,1.9256,1.9256,1.9256,1.9264,0.0,0.0,0.0,0.0,0.0,0.0,0.0,0.0,1.8176,1.8176,1.8176,1.8176,1.8176,1.8176,1.8176,1.8176,1.8176,1.882,2.0473,2.0566,0.0,0.0,0.0,0.0,0.0,0.0,1.8507,1.8176,2.0067,2.1626,2.2862,2.2862,2.3045,2.3412,2.3412,2.3596,2.4145,2.615,2.5605,2.3504,2.3871,2.3504,2.2954,2.3321,2.3412,2.3687,2.5696,2.5605,2.4602,2.4602,2.5423,2.615,2.4511,2.6162,2.8076,2.4967,2.515,2.606,2.4419,2.3962,2.3962,2.3962,0.0,0.0,2.1481,2.0844,2.0103,0.0,0.0,0.0,0.0,0.0,0.0,0.0,0.0,0.0,0.0,0.0,0.0,0.0,0.0,0.0,0.0,1.8176,1.8176,1.8176,1.8176,1.8176,1.8176,1.8176,1.8176,1.8176,1.8355,1.8541,1.872,1.8899,1.9077,1.9256,1.9256,2.0136,2.179,2.179,2.179,2.1879,2.4018,2.275,1.9454,2.1496,2.1201,1.9256,1.9256,1.9256,1.9256,1.9256,1.9256,1.9281,0.0,0.0,0.0,0.0,0.0,0.0,0.0,0.0,1.8541,1.9555,1.9648,1.9276,1.8269,1.9099,1.9276,1.8269,1.9099,1.9648,1.9648,1.9648,0.0,0.0,0.0,0.0,0.0,0.0,2.2116,2.1121,2.3035,2.4043,2.3962,2.3045,2.3045,2.3962,2.3962,2.4602,2.5605,2.7612,2.7341,2.5514,2.5514,2.4317,2.2678,2.3596,2.4602,2.5605,2.6604,2.6979,2.6979,2.6979,2.7624,0.0,2.725,2.8269,2.9541,0.0,2.7624,2.8256,2.725,2.6979,0.0,2.6979,0.0,0.0,0.0,2.1028,1.9369,0.0,0.0,0.0,0.0,0.0,0.0,0.0,0.0,0.0,0.0,0.0,0.0,0.0,0.0,0.0,0.0,1.8176,1.8176,1.8176,1.8176,1.8176,1.8176,1.8176,1.8176,1.8176,1.8444,1.8631,1.8728,1.8988,1.9167,1.9256,1.9256,2.0423,2.2368,2.1299,2.1397,2.2466,2.3531,2.2172,1.9454,2.1496,2.1201,1.9256,1.9256,1.9256,1.9272,1.9354,1.9386,1.941,1.8269,0.0,0.0,0.0,0.0,0.0,0.0,0.0,1.8727,2.0381,2.0566,1.9926,1.8354,1.9555,1.9926,1.8363,2.0019,2.0566,1.9369,1.9648,2.0103,0.0,0.0,2.2218,0.0,0.0,0.0,2.3962,2.5969,2.615,2.4511,2.331,2.3402,2.4602,2.4967,2.5787,2.7148,2.9092,2.8809,2.6966,2.6966,2.4865,2.185,2.3871,2.5605,2.7069,2.7431,2.8539,2.9913,2.9913,2.9913,2.9824,2.9451,2.9644,0.0,0.0,0.0,0.0,0.0,0.0,0.0,0.0,0.0,2.5058,0.0,0.0,0.0,0.0,0.0,0.0,0.0,0.0,0.0,0.0,0.0,0.0,0.0,0.0,0.0,0.0,0.0,0.0,0.0,1.8176,1.8176,1.8176,1.8176,1.8176,1.8176,1.8176,1.8176,1.8176,1.8533,1.8728,1.8728,1.9077,1.9256,1.9256,1.975,2.1013,2.2945,2.1299,2.1397,2.2945,2.2564,2.1496,2.0038,2.1692,2.1692,2.0423,1.9651,1.9553,1.9964,2.0041,2.0399,2.0725,1.8541,1.8176,0.0,0.0,0.0,0.0,0.0,0.0,1.8269,1.8541,1.8541,1.8447,1.8176,1.8363,1.8447,1.8176,2.0019,2.1757,2.3229,2.5047,2.6785,0.0,0.0,0.0,2.6332,0.0,0.0,0.0,2.5969,2.6876,2.6695,2.8166,2.8076,2.6695,2.8449,2.8449,2.7148,2.9092,2.8809,2.6966,2.6966,2.5696,2.3871,2.5878,2.6785,2.725,2.8989,2.9734,2.9913,0.0,2.9913,2.9644,0.0,2.8526,2.9541,2.7805,0.0,0.0,0.0,0.0,0.0,0.0,2.9554,0.0,0.0,0.0,2.5514,2.3687,0.0,0.0,0.0,0.0,0.0,0.0,0.0,0.0,0.0,0.0,0.0,0.0,0.0,0.0,0.0,0.0,1.8176,1.8176,1.8176,1.8176,1.8176,1.8176,1.8176,1.8176,1.8533,1.8728,1.8728,1.9077,1.9256,1.9355,2.1201,2.3141,2.5173,2.4882,2.4882,2.5076,2.3238,2.227,2.2075,2.227,2.3336,2.4397,2.0718,2.0423,2.2103,2.2308,2.3552,2.5282,2.1296,2.1573,2.1573,0.0,0.0,0.0,0.0,0.0,2.1573,2.1573,2.1573,2.1121,2.001,1.9926,1.9926,1.9926,2.1665,2.2678,2.231,2.4145,2.515,0.0,0.0,0.0,0.0,0.0,0.0,0.0,2.8256,2.8719,2.8719,2.8346,2.7792,2.7057,2.7883,2.7792,2.7148,2.9092,2.9451,2.8719,2.8719,2.8166,0.0,2.7069,2.7702,2.8809,2.9644,2.9913,2.9913,0.0,2.9913,0.0,0.0,0.0,0.0,2.8899,0.0,0.0,0.0,0.0,0.0,0.0,0.0,0.0,2.716,0.0,2.5058,0.0,0.0,0.0,0.0,0.0,0.0,0.0,0.0,0.0,0.0,0.0,0.0,0.0,0.0,0.0,0.0,0.0,0.0,0.0,0.0,1.8176,1.8176,1.8176,1.8176,1.8176,1.8533,1.8728,1.8728,1.9077,1.9939,2.1103,2.1977,2.3531,2.5464,2.4202,2.3726,2.3628,2.1496,2.1299,2.2368,2.2368,2.3628,2.5378,2.3768,2.3621,2.4427,2.4653,2.5414,2.6382,2.4967,2.4328,2.3229,2.3229,0.0,0.0,0.0,0.0,2.4602,2.4054,2.3962,2.3504,2.2034,2.185,2.1665,2.1121,2.3412,2.3962,2.2034,2.4237,2.4967,2.3585,2.6241,2.7792,0.0,0.0,0.0,0.0,0.0,2.9913,2.9824,2.8449,2.7792,2.7792,2.7792,2.7792,2.7895,2.9272,2.9913,2.9913,2.9913,2.9913,2.9734,2.8346,2.8629,2.9913,2.9913,2.9913,2.9913,2.9913,2.9913,0.0,2.9913,0.0,0.0,0.0,0.0,0.0,2.9913,0.0,0.0,0.0,0.0,0.0,0.0,0.0,0.0,0.0,0.0,0.0,0.0,0.0,0.0,0.0,0.0,0.0,0.0,0.0,0.0,0.0,0.0,0.0,0.0,0.0,0.0,1.8176,1.8176,1.8176,1.8176,1.8176,1.8176,1.8176,1.8533,1.8728,1.8728,1.9077,2.0333,2.2368,2.2945,2.4008,2.5464,2.392,2.2945,2.2368,2.0817,2.1299,2.3336,2.3823,2.541,2.7329,2.7513,2.7663,2.7812,2.7401,2.7681,2.8376,2.9362,2.515,2.1204,2.1204,2.2678,0.0,0.0,0.0,2.6241,2.4237,2.3962,2.3962,2.3871,2.3871,2.3137,2.1296,2.4682,2.606,2.4054,2.7534,2.9644,2.9644,2.9734,2.9824,2.9824,0.0,0.0,0.0,0.0,0.0,2.9913,0.0,0.0,0.0,2.9824,2.9824,2.9824,2.9824,2.9913,2.9913,2.9913,2.9913,2.9913,0.0,2.9824,2.9913,2.9913,0.0,0.0,2.9913,2.9913,0.0,0.0,0.0,0.0,0.0,0.0,0.0,0.0,0.0,0.0,2.9913,0.0,0.0,0.0,0.0,2.9734,0.0,0.0,0.0,0.0,0.0,2.6798,2.6379,0.0,0.0,0.0,0.0,0.0,0.0,0.0,0.0,0.0,0.0,0.0,1.8176,1.8176,1.8176,1.8176,1.8176,1.8176,1.8176,1.8533,1.8728,1.8728,1.9077,2.0333,2.2466,2.4397,2.5464,2.5464,2.5464,2.431,2.2368,2.2368,2.3433,2.5561,2.7599,2.9788,3.1885,3.1899,3.2257,3.2551,3.0541,3.105,3.2815,2.5878,2.5423,2.5412,2.6707,2.6423,2.5969,2.5969,2.6513,2.725,2.7805,2.6797,2.5514,2.4145,2.3962,2.3779,2.3045,2.5423,2.6695,2.606,2.8449,2.9362,2.8076,2.9182,2.9913,2.9913,0.0,0.0,0.0,0.0,0.0,0.0,0.0,0.0,0.0,2.9913,2.9913,2.9913,2.9913,2.9913,2.9913,0.0,2.9913,2.9913,0.0,0.0,2.9913,2.9913,2.9913,0.0,2.9913,2.9913,2.9913,2.9913,2.9913,2.9913,2.9913,2.9913,0.0,0.0,0.0,2.9913,2.9913,0.0,0.0,0.0,0.0,0.0,0.0,0.0,0.0,0.0,0.0,2.8835,2.8743,2.7218,0.0,0.0,0.0,0.0,0.0,0.0,0.0,0.0,0.0,0.0,1.8176,1.8176,1.8176,0.0,1.8176,1.8176,1.8176,1.8533,1.8728,1.8728,1.9077,2.1013,2.4397,2.3726,2.4882,2.7503,2.6141,2.5076,2.4494,2.4494,2.5658,2.7611,2.8463,3.0144,3.2144,3.2532,3.2799,3.2874,3.2168,3.2484,3.328,2.6071,2.716,2.8166,2.8809,2.8436,2.8076,2.8076,2.8076,2.8256,2.8809,2.7805,2.6513,2.5241,2.5058,2.5058,2.5058,2.6888,2.7702,2.7069,2.8809,2.9362,2.8076,2.9272,2.9913,0.0,0.0,0.0,0.0,0.0,2.9913,0.0,0.0,0.0,0.0,0.0,2.9913,2.9913,2.9913,2.9913,0.0,0.0,2.9913,0.0,0.0,2.9913,2.9913,0.0,2.9913,2.9913,2.9913,2.9913,2.9913,2.9913,2.9913,2.9913,2.9913,2.9913,2.9913,2.9913,2.9913,0.0,2.9913,2.9913,0.0,2.9913,0.0,0.0,0.0,0.0,0.0,0.0,0.0,0.0,2.9913,2.8809,0.0,0.0,2.4226,0.0,0.0,0.0,0.0,0.0,0.0,0.0,1.8176,1.8176,1.8176,0.0,0.0,1.8208,1.8273,1.8566,1.8753,1.8818,1.9885,2.2075,2.5464,2.4882,2.6045,2.856,2.7203,2.6238,2.5561,2.6238,2.7407,2.868,2.9732,3.0986,3.2305,3.2786,3.304,3.3133,3.3133,3.3253,3.3414,2.9913,2.9913,2.9362,2.7431,2.8629,2.9913,2.9913,2.9824,2.9092,2.7341,2.7057,2.6966,2.6966,2.7069,2.7057,2.6966,2.8809,2.9092,2.725,2.8899,0.0,0.0,2.9913,2.9913,2.9913,0.0,0.0,0.0,0.0,0.0,0.0,0.0,0.0,0.0,2.9913,2.9913,2.9913,2.9913,2.9913,2.9913,2.9913,2.9913,2.9913,2.9913,2.9913,2.9913,2.9913,2.9913,2.9913,2.9913,2.9913,2.9913,2.9913,2.9913,2.9913,2.9913,2.9913,2.9913,2.9913,2.9913,2.9913,2.9913,0.0,0.0,0.0,0.0,2.9913,0.0,0.0,0.0,0.0,0.0,0.0,2.9913,2.9913,0.0,0.0,0.0,0.0,0.0,0.0,0.0,0.0,0.0,1.8176,1.8176,1.8176,1.8176,0.0,0.0,1.8257,1.8444,1.8631,1.8809,1.898,2.1298,2.3433,2.5561,2.7503,2.856,2.8764,2.8668,2.7599,2.5948,2.7888,2.8764,2.8992,3.1216,3.2291,3.2696,3.2893,3.3173,3.3414,3.3414,3.3414,3.3414,2.9913,2.9913,2.9734,2.9272,2.9554,2.9913,2.9913,2.8629,2.8076,2.8989,2.7895,2.6966,2.6966,2.8256,2.8539,2.716,2.8809,0.0,0.0,0.0,0.0,2.9913,2.9913,2.9913,2.9913,2.9913,2.9913,2.9913,0.0,0.0,2.9913,0.0,0.0,0.0,0.0,2.9913,2.9913,2.9913,2.9913,2.9913,2.9913,2.9913,0.0,0.0,2.9913,2.9913,2.9913,2.9913,2.9913,2.9913,2.9913,2.9913,2.9913,2.9913,2.9913,2.9913,2.9913,2.9913,2.9913,2.9913,2.9913,2.9913,2.9913,2.9913,0.0,0.0,0.0,0.0,0.0,0.0,0.0,0.0,0.0,0.0,0.0,0.0,0.0,0.0,0.0,2.5503,0.0,0.0,0.0,1.8176,1.8176,1.8176,1.8176,1.8176,0.0,0.0,0.0,1.8444,1.8631,1.8809,1.898,2.1298,2.3433,2.5464,2.6045,2.7888,3.089,2.9338,2.9147,3.0115,3.07,3.1007,3.1229,3.2111,3.2599,3.2893,3.3187,3.3347,3.3414,3.3414,3.3414,3.3414,2.9913,2.9913,2.9913,2.9913,2.9913,2.9913,2.9913,2.8989,2.8346,2.8629,2.7702,0.0,2.6966,2.7985,2.8539,2.8256,2.9272,0.0,2.9913,0.0,0.0,2.9913,2.9913,2.9913,2.9913,2.9913,0.0,2.9913,0.0,0.0,2.9913,0.0,0.0,0.0,0.0,2.9913,2.9913,2.9913,2.9913,2.9913,2.9913,0.0,0.0,2.9913,2.9913,2.9913,2.9913,2.9913,2.9913,2.9913,2.9913,2.9913,2.9913,2.9913,2.9913,2.9913,2.9913,2.9913,2.9913,2.9913,2.9913,2.9913,2.9913,2.9913,2.9913,2.9913,2.9913,0.0,0.0,0.0,0.0,0.0,0.0,0.0,0.0,0.0,0.0,0.0,0.0,0.0,2.45,0.0,0.0,0.0,1.9099,1.8269,1.8176,0.0,0.0,0.0,0.0,1.9871,1.9142,1.9325,2.0455,2.2692,2.4785,2.6914,2.7792,2.9434,3.1664,3.0496,3.0604,3.1664,3.1664,3.1837,3.2131,3.2425,3.2719,3.3013,3.3293,3.3414,3.3414,3.3414,3.3414,3.3414,2.9913,2.9913,2.9913,2.9913,2.9913,2.9913,0.0,2.9644,0.0,2.7612,0.0,2.7057,2.7341,2.7341,2.8076,2.9734,2.9913,2.9913,2.9913,2.9913,2.9913,2.9913,2.9913,2.9913,2.9913,2.9913,2.9913,0.0,0.0,0.0,0.0,0.0,0.0,0.0,2.9913,2.9913,0.0,2.9913,2.9913,2.9913,2.9913,2.9913,2.9913,2.9913,2.9913,2.9913,2.9913,2.9913,2.9913,2.9913,2.9913,2.9913,2.9913,2.9913,2.9913,2.9913,2.9913,2.9913,2.9913,2.9913,2.9913,2.9913,2.9913,2.9913,2.9913,2.9913,2.9913,2.9913,2.9913,0.0,0.0,0.0,0.0,0.0,0.0,0.0,0.0,0.0,0.0,0.0,0.0,0.0,0.0,0.0,0.0,1.8727,1.8363,0.0,0.0,0.0,0.0,0.0,2.0045,0.0,2.1977,0.0,2.6721,2.8176,3.0604,3.1664,3.1664,3.1664,3.1664,3.1677,3.1704,3.1891,3.2185,3.2478,3.2772,3.3066,3.332,3.3414,3.3414,3.3414,3.3414,3.3414,2.9913,2.9913,2.9913,2.9913,2.9913,2.9913,2.9913,2.8539,2.7985,2.9272,2.7985,2.7612,2.9182,2.9362,2.9541,2.9824,2.9913,0.0,0.0,0.0,0.0,2.9913,2.9913,2.9913,2.9913,2.9913,2.9913,0.0,0.0,0.0,2.9913,0.0,0.0,0.0,2.9913,0.0,2.9913,2.9913,0.0,2.9913,2.9913,2.9913,2.9913,2.9913,2.9913,2.9913,2.9913,2.9913,2.9913,2.9913,2.9913,2.9913,2.9913,2.9913,2.9913,2.9913,2.9913,2.9913,2.9913,2.9913,2.9913,2.9913,2.9913,2.9913,2.9913,2.9913,2.9913,2.9913,2.9913,2.9913,2.9913,0.0,0.0,0.0,0.0,0.0,0.0,0.0,0.0,0.0,0.0,0.0,0.0,0.0,0.0,0.0,0.0,0.0,0.0,0.0,0.0,0.0,0.0,0.0,0.0,0.0,0.0,2.6045,2.9924,3.1664,3.1664,3.1664,3.1664,3.1677,3.1917,3.2198,3.2492,3.2786,3.3066,3.3334,3.3387,3.3414,3.3414,3.3414,3.3414,3.3414,2.9913,2.9913,2.9913,2.9913,2.9913,0.0,0.0,2.9092,2.8809,2.9824,2.9092,2.8899,2.9824,2.9913,2.9913,2.9913,2.9913,2.9913,2.9913,2.9913,2.9913,2.9913,2.9913,2.9913,2.9913,2.9913,2.9913,2.9913,0.0,0.0,2.9913,2.9913,0.0,2.9913,0.0,2.9913,0.0,0.0,0.0,2.9913,2.9913,2.9913,2.9913,2.9913,2.9913,2.9913,2.9913,2.9913,2.9913,2.9913,2.9913,2.9913,2.9913,2.9913,2.9913,2.9913,2.9913,2.9913,2.9913,2.9913,2.9913,2.9913,2.9913,2.9913,2.9913,2.9913,2.9913,2.9913,2.9913,2.9913,2.9913,2.9913,0.0,0.0,0.0,0.0,0.0,0.0,0.0,0.0,0.0,0.0,0.0,0.0,0.0,0.0,0.0,0.0,0.0,0.0,0.0,0.0,0.0,0.0,0.0,0.0,0.0,2.8752,3.07,3.1664,3.1664,3.1664,3.1664,3.1677,3.1971,3.2278,3.267,3.3026,3.328,3.3414,3.3414,3.3414,3.3414,3.3414,3.3414,3.3414,2.9913,2.9913,2.9913,2.9913,2.9913,0.0,2.9913,2.9913,2.9913,2.9913,2.9913,2.9913,2.9913,2.9913,2.9913,2.9913,2.9913,2.9913,2.9913,2.9913,2.9913,2.9913,2.9913,2.9913,2.9913,2.9913,2.9913,0.0,0.0,0.0,0.0,0.0,0.0,0.0,0.0,0.0,0.0,0.0,2.9913,2.9913,2.9913,2.9913,2.9913,2.9913,2.9913,2.9913,2.9913,2.9913,2.9913,2.9913,2.9913,2.9913,2.9913,2.9913,2.9913,2.9913,2.9913,2.9913,2.9913,2.9913,2.9913,2.9913,2.9913,2.9913,2.9913,2.9913,2.9913,2.9913,2.9913,2.9913,2.9913,2.9913,0.0,0.0,0.0,0.0,0.0,0.0,0.0,0.0,0.0,0.0,0.0,0.0,0.0,0.0,0.0,2.1204,2.6695,2.3529,0.0,0.0,0.0,2.5887,2.7299,0.0,2.9829,0.0,3.1474,3.1664,3.1664,3.1664,3.1704,3.1784,3.2064,3.2398,3.2759,3.3227,3.3414,3.3414,3.3414,3.3414,3.3414,3.3414,3.3454,3.3507,0.0,2.9913,0.0,0.0,0.0,0.0,2.9913,2.9913,2.9913,2.9913,2.9913,2.9913,2.9913,2.9913,2.9913,2.9913,2.9913,2.9913,2.9913,2.9913,2.9913,2.9913,2.9913,2.9913,2.9913,2.9913,2.9913,0.0,0.0,0.0,0.0,0.0,0.0,0.0,0.0,0.0,0.0,2.9913,2.9913,2.9913,2.9913,2.9913,2.9913,2.9913,2.9913,2.9913,2.9913,2.9913,2.9913,2.9913,2.9913,2.9913,2.9913,2.9913,2.9913,2.9913,2.9913,2.9913,2.9913,2.9913,2.9913,2.9913,2.9913,2.9913,2.9913,2.9913,2.9913,2.9913,2.9913,2.9913,2.9913,2.9913,2.9913,0.0,0.0,0.0,0.0,0.0,2.7895,2.9734,0.0,0.0,0.0,0.0,0.0,0.0,0.0,2.2668,2.6785,2.3447,2.2468,2.4848,0.0,2.4448,2.3043,2.856,0.0,2.8955,3.0795,3.1664,3.1664,3.1664,3.181,3.2078,3.2372,3.2826,3.3334,3.3387,3.3414,3.3414,3.3414,3.3414,3.3414,3.3414,3.3587,3.3841,0.0,0.0,0.0,0.0,0.0,0.0,0.0,2.9182,2.9913,2.9913,2.9913,2.9913,2.9913,2.9913,2.9913,2.9913,2.9913,2.9913,2.9913,2.9913,2.9913,2.9913,2.9913,2.9913,2.9913,2.9913,2.9913,0.0,0.0,0.0,0.0,0.0,0.0,0.0,0.0,2.9913,2.9913,2.9913,2.9913,2.9913,2.9913,2.9913,2.9913,2.9913,2.9913,2.9913,2.9913,2.9913,2.9913,2.9913,2.9913,2.9913,2.9913,2.9913,2.9913,2.9913,2.9913,2.9913,2.9913,2.9913,2.9913,2.9913,2.9913,2.9913,2.9913,2.9913,2.9913,2.9913,2.9913,2.9913,2.9913,2.9913,2.9913,0.0,0.0,0.0,0.0,0.0,0.0,0.0,0.0,2.6979,0.0,0.0,0.0,0.0,0.0,0.0,2.8449,2.5429,0.0,2.6361,0.0,2.8165,2.6141,2.9829,3.1284,3.0509,3.1284,3.1664,3.1677,3.1851,3.2185,3.2639,3.2759,3.304,3.3414,3.3414,3.3414,3.3414,3.3414,3.3414,3.3414,3.3414,3.3614,3.3908,2.7895,0.0,2.6332,0.0,2.6966,2.716,2.7792,2.8989,2.9913,2.9913,2.9913,2.9913,2.9913,2.9913,2.9913,2.9913,2.9913,2.9913,2.9913,2.9913,2.9913,2.9913,2.9913,0.0,2.9913,2.9913,2.9913,2.9913,2.9913,0.0,0.0,0.0,0.0,0.0,3.0181,3.0181,3.0181,3.0181,3.0181,3.0181,3.0181,3.0181,3.0181,3.0181,3.0181,3.0181,3.0181,3.0114,3.0047,3.0047,2.9993,2.9913,2.9913,2.9913,2.9913,2.9913,2.9913,2.9913,2.9913,2.9913,2.9913,2.9913,2.9913,2.9913,2.9913,2.9913,2.9913,2.9913,2.9913,2.9913,2.9913,2.9913,2.9913,2.9913,0.0,0.0,0.0,0.0,0.0,0.0,2.8912,2.8629,2.9824,0.0,0.0,0.0,0.0,0.0,0.0,0.0,0.0,0.0,0.0,0.0,0.0,3.07,3.1664,3.1664,3.1664,3.1664,3.1677,3.2064,3.2505,3.2986,3.3066,3.3227,3.3414,3.3414,3.3414,3.3414,3.3414,3.3414,3.3427,3.3521,3.3748,3.4055,2.4054,2.4054,2.4693,2.6604,2.6966,2.7612,2.9554,2.9913,2.9913,2.9913,2.9913,2.9913,2.9913,2.9913,2.9913,2.9913,2.9913,2.9913,2.9913,2.9913,2.9913,0.0,0.0,2.9913,2.9913,2.9913,2.9913,2.9913,0.0,0.0,3.0354,0.0,3.0782,3.0782,3.0782,3.0782,3.0782,3.0782,3.0782,3.0782,3.0782,3.0782,3.0782,3.0782,3.0782,3.0782,3.0782,3.0595,3.0354,3.0354,3.0154,2.9913,2.9913,2.9913,2.9913,2.9913,2.9913,2.9913,2.9913,2.9913,2.9913,2.9913,2.9913,2.9913,2.9913,2.9913,2.9913,2.9913,2.9913,2.9913,2.9913,2.9913,2.9913,2.9913,0.0,0.0,0.0,0.0,0.0,0.0,2.6435,2.5605,2.9554,0.0,0.0,0.0,0.0,0.0,0.0,0.0,0.0,2.8055,2.8427,0.0,2.856,3.07,3.1664,3.1664,3.1664,3.1664,3.169,3.2278,3.2706,3.2986,3.328,3.3414,3.3414,3.3414,3.3414,3.3414,3.3414,3.3414,3.3454,3.3761,3.4068,3.4362,2.3779,2.3962,2.4237,2.4876,2.606,2.725,2.7792,2.9079,2.9913,2.9913,2.9913,2.9913,2.9913,2.9913,2.9913,0.0,2.9913,2.9913,0.0,2.9913,2.9913,2.9913,3.0114,3.0221,3.0221,3.0408,3.0515,3.0515,0.0,0.0,0.0,3.0755,3.0795,3.0795,3.0795,3.0795,3.0795,3.0795,3.0795,3.0795,3.0795,3.0795,3.0795,3.0795,3.0795,3.0795,3.0795,3.0742,3.0662,3.0662,3.0595,3.0515,3.0515,3.0234,2.9913,2.9913,2.9913,2.9913,2.9913,2.9913,2.9913,2.9913,2.9913,2.9913,2.9913,2.9913,2.9913,2.9913,2.9913,2.9913,2.9913,2.9913,2.9913,2.9913,0.0,0.0,0.0,0.0,0.0,0.0,2.8809,2.8539,0.0,2.833,0.0,0.0,0.0,0.0,0.0,0.0,0.0,0.0,2.9772,0.0,2.856,3.07,3.1664,3.1664,3.1664,3.1877,3.2375,3.2666,3.3,3.328,3.3374,3.3414,3.3414,3.3414,3.3414,3.3414,3.3414,3.3414,3.3454,3.3774,3.4068,3.4362,2.2678,2.3504,2.4237,2.4967,2.615,2.725,2.7985,2.9092,2.9913,2.9913,2.9913,2.9913,2.9913,2.9913,0.0,2.9913,2.9913,2.9913,2.9913,3.002,3.0087,3.0087,3.0368,3.0528,3.0528,0.0,0.0,3.0795,3.0902,3.0955,3.0955,3.1076,3.1116,3.1116,3.1116,3.1116,3.1116,3.1116,3.1116,3.1116,3.1116,3.1116,3.1116,3.1116,3.1116,3.1116,3.1116,3.1049,3.0955,3.0955,3.0889,3.0795,3.0795,3.0541,3.0221,3.0114,3.0007,2.9913,2.9913,2.9913,2.9913,2.9913,2.9913,2.9913,2.9913,2.9913,2.9913,2.9913,2.9913,2.9913,2.9913,2.9913,2.9913,2.9913,0.0,2.9913,2.9913,0.0,0.0,0.0,0.0,0.0,0.0,2.9286,0.0,0.0,0.0,0.0,0.0,0.0,0.0,2.9457,3.0894,0.0,2.9829,3.108,3.1664,3.1664,3.1784,3.2144,3.2719,3.2893,3.3133,3.3414,3.3414,3.3414,3.3414,3.3414,3.3414,3.3414,3.3414,3.348,3.3627,3.3935,3.4242,3.4536,2.1296,2.277,0.0,0.0,2.6966,0.0,2.9644,2.9913,2.9913,2.9913,2.9913,2.9913,2.9913,2.9913,2.9927,2.994,0.0,0.0,0.0,3.0207,3.0368,3.0394,3.0662,3.0822,3.0822,3.0849,3.0849,3.0849,3.1129,3.1249,3.1263,3.1543,3.1664,3.1664,3.1664,3.1664,3.1664,3.1664,3.1664,3.1664,3.1664,3.1664,3.1664,3.1664,3.1664,3.1664,3.1664,3.149,3.1249,3.1249,3.1076,3.0849,3.0849,3.0835,3.0768,3.0474,3.0194,2.9967,2.9953,2.994,2.994,2.9927,2.9913,2.9913,2.9913,2.9913,2.9913,2.9913,2.9913,2.9913,2.9913,2.9913,2.9913,2.9913,2.994,2.994,2.994,0.0,0.0,0.0,0.0,0.0,0.0,3.0808,3.0929,0.0,0.0,0.0,0.0,0.0,3.1383,3.1664,3.1664,3.1664,3.1664,3.1664,3.1677,3.1704,3.1998,3.2425,3.2973,3.3,3.316,3.3414,3.3414,3.3414,3.3414,3.3414,3.3414,3.3414,3.3414,3.3601,3.3921,3.4215,3.4509,3.4803,0.0,0.0,2.4602,2.6604,2.6966,2.7612,2.9644,2.9913,2.9913,2.9913,2.9913,2.9913,2.9913,2.9913,3.0007,3.0234,3.0047,3.0007,3.0247,3.0314,3.0461,3.0675,3.0969,3.1129,3.1129,3.1343,3.1463,3.1463,3.153,3.157,3.157,3.1637,3.1664,3.1664,3.1664,3.1664,3.1664,3.1664,3.1664,3.1664,3.1664,3.1664,3.1664,3.1664,3.1664,3.1664,3.1664,3.1623,3.157,3.157,3.1517,3.1463,3.1463,3.1303,3.1062,3.0768,3.0635,3.0541,3.0314,3.0261,3.0207,2.9967,2.9913,2.9913,2.9913,2.9913,2.9913,2.9913,2.9913,2.9913,2.9913,2.9913,2.9913,2.9913,3.0114,3.0261,3.0261,0.0,0.0,0.0,3.0688,3.0715,3.0782,3.0996,3.1156,0.0,0.0,0.0,0.0,0.0,3.1597,3.1664,3.1664,3.1664,3.1664,3.1664,3.1784,3.2011,3.2305,3.2625,3.2986,3.3213,3.3347,3.3414,3.3414,3.3414,3.3414,3.3414,3.3414,3.3414,3.3414,3.3601,3.3921,3.4215,3.4509,3.4803,2.3596,2.4785,2.5696,2.6785,2.7702,2.8719,2.9734,2.9913,2.9913,2.9913,2.9913,2.9913,2.9913,3.0034,3.0181,3.0341,3.0207,3.0247,3.0541,3.0675,3.0822,3.0982,3.1276,3.1423,3.1423,3.1583,3.1664,3.1664,3.1664,3.1664,3.1664,3.1664,3.1664,3.1664,3.1664,3.1664,3.1664,3.1664,3.1664,3.1664,3.1664,3.1664,3.1664,3.1664,3.1664,3.1664,3.1664,3.1664,3.1664,3.1664,3.1664,3.1664,3.1664,3.1557,3.1396,3.1236,3.1009,3.0755,3.0595,3.0555,3.0488,3.0194,3.0114,3.0087,2.994,3.002,3.0114,3.0114,3.0221,3.0314,3.0314,3.0314,3.0314,3.0314,3.0448,3.0555,3.0555,3.0688,0.0,3.0969,3.0996,3.1049,3.1183,3.133,3.1423,3.1423,0.0,0.0,3.1664,3.1664,3.1664,3.1664,3.1664,3.1664,3.1664,3.1797,3.2011,3.2305,3.2599,3.2893,3.3187,3.3334,3.3414,3.3414,3.3414,3.3414,3.3414,3.3414,3.3414,3.3427,3.3574,3.3814,3.4122,3.4416,3.471,3.4977,2.3596,2.5423,2.6604,2.6966,2.8346,2.9541,2.9824,2.9913,2.9913,2.9913,2.9953,2.998,2.998,3.0247,3.0448,3.0488,3.0488,3.0595,3.0849,3.1089,3.1249,3.1289,3.153,3.1664,3.1664,3.1664,3.1664,3.1664,3.1664,3.1664,3.1664,3.1664,3.1664,3.1664,3.1664,3.1664,3.1664,3.1664,3.1664,3.1664,3.1664,3.1664,3.1664,3.1664,3.1664,3.1664,3.1664,3.1664,3.1664,3.1664,3.1664,3.1664,3.1664,3.1664,3.1664,3.1664,3.1316,3.0915,3.0862,3.0822,3.0742,3.0488,3.0421,3.0354,3.01,3.0247,3.0421,3.0421,3.0621,3.0795,3.0795,3.0795,3.0795,3.0795,3.0822,3.0862,3.0862,0.0,3.1022,3.1263,3.1289,3.1396,3.1637,3.1664,3.1664,3.1664,3.1664,0.0,0.0,3.1664,3.1664,3.1664,3.1664,3.169,3.173,3.1984,3.2278,3.2612,3.2866,3.3133,3.3414,3.3414,3.3414,3.3414,3.3414,3.3414,3.3414,3.3414,3.3414,3.344,3.3761,3.4068,3.4362,3.4656,3.495,3.5191,2.3596,2.4237,2.4967,2.6695,2.725,2.7985,2.9644,2.9913,2.9913,2.9913,3.014,3.0287,3.0287,3.0555,3.0822,3.1076,3.1089,3.1116,3.1156,3.1196,3.1343,3.1583,3.1637,3.1664,3.1664,3.1664,3.1664,3.1664,3.1664,3.1664,3.1664,3.1664,3.1664,3.1664,3.1664,3.1664,3.1664,3.1664,3.1664,3.1664,3.1664,3.1664,3.1664,3.1664,3.1664,3.1664,3.1664,3.1664,3.1664,3.1664,3.1664,3.1664,3.1664,3.1664,3.1664,3.1664,3.1597,3.1476,3.1223,3.0982,3.0782,3.0742,3.0728,3.0715,3.0675,3.0688,3.0728,3.0728,3.0755,3.0795,3.0795,3.0795,3.0795,3.0795,3.0996,3.1156,3.1156,0.0,3.1543,3.1597,3.1597,3.1623,3.1664,3.1664,3.1664,3.1664,3.1664,3.1664,3.1664,3.1664,3.1664,3.1664,3.1664,3.1784,3.2038,3.2078,3.2372,3.2919,3.2959,3.3133,3.3414,3.3414,3.3414,3.3414,3.3414,3.3414,3.3414,3.3414,3.3414,3.344,3.3761,3.4068,3.4362,3.4656,3.495,3.5191,2.3412,2.3962,2.4602,2.6604,2.7895,2.8899,2.9734,2.9913,2.998,3.014,3.0274,3.0421,3.0581,3.0849,3.1076,3.1209,3.137,3.1463,3.1463,3.1463,3.153,3.1664,3.1664,3.1664,3.1664,3.1664,3.1664,3.1664,3.1664,3.1664,3.1664,3.1664,3.1664,3.1664,3.1664,3.1664,3.1664,3.1664,3.1664,3.1664,3.1664,3.1664,3.1664,3.1664,3.1664,3.1664,3.1664,3.1664,3.1664,3.1664,3.1664,3.1664,3.1664,3.1664,3.1664,3.1664,3.1664,3.1637,3.1503,3.137,3.1223,3.1062,3.1022,3.0982,3.0822,3.0915,3.1022,3.1022,3.1156,3.1263,3.1263,3.1263,3.1263,3.1263,3.137,0.0,0.0,3.1583,3.1664,3.1664,3.1664,3.1664,3.1664,3.1664,3.1664,3.1664,3.1664,3.1664,3.1664,3.1664,3.1664,3.1664,3.1824,3.1971,3.2104,3.2412,3.2706,3.2986,3.3133,3.328,3.3414,3.3414,3.3414,3.3414,3.3414,3.3414,3.3414,3.3414,3.3507,3.3694,3.4002,3.4295,3.4589,3.4883,3.5084,3.5191,2.2678,2.3687,2.4602,2.6604,2.8629,2.994,3.0007,3.002,3.0127,3.0421,3.0515,3.0648,3.0862,3.1156,3.133,3.133,3.153,3.1664,3.1664,3.1664,3.1664,3.1664,3.1664,3.1664,3.1664,3.1664,3.1664,3.1664,3.1664,3.1664,3.1664,3.1664,3.1664,3.1664,3.1664,3.1664,3.1664,3.1664,3.1664,3.1664,3.1664,3.1664,3.1664,3.1664,3.1664,3.1664,3.1664,3.1664,3.1664,3.1664,3.1664,3.1664,3.1664,3.1664,3.1664,3.1664,3.1664,3.1664,3.1664,3.1664,3.161,3.1383,3.133,3.1276,3.1049,3.1169,3.133,3.133,3.1517,3.1664,3.1664,3.1664,3.1664,3.1664,0.0,0.0,0.0,3.1664,3.1664,3.1664,3.1664,3.1664,3.1664,3.1664,3.1664,3.1664,3.1664,3.1664,3.1664,3.1664,3.1704,3.177,3.1984,3.2171,3.2305,3.2746,3.3013,3.308,3.3307,3.3414,3.3414,3.3414,3.3414,3.3414,3.3414,3.3414,3.3414,3.3494,3.3668,3.3921,3.4282,3.4563,3.4803,3.5084,3.5191,3.5191,2.0936,2.277,2.4602,2.6604,2.8629,3.0007,3.0287,3.0327,3.0434,3.0728,3.0996,3.1169,3.1196,3.1463,3.1637,3.1637,3.1664,3.1664,3.1664,3.1664,3.1664,3.1664,3.1664,3.1664,3.1664,3.1664,3.1664,3.1664,3.1664,3.1664,3.1664,3.1664,3.1664,3.1664,3.1664,3.1664,3.1664,3.1664,3.1664,3.1664,3.1664,3.1664,3.1664,3.1664,3.1664,3.1664,3.1664,3.1664,3.1664,3.1664,3.1664,3.1664,3.1664,3.1664,3.1664,3.1664,3.1664,3.1664,3.1664,3.1664,3.1664,3.1637,3.1637,3.1637,3.161,3.1623,3.1637,3.1637,3.165,3.1664,3.1664,3.1664,3.1664,3.1664,0.0,0.0,3.1664,3.1664,3.1664,3.1664,3.1664,3.1664,3.1664,3.1664,3.1664,3.1664,3.1664,3.1664,3.1664,3.1664,3.1797,3.2064,3.2091,3.2358,3.2906,3.2959,3.3106,3.3374,3.34,3.3414,3.3414,3.3414,3.3414,3.3414,3.3414,3.3414,3.3427,3.3734,3.3868,3.3948,3.4509,3.475,3.4803,3.5084,3.5191,3.5191,2.2494,2.4511,2.6573,2.8769,2.9728,3.0287,3.0581,3.0621,3.0728,3.1022,3.1156,3.1289,3.1476,3.1597,3.1664,3.1664,3.1664,3.1664,3.1664,3.1664,3.1664,3.1664,3.1664,3.1664,3.1664,3.1664,3.1664,3.1664,3.1664,3.1664,3.1664,3.1664,3.1664,3.1664,3.1664,3.1664,3.1664,3.1664,3.1664,3.1664,3.1664,3.1664,3.1664,3.1664,3.1664,3.1664,3.1664,3.1664,3.1664,3.1664,3.1664,3.1664,3.1664,3.1664,3.1664,3.1664,3.1664,3.1664,3.1664,3.1664,3.1664,3.1664,3.1664,3.1664,3.1664,3.1664,3.1664,3.1664,3.1664,3.1664,3.1664,3.1664,3.1664,3.1664,0.0,3.1664,3.1664,3.1664,3.1664,3.1664,3.1664,3.1664,3.1664,3.1664,3.1664,3.1664,3.1664,3.1664,3.1664,3.1837,3.2158,3.2625,3.2652,3.2746,3.2973,3.316,3.3307,3.3414,3.3414,3.3414,3.3414,3.3414,3.3414,3.3414,3.3414,3.3414,3.344,3.3761,3.3988,3.4189,3.4603,3.487,3.5044,3.5151,3.5191,3.5191,2.4518,2.6176,2.7822,3.0161,3.0501,3.0595,3.0889,3.0929,3.1036,3.133,3.137,3.1436,3.165,3.1664,3.1664,3.1664,3.1664,3.1664,3.1664,3.1664,3.1664,3.1664,3.1664,3.1664,3.1664,3.1664,3.1664,3.1664,3.1664,3.1664,3.1664,3.1664,3.1664,3.1664,3.1664,3.1664,3.1664,3.1664,3.1664,3.1664,3.1664,3.1664,3.1664,3.1664,3.1664,3.1664,3.1664,3.1664,3.1664,3.1664,3.1664,3.1664,3.1664,3.1664,3.1664,3.1664,3.1664,3.1664,3.1664,3.1664,3.1664,3.1664,3.1664,3.1664,3.1664,3.1664,3.1664,3.1664,3.1664,3.1664,3.1664,3.1664,3.1664,3.1664,3.1664,3.1664,3.1664,3.1664,3.1664,3.1664,3.1664,3.1664,3.1664,3.1664,3.1664,3.1664,3.1664,3.1704,3.1797,3.2171,3.2559,3.2973,3.3066,3.312,3.312,3.3307,3.3414,3.3414,3.3414,3.3414,3.3414,3.3414,3.3414,3.3414,3.3414,3.3467,3.3587,3.3895,3.4202,3.4496,3.479,3.5017,3.5191,3.5191,3.5191,3.5191,2.657,2.7365,2.8106,3.036,3.0795,3.0889,3.1183,3.1223,3.133,3.1637,3.1664,3.1664,3.1664,3.1664,3.1664,3.1664,3.1664,3.1664,3.1664,3.1664,3.1664,3.1664,3.1664,3.1664,3.1664,3.1664,3.1664,3.1664,3.1664,3.1664,3.1664,3.1664,3.1664,3.1664,3.1664,3.1664,3.1664,3.1664,3.1664,3.1664,3.1664,3.1664,3.1664,3.1664,3.1664,3.1664,3.1664,3.1664,3.1664,3.1664,3.1664,3.1664,3.1664,3.1664,3.1664,3.1664,3.1664,3.1664,3.1664,3.1664,3.1664,3.1664,3.1664,3.1664,3.1664,3.1664,3.1664,3.1664,3.1664,3.1664,3.1664,3.1664,3.1664,3.1664,3.1664,3.1664,3.1664,3.1664,3.1664,3.1664,3.1664,3.1664,3.1664,3.1664,3.1664,3.1664,3.1677,3.1797,3.2091,3.2666,3.2973,3.2986,3.3253,3.3414,3.3414,3.3414,3.3414,3.3414,3.3414,3.3414,3.3414,3.3414,3.3414,3.3414,3.3414,3.3587,3.3908,3.4202,3.4496,3.479,3.5084,3.5191,3.5191,3.5191,3.5191,3.5191,2.7247,2.7642,2.8297,3.0663,2.9862,2.9469,3.1301,3.153,3.157,3.1664,3.1664,3.1664,3.1664,3.1664,3.1664,3.1664,3.1664,3.1664,3.1664,3.1664,3.1664,3.1664,3.1664,3.1664,3.1664,3.1664,3.1664,3.1664,3.1664,3.1664,3.1664,3.1664,3.1664,3.1664,3.1664,3.1664,3.1664,3.1664,3.1664,3.1664,3.1664,3.1664,3.1664,3.1664,3.1664,3.1664,3.1664,3.1664,3.1664,3.1664,3.1664,3.1664,3.1664,3.1664,3.1664,3.1664,3.1664,3.1664,3.1664,3.1664,3.1664,3.1664,3.1664,3.1664,3.1664,3.1664,3.1664,3.1664,3.1664,3.1664,3.1664,3.1664,3.1664,3.1664,3.1664,3.1664,3.1664,3.1664,3.1664,3.1664,3.1664,3.1664,3.1664,3.1664,3.1664,3.1664,3.1851,3.2185,3.2692,3.2879,3.3066,3.328,3.336,3.3414,3.3414,3.3414,3.3414,3.3414,3.3414,3.3414,3.3414,3.3414,3.3414,3.3427,3.3654,3.3801,3.3921,3.4429,3.4683,3.479,3.5084,3.5191,3.5191,3.5191,3.5191,3.5191,2.6476,2.7357,2.8393,2.9904,2.9766,3.0019,3.1447,3.1664,3.1664,3.1664,3.1664,3.1664,3.1664,3.1664,3.1664,3.1664,3.1664,3.1664,3.1664,3.1664,3.1664,3.1664,3.1664,3.1664,3.1664,3.1664,3.1664,3.1664,3.1664,3.1664,3.1664,3.1664,3.1664,3.1664,3.1664,3.1664,3.1664,3.1664,3.1664,3.1664,3.1664,3.1664,3.1664,3.1664,3.1664,3.1664,3.1664,3.1664,3.1664,3.1664,3.1664,3.1664,3.1664,3.1664,3.1664,3.1664,3.1664,3.1664,3.1664,3.1664,3.1664,3.1664,3.1664,3.1664,3.1664,3.1664,3.1664,3.1664,3.1664,3.1664,3.1664,3.1664,3.1664,3.1664,3.1664,3.1664,3.1664,3.1664,3.1664,3.1664,3.1664,3.1664,3.1664,3.1664,3.1717,3.1837,3.2211,3.2599,3.2959,3.3093,3.3227,3.34,3.3414,3.3414,3.3414,3.3414,3.3414,3.3414,3.3414,3.3414,3.3414,3.3414,3.348,3.3614,3.3801,3.4015,3.4255,3.4616,3.483,3.495,3.5124,3.5191,3.5191,3.5191,3.5191,3.5191,2.5003,2.6572,2.7985,2.8524,3.021,3.1474,3.1664,3.1664,3.1664,3.1664,3.1664,3.1664,3.1664,3.1664,3.1664,3.1664,3.1664,3.1664,3.1664,3.1664,3.1664,3.1664,3.1664,3.1664,3.1664,3.1664,3.1664,3.1664,3.1664,3.1664,3.1664,3.1664,3.1664,3.1664,3.1664,3.1664,3.1664,3.1664,3.1664,3.1664,3.1664,3.1664,3.1664,3.1664,3.1664,3.1664,3.1664,3.1664,3.1664,3.1664,3.1664,3.1664,3.1664,3.1664,3.1664,3.1664,3.1664,3.1664,3.1664,3.1664,3.1664,3.1664,3.1664,3.1664,3.1664,3.1664,3.1664,3.1664,3.1664,3.1664,3.1664,3.1664,3.1664,3.1664,3.1664,3.1664,3.1664,3.1664,3.1664,3.1664,3.1664,3.1677,3.1704,3.173,3.1864,3.2158,3.2679,3.2986,3.3013,3.3267,3.3414,3.3414,3.3414,3.3414,3.3414,3.3414,3.3414,3.3414,3.3414,3.3414,3.3414,3.344,3.3614,3.3895,3.3948,3.4269,3.4763,3.479,3.4963,3.5191,3.5191,3.5191,3.5191,3.5191,3.5191,3.5191,2.5378,2.5775,2.6568,2.826,2.8955,2.9829,3.1474,3.1664,3.1664,3.1664,3.1664,3.1664,3.1664,3.1664,3.1664,3.1664,3.1664,3.1664,3.1664,3.1664,3.1664,3.1664,3.1664,3.1664,3.1664,3.1664,3.1664,3.1664,3.1664,3.1664,3.1664,3.1664,3.1664,3.1664,3.1664,3.1664,3.1664,3.1664,3.1664,3.1664,3.1664,3.1664,3.1664,3.1664,3.1664,3.1664,3.1664,3.1664,3.1664,3.1664,3.1664,3.1664,3.1664,3.1664,3.1664,3.1664,3.1664,3.1664,3.1664,3.1664,3.1664,3.1664,3.1664,3.1664,3.1664,3.1664,3.1664,3.1664,3.1664,3.1664,3.1664,3.1664,3.1664,3.1664,3.1664,3.1664,3.1664,3.1664,3.1664,3.1664,3.1664,3.1757,3.1984,3.2225,3.2478,3.2772,3.2906,3.308,3.3307,3.3374,3.3414,3.3414,3.3414,3.3414,3.3414,3.3414,3.3414,3.3414,3.3414,3.3414,3.3414,3.3668,3.3828,3.3908,3.4376,3.4643,3.4776,3.5004,3.5137,3.5191,3.5191,3.5191,3.5191,3.5191,3.5191,3.5191,2.4018,2.4785,2.6141,2.8272,2.9434,3.0401,3.1569,3.1664,3.1664,3.1664,3.1664,3.1664,3.1664,3.1664,3.1664,3.1664,3.1664,3.1664,3.1664,3.1664,3.1664,3.1664,3.1664,3.1664,3.1664,3.1664,3.1664,3.1664,3.1664,3.1664,3.1664,3.1664,3.1664,3.1664,3.1664,3.1664,3.1664,3.1664,3.1664,3.1664,3.1664,3.1664,3.1664,3.1664,3.1664,3.1664,3.1664,3.1664,3.1664,3.1664,3.1664,3.1664,3.1664,3.1664,3.1664,3.1664,3.1664,3.1664,3.1664,3.1664,3.1664,3.1664,3.1664,3.1664,3.1664,3.1664,3.1664,3.1664,3.1664,3.1664,3.1664,3.1664,3.1664,3.1664,3.1664,3.1664,3.1664,3.1664,3.1717,3.1864,3.1877,3.1998,3.2278,3.2585,3.2812,3.2973,3.3106,3.3253,3.34,3.3414,3.3414,3.3414,3.3414,3.3414,3.3414,3.3414,3.3414,3.3414,3.3414,3.3414,3.3427,3.3748,3.3961,3.4122,3.4563,3.4843,3.4977,3.5137,3.5191,3.5191,3.5191,3.5191,3.5191,3.5191,3.5191,3.5191,2.2466,2.4397,2.6528,2.8272,3.0306,3.1664,3.1664,3.1664,3.1664,3.1664,3.1664,3.1664,3.1664,3.1664,3.1664,3.1664,3.1664,3.1664,3.1664,3.1664,3.1664,3.1664,3.1664,3.1664,3.1664,3.1664,3.1664,3.1664,3.1664,3.1664,3.1664,3.1664,3.1664,3.1664,3.1664,3.1664,3.1664,3.1664,3.1664,3.1664,3.1664,3.1664,3.1664,3.1664,3.1664,3.1664,3.1664,3.1664,3.1664,3.1664,3.1664,3.1664,3.1664,3.1664,3.1664,3.1664,3.1664,3.1664,3.1664,3.1664,3.1664,3.1664,3.1664,3.1664,3.1664,3.1664,3.1664,3.1664,3.1664,3.1664,3.1664,3.1664,3.1664,3.1664,3.1664,3.169,3.1744,3.1744,3.1851,3.2144,3.2225,3.2345,3.2599,3.2879,3.3053,3.3053,3.328,3.3414,3.3414,3.3414,3.3414,3.3414,3.3414,3.3414,3.3414,3.3414,3.3414,3.3414,3.3467,3.3494,3.3507,3.3814,3.4122,3.4416,3.471,3.4977,3.5191,3.5191,3.5191,3.5191,3.5191,3.5191,3.5191,3.5191,3.5191,3.5191,2.276,2.5561,2.8272,2.856,3.0306,3.1664,3.1664,3.1664,3.1664,3.1664,3.1664,3.1664,3.1664,3.1664,3.1664,3.1664,3.1664,3.1664,3.1664,3.1664,3.1664,3.1664,3.1664,3.1664,3.1664,3.1664,3.1664,3.1664,3.1664,3.1664,3.1664,3.1664,3.1664,3.1664,3.1664,3.1664,3.1664,3.1664,3.1664,3.1664,3.1664,3.1664,3.1664,3.1664,3.1664,3.1664,3.1664,3.1664,3.1664,3.1664,3.1664,3.1664,3.1664,3.1664,3.1664,3.1664,3.1664,3.1664,3.1664,3.1664,3.1664,3.1664,3.1664,3.1664,3.1664,3.1664,3.1664,3.1664,3.1664,3.1664,3.1664,3.1664,3.1664,3.1664,3.1664,3.1757,3.2011,3.2051,3.2158,3.2452,3.2706,3.2879,3.2919,3.3187,3.336,3.336,3.3387,3.3414,3.3414,3.3414,3.3414,3.3414,3.3414,3.3414,3.3414,3.3414,3.3414,3.3414,3.3694,3.3828,3.3828,3.4122,3.4429,3.4723,3.5017,3.5164,3.5191,3.5191,3.5191,3.5191,3.5191,3.5191,3.5191,3.5191,3.5191,3.5191,2.5561,2.7311,2.8955,3.0115,3.108,3.1664,3.1664,3.1664,3.1664,3.1664,3.1664,3.1664,3.1664,3.1664,3.1664,3.1664,3.1664,3.1664,3.1664,3.1664,3.1664,3.1664,3.1664,3.1664,3.1664,3.1664,3.1664,3.1664,3.1664,3.1664,3.1664,3.1664,3.1664,3.1664,3.1664,3.1664,3.1664,3.1664,3.1664,3.1664,3.1664,3.1664,3.1664,3.1664,3.1664,3.1664,3.1664,3.1664,3.1664,3.1664,3.1664,3.1664,3.1664,3.1664,3.1664,3.1664,3.1664,3.1664,3.1664,3.1664,3.1664,3.1664,3.1797,3.1904,3.1904,3.2038,3.2064,3.1744,3.1664,3.1664,3.1664,3.1797,3.1904,3.1904,3.2051,3.2198,3.2332,3.2345,3.2465,3.2746,3.304,3.3213,3.3213,3.3334,3.3414,3.3414,3.3414,3.3414,3.3414,3.3414,3.3414,3.3414,3.3414,3.3414,3.3414,3.3414,3.3494,3.3681,3.3828,3.3881,3.3908,3.4362,3.4643,3.4776,3.507,3.5191,3.5191,3.5191,3.5191,3.5191,3.5191,3.5191,3.5191,3.5191,3.5191,3.5191]}]]